Wetterdaten: Freitag, 10.02.2017
Datum Zeit Temp. A. Feuchte A. Luftdruck Regen Wind Richtung Richtung Sonnenschein ET UV Solar Taupunkt Windchill Windben Empfang
10.02.2017 00:00 -1,6 C 92 % 1021,5 hPa 0,0 l/m 17,1 km/h (3 Bft) O 95 0 min 0,000 mm 0,0 UV-I 0 W/m -2,7 C -10,2 C 24,1 km/h (4 Bft) 100,00 %
10.02.2017 00:02 -1,6 C 92 % 1021,5 hPa 0,0 l/m 18,9 km/h (3 Bft) O-NO 66 0 min 0,000 mm 0,0 UV-I 0 W/m -2,7 C -11,1 C 30,6 km/h (5 Bft) 97,83 %
10.02.2017 00:04 -1,7 C 91 % 1021,5 hPa 0,0 l/m 19,9 km/h (4 Bft) O 79 0 min 0,000 mm 0,0 UV-I 0 W/m -3,0 C -11,8 C 29,0 km/h (5 Bft) 97,73 %
10.02.2017 00:06 -1,6 C 92 % 1021,5 hPa 0,0 l/m 20,1 km/h (4 Bft) O 92 0 min 0,000 mm 0,0 UV-I 0 W/m -2,7 C -11,7 C 27,4 km/h (4 Bft) 100,00 %
10.02.2017 00:08 -1,6 C 92 % 1021,6 hPa 0,0 l/m 19,3 km/h (3 Bft) O-SO 117 0 min 0,000 mm 0,0 UV-I 0 W/m -2,7 C -11,4 C 25,7 km/h (4 Bft) 96,77 %
10.02.2017 00:10 -1,6 C 91 % 1021,5 hPa 0,0 l/m 17,1 km/h (3 Bft) O 84 0 min 0,000 mm 0,0 UV-I 0 W/m -2,9 C -10,2 C 25,7 km/h (4 Bft) 98,11 %
10.02.2017 00:12 -1,7 C 91 % 1021,5 hPa 0,0 l/m 20,7 km/h (4 Bft) O-NO 61 0 min 0,000 mm 0,0 UV-I 0 W/m -3,0 C -12,2 C 27,4 km/h (4 Bft) 100,00 %
10.02.2017 00:14 -1,7 C 91 % 1021,5 hPa 0,0 l/m 19,5 km/h (3 Bft) O 98 0 min 0,000 mm 0,0 UV-I 0 W/m -3,0 C -11,6 C 25,7 km/h (4 Bft) 95,89 %
10.02.2017 00:16 -1,6 C 91 % 1021,5 hPa 0,0 l/m 15,7 km/h (3 Bft) O 80 0 min 0,000 mm 0,0 UV-I 0 W/m -2,9 C -9,4 C 24,1 km/h (4 Bft) 100,00 %
10.02.2017 00:18 -1,7 C 91 % 1021,5 hPa 0,0 l/m 15,9 km/h (3 Bft) O-NO 78 0 min 0,000 mm 0,0 UV-I 0 W/m -3,0 C -9,6 C 27,4 km/h (4 Bft) 98,11 %
10.02.2017 00:20 -1,7 C 91 % 1021,5 hPa 0,0 l/m 18,0 km/h (3 Bft) O 89 0 min 0,000 mm 0,0 UV-I 0 W/m -3,0 C -10,8 C 25,7 km/h (4 Bft) 89,47 %
10.02.2017 00:22 -1,7 C 91 % 1021,5 hPa 0,0 l/m 17,0 km/h (3 Bft) O 80 0 min 0,000 mm 0,0 UV-I 0 W/m -3,0 C -10,2 C 24,1 km/h (4 Bft) 98,00 %
10.02.2017 00:24 -1,7 C 91 % 1021,5 hPa 0,0 l/m 16,1 km/h (3 Bft) O 81 0 min 0,000 mm 0,0 UV-I 0 W/m -3,0 C -9,7 C 22,5 km/h (4 Bft) 97,56 %
10.02.2017 00:26 -1,6 C 91 % 1021,5 hPa 0,0 l/m 14,6 km/h (3 Bft) O 86 0 min 0,000 mm 0,0 UV-I 0 W/m -2,9 C -8,7 C 20,9 km/h (4 Bft) 98,11 %
10.02.2017 00:28 -1,6 C 91 % 1021,4 hPa 0,0 l/m 21,9 km/h (4 Bft) O-NO 71 0 min 0,000 mm 0,0 UV-I 0 W/m -2,9 C -12,6 C 30,6 km/h (5 Bft) 98,11 %
10.02.2017 00:30 -1,6 C 91 % 1021,4 hPa 0,0 l/m 22,5 km/h (4 Bft) O 82 0 min 0,000 mm 0,0 UV-I 0 W/m -2,9 C -12,9 C 30,6 km/h (5 Bft) 97,56 %
10.02.2017 00:32 -1,6 C 91 % 1021,5 hPa 0,0 l/m 18,6 km/h (3 Bft) O-NO 67 0 min 0,000 mm 0,0 UV-I 0 W/m -2,9 C -11,0 C 30,6 km/h (5 Bft) 96,00 %
10.02.2017 00:34 -1,6 C 91 % 1021,4 hPa 0,0 l/m 17,6 km/h (3 Bft) O-NO 74 0 min 0,000 mm 0,0 UV-I 0 W/m -2,9 C -10,5 C 27,4 km/h (4 Bft) 100,00 %
10.02.2017 00:36 -1,6 C 91 % 1021,4 hPa 0,0 l/m 16,8 km/h (3 Bft) O 82 0 min 0,000 mm 0,0 UV-I 0 W/m -2,9 C -10,0 C 22,5 km/h (4 Bft) 96,55 %
10.02.2017 00:38 -1,6 C 91 % 1021,3 hPa 0,0 l/m 15,8 km/h (3 Bft) O 81 0 min 0,000 mm 0,0 UV-I 0 W/m -2,9 C -9,4 C 27,4 km/h (4 Bft) 97,62 %
10.02.2017 00:40 -1,6 C 91 % 1021,4 hPa 0,0 l/m 16,2 km/h (3 Bft) O-NO 65 0 min 0,000 mm 0,0 UV-I 0 W/m -2,9 C -9,7 C 20,9 km/h (4 Bft) 97,87 %
10.02.2017 00:42 -1,6 C 91 % 1021,4 hPa 0,0 l/m 17,2 km/h (3 Bft) O-SO 111 0 min 0,000 mm 0,0 UV-I 0 W/m -2,9 C -10,2 C 24,1 km/h (4 Bft) 97,56 %
10.02.2017 00:44 -1,6 C 91 % 1021,3 hPa 0,0 l/m 13,5 km/h (3 Bft) O 80 0 min 0,000 mm 0,0 UV-I 0 W/m -2,9 C -7,9 C 17,7 km/h (3 Bft) 97,87 %
10.02.2017 00:46 -1,6 C 91 % 1021,3 hPa 0,0 l/m 14,3 km/h (3 Bft) O 84 0 min 0,000 mm 0,0 UV-I 0 W/m -2,9 C -8,5 C 22,5 km/h (4 Bft) 98,11 %
10.02.2017 00:48 -1,6 C 91 % 1021,3 hPa 0,0 l/m 17,4 km/h (3 Bft) O 82 0 min 0,000 mm 0,0 UV-I 0 W/m -2,9 C -10,3 C 27,4 km/h (4 Bft) 97,56 %
10.02.2017 00:50 -1,6 C 91 % 1021,3 hPa 0,0 l/m 18,5 km/h (3 Bft) O-NO 73 0 min 0,000 mm 0,0 UV-I 0 W/m -2,9 C -10,9 C 24,1 km/h (4 Bft) 96,43 %
10.02.2017 00:52 -1,6 C 91 % 1021,3 hPa 0,0 l/m 15,4 km/h (3 Bft) O-NO 66 0 min 0,000 mm 0,0 UV-I 0 W/m -2,9 C -9,2 C 22,5 km/h (4 Bft) 97,56 %
10.02.2017 00:54 -1,7 C 91 % 1021,3 hPa 0,0 l/m 16,1 km/h (3 Bft) O-NO 74 0 min 0,000 mm 0,0 UV-I 0 W/m -3,0 C -9,7 C 22,5 km/h (4 Bft) 98,00 %
10.02.2017 00:56 -1,7 C 91 % 1021,3 hPa 0,0 l/m 17,3 km/h (3 Bft) O 86 0 min 0,000 mm 0,0 UV-I 0 W/m -3,0 C -10,4 C 24,1 km/h (4 Bft) 97,56 %
10.02.2017 00:58 -1,7 C 91 % 1021,3 hPa 0,0 l/m 19,6 km/h (3 Bft) O-NO 63 0 min 0,000 mm 0,0 UV-I 0 W/m -3,0 C -11,6 C 30,6 km/h (5 Bft) 100,00 %
10.02.2017 01:00 -1,6 C 91 % 1021,2 hPa 0,0 l/m 14,7 km/h (3 Bft) O-NO 76 0 min 0,000 mm 0,0 UV-I 0 W/m -2,9 C -8,7 C 22,5 km/h (4 Bft) 98,11 %
10.02.2017 01:02 -1,7 C 91 % 1021,2 hPa 0,0 l/m 18,2 km/h (3 Bft) O-NO 76 0 min 0,000 mm 0,0 UV-I 0 W/m -3,0 C -10,9 C 24,1 km/h (4 Bft) 100,00 %
10.02.2017 01:04 -1,7 C 91 % 1021,2 hPa 0,0 l/m 15,5 km/h (3 Bft) O-NO 74 0 min 0,000 mm 0,0 UV-I 0 W/m -3,0 C -9,4 C 19,3 km/h (3 Bft) 98,11 %
10.02.2017 01:06 -1,7 C 91 % 1021,3 hPa 0,0 l/m 14,8 km/h (3 Bft) O-NO 67 0 min 0,000 mm 0,0 UV-I 0 W/m -3,0 C -8,9 C 20,9 km/h (4 Bft) 97,56 %
10.02.2017 01:08 -1,7 C 91 % 1021,2 hPa 0,0 l/m 20,0 km/h (4 Bft) O 80 0 min 0,000 mm 0,0 UV-I 0 W/m -3,0 C -11,8 C 25,7 km/h (4 Bft) 98,00 %
10.02.2017 01:10 -1,7 C 91 % 1021,2 hPa 0,0 l/m 19,8 km/h (3 Bft) O 80 0 min 0,000 mm 0,0 UV-I 0 W/m -3,0 C -11,7 C 25,7 km/h (4 Bft) 100,00 %
10.02.2017 01:12 -1,7 C 91 % 1021,2 hPa 0,0 l/m 17,7 km/h (3 Bft) NO 47 0 min 0,000 mm 0,0 UV-I 0 W/m -3,0 C -10,6 C 24,1 km/h (4 Bft) 100,00 %
10.02.2017 01:14 -1,6 C 91 % 1021,2 hPa 0,0 l/m 16,9 km/h (3 Bft) O-NO 73 0 min 0,000 mm 0,0 UV-I 0 W/m -2,9 C -10,1 C 24,1 km/h (4 Bft) 100,00 %
10.02.2017 01:16 -1,6 C 91 % 1021,2 hPa 0,0 l/m 19,2 km/h (3 Bft) O-NO 74 0 min 0,000 mm 0,0 UV-I 0 W/m -2,9 C -11,3 C 25,7 km/h (4 Bft) 96,15 %
10.02.2017 01:18 -1,7 C 91 % 1021,2 hPa 0,0 l/m 19,2 km/h (3 Bft) O-NO 70 0 min 0,000 mm 0,0 UV-I 0 W/m -3,0 C -11,4 C 25,7 km/h (4 Bft) 100,00 %
10.02.2017 01:20 -1,7 C 91 % 1021,2 hPa 0,0 l/m 20,7 km/h (4 Bft) O 91 0 min 0,000 mm 0,0 UV-I 0 W/m -3,0 C -12,2 C 29,0 km/h (5 Bft) 100,00 %
10.02.2017 01:22 -1,6 C 91 % 1021,1 hPa 0,0 l/m 14,9 km/h (3 Bft) O 82 0 min 0,000 mm 0,0 UV-I 0 W/m -2,9 C -8,9 C 20,9 km/h (4 Bft) 100,00 %
10.02.2017 01:24 -1,6 C 91 % 1021,1 hPa 0,0 l/m 17,6 km/h (3 Bft) O-NO 65 0 min 0,000 mm 0,0 UV-I 0 W/m -2,9 C -10,5 C 22,5 km/h (4 Bft) 100,00 %
10.02.2017 01:26 -1,7 C 91 % 1021,1 hPa 0,0 l/m 18,4 km/h (3 Bft) O-NO 74 0 min 0,000 mm 0,0 UV-I 0 W/m -3,0 C -11,0 C 25,7 km/h (4 Bft) 97,73 %
10.02.2017 01:28 -1,6 C 91 % 1021,2 hPa 0,0 l/m 20,6 km/h (4 Bft) O 84 0 min 0,000 mm 0,0 UV-I 0 W/m -2,9 C -12,0 C 32,2 km/h (5 Bft) 100,00 %
10.02.2017 01:30 -1,6 C 91 % 1021,1 hPa 0,0 l/m 20,9 km/h (4 Bft) O-NO 58 0 min 0,000 mm 0,0 UV-I 0 W/m -2,9 C -12,1 C 27,4 km/h (4 Bft) 100,00 %
10.02.2017 01:32 -1,6 C 91 % 1021,1 hPa 0,0 l/m 19,3 km/h (3 Bft) O-NO 69 0 min 0,000 mm 0,0 UV-I 0 W/m -2,9 C -11,4 C 27,4 km/h (4 Bft) 97,87 %
10.02.2017 01:34 -1,6 C 91 % 1021,1 hPa 0,0 l/m 20,2 km/h (4 Bft) O-NO 71 0 min 0,000 mm 0,0 UV-I 0 W/m -2,9 C -11,8 C 27,4 km/h (4 Bft) 100,00 %
10.02.2017 01:36 -1,6 C 91 % 1021,1 hPa 0,0 l/m 19,0 km/h (3 Bft) O 80 0 min 0,000 mm 0,0 UV-I 0 W/m -2,9 C -11,2 C 29,0 km/h (5 Bft) 97,06 %
10.02.2017 01:38 -1,6 C 91 % 1021,1 hPa 0,0 l/m 17,6 km/h (3 Bft) O 101 0 min 0,000 mm 0,0 UV-I 0 W/m -2,9 C -10,5 C 25,7 km/h (4 Bft) 97,37 %
10.02.2017 01:40 -1,6 C 91 % 1021,1 hPa 0,0 l/m 13,4 km/h (3 Bft) O-NO 70 0 min 0,000 mm 0,0 UV-I 0 W/m -2,9 C -7,9 C 17,7 km/h (3 Bft) 98,00 %
10.02.2017 01:42 -1,6 C 91 % 1021,0 hPa 0,0 l/m 15,0 km/h (3 Bft) O-NO 69 0 min 0,000 mm 0,0 UV-I 0 W/m -2,9 C -8,9 C 25,7 km/h (4 Bft) 98,00 %
10.02.2017 01:44 -1,7 C 91 % 1021,0 hPa 0,0 l/m 16,2 km/h (3 Bft) O-SO 104 0 min 0,000 mm 0,0 UV-I 0 W/m -3,0 C -9,8 C 22,5 km/h (4 Bft) 94,29 %
10.02.2017 01:46 -1,7 C 91 % 1021,1 hPa 0,0 l/m 17,6 km/h (3 Bft) O-NO 68 0 min 0,000 mm 0,0 UV-I 0 W/m -3,0 C -10,6 C 24,1 km/h (4 Bft) 98,04 %
10.02.2017 01:48 -1,7 C 91 % 1021,1 hPa 0,0 l/m 18,1 km/h (3 Bft) O-NO 67 0 min 0,000 mm 0,0 UV-I 0 W/m -3,0 C -10,9 C 25,7 km/h (4 Bft) 96,23 %
10.02.2017 01:50 -1,7 C 91 % 1021,1 hPa 0,0 l/m 11,1 km/h (2 Bft) O-NO 62 0 min 0,000 mm 0,0 UV-I 0 W/m -3,0 C -6,3 C 19,3 km/h (3 Bft) 95,12 %
10.02.2017 01:52 -1,7 C 91 % 1021,0 hPa 0,0 l/m 17,6 km/h (3 Bft) O-NO 68 0 min 0,000 mm 0,0 UV-I 0 W/m -3,0 C -10,6 C 25,7 km/h (4 Bft) 98,11 %
10.02.2017 01:54 -1,7 C 91 % 1021,0 hPa 0,0 l/m 18,2 km/h (3 Bft) O-NO 58 0 min 0,000 mm 0,0 UV-I 0 W/m -3,0 C -10,9 C 30,6 km/h (5 Bft) 97,87 %
10.02.2017 01:56 -1,7 C 91 % 1021,0 hPa 0,0 l/m 16,7 km/h (3 Bft) O-NO 73 0 min 0,000 mm 0,0 UV-I 0 W/m -3,0 C -10,1 C 27,4 km/h (4 Bft) 97,62 %
10.02.2017 01:58 -1,7 C 91 % 1021,0 hPa 0,0 l/m 11,3 km/h (2 Bft) O-NO 74 0 min 0,000 mm 0,0 UV-I 0 W/m -3,0 C -6,4 C 16,1 km/h (3 Bft) 98,00 %
10.02.2017 02:00 -1,7 C 91 % 1021,0 hPa 0,0 l/m 15,3 km/h (3 Bft) O-NO 74 0 min 0,000 mm 0,0 UV-I 0 W/m -3,0 C -9,2 C 24,1 km/h (4 Bft) 97,87 %
10.02.2017 02:02 -1,7 C 91 % 1021,0 hPa 0,0 l/m 13,8 km/h (3 Bft) O-NO 76 0 min 0,000 mm 0,0 UV-I 0 W/m -3,0 C -8,3 C 17,7 km/h (3 Bft) 97,37 %
10.02.2017 02:04 -1,7 C 91 % 1021,0 hPa 0,0 l/m 14,2 km/h (3 Bft) O-NO 76 0 min 0,000 mm 0,0 UV-I 0 W/m -3,0 C -8,5 C 20,9 km/h (4 Bft) 94,64 %
10.02.2017 02:06 -1,8 C 91 % 1021,0 hPa 0,0 l/m 16,7 km/h (3 Bft) O 95 0 min 0,000 mm 0,0 UV-I 0 W/m -3,1 C -10,2 C 22,5 km/h (4 Bft) 97,37 %
10.02.2017 02:08 -1,7 C 91 % 1021,0 hPa 0,0 l/m 13,2 km/h (3 Bft) O 89 0 min 0,000 mm 0,0 UV-I 0 W/m -3,0 C -7,8 C 17,7 km/h (3 Bft) 98,21 %
10.02.2017 02:10 -1,7 C 92 % 1020,9 hPa 0,0 l/m 19,8 km/h (3 Bft) S-SO 160 0 min 0,000 mm 0,0 UV-I 0 W/m -2,8 C -11,7 C 29,0 km/h (5 Bft) 97,56 %
10.02.2017 02:12 -1,7 C 92 % 1020,9 hPa 0,0 l/m 15,3 km/h (3 Bft) O-NO 70 0 min 0,000 mm 0,0 UV-I 0 W/m -2,8 C -9,2 C 22,5 km/h (4 Bft) 98,11 %
10.02.2017 02:14 -1,7 C 92 % 1020,9 hPa 0,0 l/m 17,6 km/h (3 Bft) O-NO 74 0 min 0,000 mm 0,0 UV-I 0 W/m -2,8 C -10,6 C 24,1 km/h (4 Bft) 100,00 %
10.02.2017 02:16 -1,7 C 92 % 1021,0 hPa 0,0 l/m 17,7 km/h (3 Bft) O-NO 77 0 min 0,000 mm 0,0 UV-I 0 W/m -2,8 C -10,6 C 22,5 km/h (4 Bft) 100,00 %
10.02.2017 02:18 -1,7 C 92 % 1020,9 hPa 0,0 l/m 18,3 km/h (3 Bft) O-NO 65 0 min 0,000 mm 0,0 UV-I 0 W/m -2,8 C -11,0 C 24,1 km/h (4 Bft) 100,00 %
10.02.2017 02:20 -1,7 C 92 % 1020,9 hPa 0,0 l/m 19,0 km/h (3 Bft) O-NO 77 0 min 0,000 mm 0,0 UV-I 0 W/m -2,8 C -11,3 C 25,7 km/h (4 Bft) 100,00 %
10.02.2017 02:22 -1,7 C 92 % 1020,9 hPa 0,0 l/m 19,6 km/h (3 Bft) O 84 0 min 0,000 mm 0,0 UV-I 0 W/m -2,8 C -11,6 C 25,7 km/h (4 Bft) 100,00 %
10.02.2017 02:24 -1,7 C 91 % 1020,8 hPa 0,0 l/m 14,5 km/h (3 Bft) O 82 0 min 0,000 mm 0,0 UV-I 0 W/m -3,0 C -8,7 C 20,9 km/h (4 Bft) 98,00 %
10.02.2017 02:26 -1,7 C 91 % 1020,8 hPa 0,0 l/m 15,5 km/h (3 Bft) O 95 0 min 0,000 mm 0,0 UV-I 0 W/m -3,0 C -9,4 C 22,5 km/h (4 Bft) 100,00 %
10.02.2017 02:28 -1,7 C 92 % 1020,8 hPa 0,0 l/m 18,5 km/h (3 Bft) O-NO 69 0 min 0,000 mm 0,0 UV-I 0 W/m -2,8 C -11,1 C 29,0 km/h (5 Bft) 100,00 %
10.02.2017 02:30 -1,8 C 92 % 1020,8 hPa 0,0 l/m 18,1 km/h (3 Bft) O-NO 65 0 min 0,000 mm 0,0 UV-I 0 W/m -2,9 C -11,0 C 25,7 km/h (4 Bft) 97,87 %
10.02.2017 02:32 -1,8 C 92 % 1020,7 hPa 0,0 l/m 14,2 km/h (3 Bft) O 86 0 min 0,000 mm 0,0 UV-I 0 W/m -2,9 C -8,6 C 20,9 km/h (4 Bft) 97,62 %
10.02.2017 02:34 -1,8 C 92 % 1020,7 hPa 0,0 l/m 16,8 km/h (3 Bft) O-NO 72 0 min 0,000 mm 0,0 UV-I 0 W/m -2,9 C -10,3 C 22,5 km/h (4 Bft) 96,55 %
10.02.2017 02:36 -1,8 C 92 % 1020,7 hPa 0,0 l/m 18,9 km/h (3 Bft) O-NO 66 0 min 0,000 mm 0,0 UV-I 0 W/m -2,9 C -11,4 C 29,0 km/h (5 Bft) 100,00 %
10.02.2017 02:38 -1,8 C 92 % 1020,7 hPa 0,0 l/m 16,1 km/h (3 Bft) O-NO 69 0 min 0,000 mm 0,0 UV-I 0 W/m -2,9 C -9,8 C 20,9 km/h (4 Bft) 96,77 %
10.02.2017 02:40 -1,8 C 92 % 1020,7 hPa 0,0 l/m 20,0 km/h (4 Bft) O 84 0 min 0,000 mm 0,0 UV-I 0 W/m -2,9 C -12,0 C 27,4 km/h (4 Bft) 97,87 %
10.02.2017 02:42 -1,7 C 92 % 1020,7 hPa 0,0 l/m 18,8 km/h (3 Bft) O-NO 64 0 min 0,000 mm 0,0 UV-I 0 W/m -2,8 C -11,2 C 29,0 km/h (5 Bft) 98,00 %
10.02.2017 02:44 -1,7 C 92 % 1020,6 hPa 0,0 l/m 21,5 km/h (4 Bft) O-SO 107 0 min 0,000 mm 0,0 UV-I 0 W/m -2,8 C -12,5 C 27,4 km/h (4 Bft) 97,87 %
10.02.2017 02:46 -1,7 C 92 % 1020,7 hPa 0,0 l/m 19,3 km/h (3 Bft) O 87 0 min 0,000 mm 0,0 UV-I 0 W/m -2,8 C -11,5 C 24,1 km/h (4 Bft) 95,12 %
10.02.2017 02:48 -1,7 C 92 % 1020,7 hPa 0,0 l/m 17,4 km/h (3 Bft) O-NO 64 0 min 0,000 mm 0,0 UV-I 0 W/m -2,8 C -10,5 C 22,5 km/h (4 Bft) 98,21 %
10.02.2017 02:50 -1,7 C 92 % 1020,7 hPa 0,0 l/m 16,4 km/h (3 Bft) O 82 0 min 0,000 mm 0,0 UV-I 0 W/m -2,8 C -9,9 C 22,5 km/h (4 Bft) 97,37 %
10.02.2017 02:52 -1,7 C 92 % 1020,7 hPa 0,0 l/m 18,2 km/h (3 Bft) O 95 0 min 0,000 mm 0,0 UV-I 0 W/m -2,8 C -10,9 C 25,7 km/h (4 Bft) 94,34 %
10.02.2017 02:54 -1,7 C 92 % 1020,7 hPa 0,0 l/m 15,8 km/h (3 Bft) O-NO 71 0 min 0,000 mm 0,0 UV-I 0 W/m -2,8 C -9,5 C 22,5 km/h (4 Bft) 98,00 %
10.02.2017 02:56 -1,7 C 92 % 1020,6 hPa 0,0 l/m 18,8 km/h (3 Bft) O-NO 76 0 min 0,000 mm 0,0 UV-I 0 W/m -2,8 C -11,2 C 27,4 km/h (4 Bft) 97,14 %
10.02.2017 02:58 -1,7 C 92 % 1020,6 hPa 0,0 l/m 17,9 km/h (3 Bft) O 86 0 min 0,000 mm 0,0 UV-I 0 W/m -2,8 C -10,7 C 27,4 km/h (4 Bft) 97,87 %
10.02.2017 03:00 -1,7 C 92 % 1020,6 hPa 0,0 l/m 16,9 km/h (3 Bft) O-NO 59 0 min 0,000 mm 0,0 UV-I 0 W/m -2,8 C -10,2 C 20,9 km/h (4 Bft) 98,00 %
10.02.2017 03:02 -1,7 C 92 % 1020,6 hPa 0,0 l/m 17,8 km/h (3 Bft) O-NO 71 0 min 0,000 mm 0,0 UV-I 0 W/m -2,8 C -10,7 C 24,1 km/h (4 Bft) 97,56 %
10.02.2017 03:04 -1,8 C 92 % 1020,5 hPa 0,0 l/m 15,5 km/h (3 Bft) O 88 0 min 0,000 mm 0,0 UV-I 0 W/m -2,9 C -9,5 C 24,1 km/h (4 Bft) 98,21 %
10.02.2017 03:06 -1,8 C 92 % 1020,5 hPa 0,0 l/m 16,4 km/h (3 Bft) O-NO 67 0 min 0,000 mm 0,0 UV-I 0 W/m -2,9 C -10,0 C 29,0 km/h (5 Bft) 95,12 %
10.02.2017 03:08 -1,8 C 92 % 1020,5 hPa 0,0 l/m 17,0 km/h (3 Bft) O 88 0 min 0,000 mm 0,0 UV-I 0 W/m -2,9 C -10,4 C 20,9 km/h (4 Bft) 100,00 %
10.02.2017 03:10 -1,8 C 92 % 1020,5 hPa 0,0 l/m 14,5 km/h (3 Bft) O-NO 62 0 min 0,000 mm 0,0 UV-I 0 W/m -2,9 C -8,8 C 17,7 km/h (3 Bft) 97,87 %
10.02.2017 03:12 -1,8 C 91 % 1020,5 hPa 0,0 l/m 12,6 km/h (3 Bft) O-NO 75 0 min 0,000 mm 0,0 UV-I 0 W/m -3,1 C -7,5 C 17,7 km/h (3 Bft) 100,00 %
10.02.2017 03:14 -1,8 C 91 % 1020,5 hPa 0,0 l/m 13,8 km/h (3 Bft) O-NO 65 0 min 0,000 mm 0,0 UV-I 0 W/m -3,1 C -8,4 C 20,9 km/h (4 Bft) 100,00 %
10.02.2017 03:16 -1,8 C 92 % 1020,5 hPa 0,0 l/m 12,0 km/h (2 Bft) O 80 0 min 0,000 mm 0,0 UV-I 0 W/m -2,9 C -7,1 C 17,7 km/h (3 Bft) 100,00 %
10.02.2017 03:18 -1,8 C 92 % 1020,5 hPa 0,0 l/m 14,5 km/h (3 Bft) O 94 0 min 0,000 mm 0,0 UV-I 0 W/m -2,9 C -8,8 C 20,9 km/h (4 Bft) 100,00 %
10.02.2017 03:20 -1,8 C 92 % 1020,5 hPa 0,0 l/m 17,1 km/h (3 Bft) O 94 0 min 0,000 mm 0,0 UV-I 0 W/m -2,9 C -10,4 C 22,5 km/h (4 Bft) 96,23 %
10.02.2017 03:22 -1,8 C 92 % 1020,5 hPa 0,0 l/m 16,1 km/h (3 Bft) O-NO 64 0 min 0,000 mm 0,0 UV-I 0 W/m -2,9 C -9,8 C 22,5 km/h (4 Bft) 97,56 %
10.02.2017 03:24 -1,8 C 92 % 1020,5 hPa 0,0 l/m 13,3 km/h (3 Bft) O 84 0 min 0,000 mm 0,0 UV-I 0 W/m -2,9 C -8,0 C 19,3 km/h (3 Bft) 98,11 %
10.02.2017 03:26 -1,8 C 92 % 1020,5 hPa 0,0 l/m 12,5 km/h (3 Bft) O 88 0 min 0,000 mm 0,0 UV-I 0 W/m -2,9 C -7,4 C 25,7 km/h (4 Bft) 100,00 %
10.02.2017 03:28 -1,8 C 92 % 1020,5 hPa 0,0 l/m 14,8 km/h (3 Bft) O-NO 71 0 min 0,000 mm 0,0 UV-I 0 W/m -2,9 C -9,0 C 19,3 km/h (3 Bft) 100,00 %
10.02.2017 03:30 -1,8 C 92 % 1020,5 hPa 0,0 l/m 14,5 km/h (3 Bft) O 84 0 min 0,000 mm 0,0 UV-I 0 W/m -2,9 C -8,8 C 24,1 km/h (4 Bft) 100,00 %
10.02.2017 03:32 -1,8 C 92 % 1020,5 hPa 0,0 l/m 15,6 km/h (3 Bft) O-NO 78 0 min 0,000 mm 0,0 UV-I 0 W/m -2,9 C -9,5 C 22,5 km/h (4 Bft) 100,00 %
10.02.2017 03:34 -1,8 C 92 % 1020,5 hPa 0,0 l/m 14,8 km/h (3 Bft) NO 50 0 min 0,000 mm 0,0 UV-I 0 W/m -2,9 C -9,0 C 19,3 km/h (3 Bft) 97,37 %
10.02.2017 03:36 -1,8 C 92 % 1020,5 hPa 0,0 l/m 13,1 km/h (3 Bft) O-NO 76 0 min 0,000 mm 0,0 UV-I 0 W/m -2,9 C -7,9 C 17,7 km/h (3 Bft) 98,21 %
10.02.2017 03:38 -1,8 C 92 % 1020,5 hPa 0,0 l/m 13,3 km/h (3 Bft) O 88 0 min 0,000 mm 0,0 UV-I 0 W/m -2,9 C -8,0 C 20,9 km/h (4 Bft) 97,37 %
10.02.2017 03:40 -1,8 C 92 % 1020,5 hPa 0,0 l/m 13,1 km/h (3 Bft) O-NO 78 0 min 0,000 mm 0,0 UV-I 0 W/m -2,9 C -7,9 C 19,3 km/h (3 Bft) 98,00 %
10.02.2017 03:42 -1,8 C 92 % 1020,5 hPa 0,0 l/m 14,2 km/h (3 Bft) O 84 0 min 0,000 mm 0,0 UV-I 0 W/m -2,9 C -8,6 C 19,3 km/h (3 Bft) 94,00 %
10.02.2017 03:44 -1,8 C 92 % 1020,5 hPa 0,0 l/m 14,1 km/h (3 Bft) O 98 0 min 0,000 mm 0,0 UV-I 0 W/m -2,9 C -8,6 C 20,9 km/h (4 Bft) 97,56 %
10.02.2017 03:46 -1,8 C 92 % 1020,5 hPa 0,0 l/m 13,6 km/h (3 Bft) O-NO 57 0 min 0,000 mm 0,0 UV-I 0 W/m -2,9 C -8,2 C 22,5 km/h (4 Bft) 98,00 %
10.02.2017 03:48 -1,8 C 92 % 1020,4 hPa 0,0 l/m 10,5 km/h (2 Bft) O-NO 68 0 min 0,000 mm 0,0 UV-I 0 W/m -2,9 C -5,9 C 16,1 km/h (3 Bft) 98,11 %
10.02.2017 03:50 -1,9 C 92 % 1020,4 hPa 0,0 l/m 16,2 km/h (3 Bft) O-NO 61 0 min 0,000 mm 0,0 UV-I 0 W/m -3,0 C -10,0 C 22,5 km/h (4 Bft) 97,56 %
10.02.2017 03:52 -1,8 C 92 % 1020,4 hPa 0,0 l/m 14,2 km/h (3 Bft) O-SO 102 0 min 0,000 mm 0,0 UV-I 0 W/m -2,9 C -8,6 C 24,1 km/h (4 Bft) 95,24 %
10.02.2017 03:54 -1,8 C 92 % 1020,4 hPa 0,0 l/m 13,6 km/h (3 Bft) O-NO 74 0 min 0,000 mm 0,0 UV-I 0 W/m -2,9 C -8,2 C 19,3 km/h (3 Bft) 95,74 %
10.02.2017 03:56 -1,8 C 92 % 1020,4 hPa 0,0 l/m 15,9 km/h (3 Bft) O-NO 76 0 min 0,000 mm 0,0 UV-I 0 W/m -2,9 C -9,7 C 22,5 km/h (4 Bft) 95,74 %
10.02.2017 03:58 -1,8 C 92 % 1020,4 hPa 0,0 l/m 17,6 km/h (3 Bft) O-NO 75 0 min 0,000 mm 0,0 UV-I 0 W/m -2,9 C -10,7 C 24,1 km/h (4 Bft) 97,87 %
10.02.2017 04:00 -1,8 C 92 % 1020,3 hPa 0,0 l/m 17,4 km/h (3 Bft) O-NO 75 0 min 0,000 mm 0,0 UV-I 0 W/m -2,9 C -10,6 C 24,1 km/h (4 Bft) 95,12 %
10.02.2017 04:02 -1,8 C 92 % 1020,3 hPa 0,0 l/m 12,9 km/h (3 Bft) O 84 0 min 0,000 mm 0,0 UV-I 0 W/m -2,9 C -7,7 C 22,5 km/h (4 Bft) 100,00 %
10.02.2017 04:04 -1,8 C 92 % 1020,3 hPa 0,0 l/m 13,6 km/h (3 Bft) O-NO 76 0 min 0,000 mm 0,0 UV-I 0 W/m -2,9 C -8,2 C 19,3 km/h (3 Bft) 97,73 %
10.02.2017 04:06 -1,9 C 92 % 1020,3 hPa 0,0 l/m 14,3 km/h (3 Bft) O-NO 67 0 min 0,000 mm 0,0 UV-I 0 W/m -3,0 C -8,8 C 20,9 km/h (4 Bft) 95,16 %
10.02.2017 04:08 -1,9 C 92 % 1020,2 hPa 0,0 l/m 15,4 km/h (3 Bft) O 80 0 min 0,000 mm 0,0 UV-I 0 W/m -3,0 C -9,5 C 22,5 km/h (4 Bft) 100,00 %
10.02.2017 04:10 -1,9 C 92 % 1020,2 hPa 0,0 l/m 14,3 km/h (3 Bft) O-NO 57 0 min 0,000 mm 0,0 UV-I 0 W/m -3,0 C -8,8 C 22,5 km/h (4 Bft) 98,00 %
10.02.2017 04:12 -1,9 C 92 % 1020,2 hPa 0,0 l/m 12,8 km/h (3 Bft) O-NO 69 0 min 0,000 mm 0,0 UV-I 0 W/m -3,0 C -7,8 C 19,3 km/h (3 Bft) 100,00 %
10.02.2017 04:14 -1,9 C 92 % 1020,3 hPa 0,0 l/m 11,0 km/h (2 Bft) O 96 0 min 0,000 mm 0,0 UV-I 0 W/m -3,0 C -6,4 C 16,1 km/h (3 Bft) 100,00 %
10.02.2017 04:16 -2,0 C 92 % 1020,2 hPa 0,0 l/m 12,1 km/h (2 Bft) O 81 0 min 0,000 mm 0,0 UV-I 0 W/m -3,1 C -7,4 C 19,3 km/h (3 Bft) 100,00 %
10.02.2017 04:18 -2,0 C 92 % 1020,2 hPa 0,0 l/m 13,2 km/h (3 Bft) O-NO 63 0 min 0,000 mm 0,0 UV-I 0 W/m -3,1 C -8,2 C 19,3 km/h (3 Bft) 100,00 %
10.02.2017 04:20 -2,0 C 92 % 1020,2 hPa 0,0 l/m 13,4 km/h (3 Bft) O-NO 76 0 min 0,000 mm 0,0 UV-I 0 W/m -3,1 C -8,3 C 20,9 km/h (4 Bft) 100,00 %
10.02.2017 04:22 -2,0 C 92 % 1020,2 hPa 0,0 l/m 14,3 km/h (3 Bft) O 82 0 min 0,000 mm 0,0 UV-I 0 W/m -3,1 C -8,9 C 20,9 km/h (4 Bft) 100,00 %
10.02.2017 04:24 -1,9 C 92 % 1020,2 hPa 0,0 l/m 13,8 km/h (3 Bft) O-NO 75 0 min 0,000 mm 0,0 UV-I 0 W/m -3,0 C -8,5 C 17,7 km/h (3 Bft) 100,00 %
10.02.2017 04:26 -1,9 C 92 % 1020,2 hPa 0,0 l/m 12,5 km/h (3 Bft) O-NO 70 0 min 0,000 mm 0,0 UV-I 0 W/m -3,0 C -7,6 C 17,7 km/h (3 Bft) 100,00 %
10.02.2017 04:28 -1,9 C 92 % 1020,1 hPa 0,0 l/m 11,5 km/h (2 Bft) O 89 0 min 0,000 mm 0,0 UV-I 0 W/m -3,0 C -6,8 C 16,1 km/h (3 Bft) 100,00 %
10.02.2017 04:30 -1,9 C 92 % 1020,1 hPa 0,0 l/m 11,9 km/h (2 Bft) O 90 0 min 0,000 mm 0,0 UV-I 0 W/m -3,0 C -7,1 C 16,1 km/h (3 Bft) 97,56 %
10.02.2017 04:32 -1,9 C 92 % 1020,2 hPa 0,0 l/m 12,1 km/h (2 Bft) NO 52 0 min 0,000 mm 0,0 UV-I 0 W/m -3,0 C -7,3 C 19,3 km/h (3 Bft) 100,00 %
10.02.2017 04:34 -1,9 C 92 % 1020,2 hPa 0,0 l/m 12,0 km/h (2 Bft) O-NO 66 0 min 0,000 mm 0,0 UV-I 0 W/m -3,0 C -7,2 C 16,1 km/h (3 Bft) 100,00 %
10.02.2017 04:36 -1,9 C 92 % 1020,1 hPa 0,0 l/m 14,0 km/h (3 Bft) O-NO 67 0 min 0,000 mm 0,0 UV-I 0 W/m -3,0 C -8,6 C 17,7 km/h (3 Bft) 100,00 %
10.02.2017 04:38 -1,9 C 92 % 1020,1 hPa 0,0 l/m 14,3 km/h (3 Bft) O-NO 75 0 min 0,000 mm 0,0 UV-I 0 W/m -3,0 C -8,8 C 19,3 km/h (3 Bft) 97,87 %
10.02.2017 04:40 -1,9 C 92 % 1020,1 hPa 0,0 l/m 12,5 km/h (3 Bft) O-NO 67 0 min 0,000 mm 0,0 UV-I 0 W/m -3,0 C -7,6 C 19,3 km/h (3 Bft) 97,22 %
10.02.2017 04:42 -1,9 C 92 % 1020,0 hPa 0,0 l/m 15,0 km/h (3 Bft) O-NO 74 0 min 0,000 mm 0,0 UV-I 0 W/m -3,0 C -9,3 C 20,9 km/h (4 Bft) 98,21 %
10.02.2017 04:44 -1,9 C 93 % 1020,0 hPa 0,0 l/m 13,3 km/h (3 Bft) O 80 0 min 0,000 mm 0,0 UV-I 0 W/m -2,9 C -8,1 C 20,9 km/h (4 Bft) 97,67 %
10.02.2017 04:46 -1,9 C 92 % 1020,1 hPa 0,0 l/m 13,5 km/h (3 Bft) O-NO 63 0 min 0,000 mm 0,0 UV-I 0 W/m -3,0 C -8,3 C 19,3 km/h (3 Bft) 98,11 %
10.02.2017 04:48 -1,9 C 92 % 1020,1 hPa 0,0 l/m 10,9 km/h (2 Bft) NO 50 0 min 0,000 mm 0,0 UV-I 0 W/m -3,0 C -6,3 C 14,5 km/h (3 Bft) 97,56 %
10.02.2017 04:50 -1,9 C 92 % 1020,1 hPa 0,0 l/m 13,5 km/h (3 Bft) O-NO 73 0 min 0,000 mm 0,0 UV-I 0 W/m -3,0 C -8,3 C 19,3 km/h (3 Bft) 97,56 %
10.02.2017 04:52 -1,9 C 92 % 1020,0 hPa 0,0 l/m 12,7 km/h (3 Bft) O-NO 67 0 min 0,000 mm 0,0 UV-I 0 W/m -3,0 C -7,7 C 19,3 km/h (3 Bft) 96,00 %
10.02.2017 04:54 -1,9 C 92 % 1020,1 hPa 0,0 l/m 13,6 km/h (3 Bft) O-NO 66 0 min 0,000 mm 0,0 UV-I 0 W/m -3,0 C -8,4 C 19,3 km/h (3 Bft) 97,37 %
10.02.2017 04:56 -1,9 C 92 % 1020,1 hPa 0,0 l/m 12,7 km/h (3 Bft) O-NO 78 0 min 0,000 mm 0,0 UV-I 0 W/m -3,0 C -7,7 C 16,1 km/h (3 Bft) 96,43 %
10.02.2017 04:58 -1,9 C 92 % 1020,1 hPa 0,0 l/m 10,5 km/h (2 Bft) O-NO 76 0 min 0,000 mm 0,0 UV-I 0 W/m -3,0 C -6,0 C 14,5 km/h (3 Bft) 96,00 %
10.02.2017 05:00 -1,9 C 92 % 1020,1 hPa 0,0 l/m 11,1 km/h (2 Bft) O-NO 78 0 min 0,000 mm 0,0 UV-I 0 W/m -3,0 C -6,5 C 14,5 km/h (3 Bft) 95,12 %
10.02.2017 05:02 -1,9 C 92 % 1020,2 hPa 0,0 l/m 11,1 km/h (2 Bft) O 85 0 min 0,000 mm 0,0 UV-I 0 W/m -3,0 C -6,5 C 17,7 km/h (3 Bft) 96,00 %
10.02.2017 05:04 -1,9 C 92 % 1020,1 hPa 0,0 l/m 13,1 km/h (3 Bft) O-NO 63 0 min 0,000 mm 0,0 UV-I 0 W/m -3,0 C -8,0 C 19,3 km/h (3 Bft) 97,56 %
10.02.2017 05:06 -1,9 C 92 % 1020,1 hPa 0,0 l/m 10,4 km/h (2 Bft) O 92 0 min 0,000 mm 0,0 UV-I 0 W/m -3,0 C -5,9 C 14,5 km/h (3 Bft) 94,92 %
10.02.2017 05:08 -1,9 C 92 % 1020,2 hPa 0,0 l/m 10,5 km/h (2 Bft) O-NO 72 0 min 0,000 mm 0,0 UV-I 0 W/m -3,0 C -6,0 C 14,5 km/h (3 Bft) 97,56 %
10.02.2017 05:10 -1,9 C 92 % 1020,1 hPa 0,0 l/m 10,6 km/h (2 Bft) O-NO 70 0 min 0,000 mm 0,0 UV-I 0 W/m -3,0 C -6,1 C 16,1 km/h (3 Bft) 92,00 %
10.02.2017 05:12 -2,0 C 93 % 1020,1 hPa 0,0 l/m 11,5 km/h (2 Bft) O-NO 76 0 min 0,000 mm 0,0 UV-I 0 W/m -3,0 C -6,9 C 17,7 km/h (3 Bft) 97,56 %
10.02.2017 05:14 -2,0 C 93 % 1020,1 hPa 0,0 l/m 11,7 km/h (2 Bft) O-NO 78 0 min 0,000 mm 0,0 UV-I 0 W/m -3,0 C -7,1 C 16,1 km/h (3 Bft) 100,00 %
10.02.2017 05:16 -2,0 C 93 % 1020,1 hPa 0,0 l/m 12,0 km/h (2 Bft) O-NO 73 0 min 0,000 mm 0,0 UV-I 0 W/m -3,0 C -7,3 C 16,1 km/h (3 Bft) 97,62 %
10.02.2017 05:18 -2,0 C 93 % 1020,2 hPa 0,0 l/m 13,2 km/h (3 Bft) O-NO 76 0 min 0,000 mm 0,0 UV-I 0 W/m -3,0 C -8,2 C 17,7 km/h (3 Bft) 96,15 %
10.02.2017 05:20 -2,0 C 92 % 1020,1 hPa 0,0 l/m 10,6 km/h (2 Bft) NO 55 0 min 0,000 mm 0,0 UV-I 0 W/m -3,1 C -6,2 C 16,1 km/h (3 Bft) 97,62 %
10.02.2017 05:22 -2,0 C 93 % 1020,1 hPa 0,0 l/m 14,3 km/h (3 Bft) O-NO 72 0 min 0,000 mm 0,0 UV-I 0 W/m -3,0 C -8,9 C 20,9 km/h (4 Bft) 100,00 %
10.02.2017 05:24 -2,0 C 93 % 1020,1 hPa 0,0 l/m 11,3 km/h (2 Bft) O-NO 62 0 min 0,000 mm 0,0 UV-I 0 W/m -3,0 C -6,8 C 17,7 km/h (3 Bft) 100,00 %
10.02.2017 05:26 -2,0 C 93 % 1020,0 hPa 0,0 l/m 13,8 km/h (3 Bft) O-NO 77 0 min 0,000 mm 0,0 UV-I 0 W/m -3,0 C -8,6 C 17,7 km/h (3 Bft) 96,23 %
10.02.2017 05:28 -2,0 C 93 % 1020,1 hPa 0,0 l/m 12,5 km/h (3 Bft) O 81 0 min 0,000 mm 0,0 UV-I 0 W/m -3,0 C -7,7 C 16,1 km/h (3 Bft) 97,37 %
10.02.2017 05:30 -1,9 C 93 % 1020,1 hPa 0,0 l/m 11,6 km/h (2 Bft) O-NO 74 0 min 0,000 mm 0,0 UV-I 0 W/m -2,9 C -6,9 C 16,1 km/h (3 Bft) 97,73 %
10.02.2017 05:32 -1,9 C 93 % 1020,1 hPa 0,0 l/m 12,7 km/h (3 Bft) O-NO 58 0 min 0,000 mm 0,0 UV-I 0 W/m -2,9 C -7,7 C 19,3 km/h (3 Bft) 98,11 %
10.02.2017 05:34 -1,9 C 93 % 1020,0 hPa 0,0 l/m 11,6 km/h (2 Bft) NO 51 0 min 0,000 mm 0,0 UV-I 0 W/m -2,9 C -6,9 C 16,1 km/h (3 Bft) 96,23 %
10.02.2017 05:36 -1,9 C 93 % 1020,0 hPa 0,0 l/m 11,6 km/h (2 Bft) O-NO 74 0 min 0,000 mm 0,0 UV-I 0 W/m -2,9 C -6,9 C 17,7 km/h (3 Bft) 97,37 %
10.02.2017 05:38 -1,9 C 93 % 1020,0 hPa 0,0 l/m 12,6 km/h (3 Bft) O-NO 74 0 min 0,000 mm 0,0 UV-I 0 W/m -2,9 C -7,6 C 16,1 km/h (3 Bft) 95,74 %
10.02.2017 05:40 -1,9 C 93 % 1020,0 hPa 0,0 l/m 13,6 km/h (3 Bft) O 79 0 min 0,000 mm 0,0 UV-I 0 W/m -2,9 C -8,4 C 20,9 km/h (4 Bft) 98,00 %
10.02.2017 05:42 -1,9 C 93 % 1020,1 hPa 0,0 l/m 10,5 km/h (2 Bft) O 85 0 min 0,000 mm 0,0 UV-I 0 W/m -2,9 C -6,0 C 16,1 km/h (3 Bft) 96,30 %
10.02.2017 05:44 -1,9 C 92 % 1020,0 hPa 0,0 l/m 12,0 km/h (2 Bft) O 80 0 min 0,000 mm 0,0 UV-I 0 W/m -3,0 C -7,2 C 17,7 km/h (3 Bft) 97,18 %
10.02.2017 05:46 -1,8 C 93 % 1020,0 hPa 0,0 l/m 11,4 km/h (2 Bft) O 89 0 min 0,000 mm 0,0 UV-I 0 W/m -2,8 C -6,6 C 19,3 km/h (3 Bft) 100,00 %
10.02.2017 05:48 -1,8 C 92 % 1020,0 hPa 0,0 l/m 10,9 km/h (2 Bft) O-NO 63 0 min 0,000 mm 0,0 UV-I 0 W/m -2,9 C -6,2 C 16,1 km/h (3 Bft) 96,23 %
10.02.2017 05:50 -1,8 C 92 % 1020,0 hPa 0,0 l/m 10,3 km/h (2 Bft) O 81 0 min 0,000 mm 0,0 UV-I 0 W/m -2,9 C -5,7 C 14,5 km/h (3 Bft) 97,56 %
10.02.2017 05:52 -1,9 C 92 % 1020,0 hPa 0,0 l/m 11,5 km/h (2 Bft) NO 51 0 min 0,000 mm 0,0 UV-I 0 W/m -3,0 C -6,8 C 17,7 km/h (3 Bft) 98,00 %
10.02.2017 05:54 -1,9 C 92 % 1020,0 hPa 0,0 l/m 12,4 km/h (3 Bft) O-NO 57 0 min 0,000 mm 0,0 UV-I 0 W/m -3,0 C -7,5 C 17,7 km/h (3 Bft) 97,62 %
10.02.2017 05:56 -1,9 C 92 % 1020,1 hPa 0,0 l/m 11,9 km/h (2 Bft) NO 50 0 min 0,000 mm 0,0 UV-I 0 W/m -3,0 C -7,1 C 16,1 km/h (3 Bft) 98,08 %
10.02.2017 05:58 -1,9 C 92 % 1020,0 hPa 0,0 l/m 13,1 km/h (3 Bft) O-NO 57 0 min 0,000 mm 0,0 UV-I 0 W/m -3,0 C -8,0 C 17,7 km/h (3 Bft) 100,00 %
10.02.2017 06:00 -1,9 C 92 % 1020,1 hPa 0,0 l/m 11,4 km/h (2 Bft) O-NO 68 0 min 0,000 mm 0,0 UV-I 0 W/m -3,0 C -6,7 C 14,5 km/h (3 Bft) 100,00 %
10.02.2017 06:02 -1,9 C 92 % 1020,1 hPa 0,0 l/m 10,0 km/h (2 Bft) O-NO 72 0 min 0,000 mm 0,0 UV-I 0 W/m -3,0 C -5,5 C 14,5 km/h (3 Bft) 97,56 %
10.02.2017 06:04 -2,0 C 92 % 1020,1 hPa 0,0 l/m 10,7 km/h (2 Bft) O-NO 70 0 min 0,000 mm 0,0 UV-I 0 W/m -3,1 C -6,3 C 16,1 km/h (3 Bft) 100,00 %
10.02.2017 06:06 -2,0 C 92 % 1020,1 hPa 0,0 l/m 12,1 km/h (2 Bft) O-NO 78 0 min 0,000 mm 0,0 UV-I 0 W/m -3,1 C -7,4 C 17,7 km/h (3 Bft) 98,21 %
10.02.2017 06:08 -1,9 C 93 % 1020,1 hPa 0,0 l/m 13,2 km/h (3 Bft) NO 55 0 min 0,000 mm 0,0 UV-I 0 W/m -2,9 C -8,1 C 17,7 km/h (3 Bft) 100,00 %
10.02.2017 06:10 -1,9 C 93 % 1020,1 hPa 0,0 l/m 14,5 km/h (3 Bft) O-NO 65 0 min 0,000 mm 0,0 UV-I 0 W/m -2,9 C -9,0 C 20,9 km/h (4 Bft) 100,00 %
10.02.2017 06:12 -1,9 C 93 % 1020,1 hPa 0,0 l/m 13,5 km/h (3 Bft) O 80 0 min 0,000 mm 0,0 UV-I 0 W/m -2,9 C -8,3 C 19,3 km/h (3 Bft) 100,00 %
10.02.2017 06:14 -1,9 C 92 % 1020,1 hPa 0,0 l/m 12,4 km/h (3 Bft) O-NO 69 0 min 0,000 mm 0,0 UV-I 0 W/m -3,0 C -7,5 C 17,7 km/h (3 Bft) 100,00 %
10.02.2017 06:16 -1,8 C 92 % 1020,1 hPa 0,0 l/m 12,9 km/h (3 Bft) O 90 0 min 0,000 mm 0,0 UV-I 0 W/m -2,9 C -7,7 C 19,3 km/h (3 Bft) 100,00 %
10.02.2017 06:18 -1,8 C 92 % 1020,0 hPa 0,0 l/m 11,3 km/h (2 Bft) O-NO 64 0 min 0,000 mm 0,0 UV-I 0 W/m -2,9 C -6,5 C 16,1 km/h (3 Bft) 100,00 %
10.02.2017 06:20 -1,9 C 92 % 1020,0 hPa 0,0 l/m 17,0 km/h (3 Bft) O-NO 67 0 min 0,000 mm 0,0 UV-I 0 W/m -3,0 C -10,5 C 25,7 km/h (4 Bft) 100,00 %
10.02.2017 06:22 -1,8 C 93 % 1020,1 hPa 0,0 l/m 14,2 km/h (3 Bft) O 82 0 min 0,000 mm 0,0 UV-I 0 W/m -2,8 C -8,6 C 19,3 km/h (3 Bft) 100,00 %
10.02.2017 06:24 -1,8 C 92 % 1020,0 hPa 0,0 l/m 13,4 km/h (3 Bft) O-NO 57 0 min 0,000 mm 0,0 UV-I 0 W/m -2,9 C -8,1 C 19,3 km/h (3 Bft) 100,00 %
10.02.2017 06:26 -1,8 C 92 % 1020,1 hPa 0,0 l/m 14,6 km/h (3 Bft) O 83 0 min 0,000 mm 0,0 UV-I 0 W/m -2,9 C -8,9 C 20,9 km/h (4 Bft) 100,00 %
10.02.2017 06:28 -1,8 C 92 % 1020,1 hPa 0,0 l/m 10,8 km/h (2 Bft) O-NO 71 0 min 0,000 mm 0,0 UV-I 0 W/m -2,9 C -6,1 C 17,7 km/h (3 Bft) 100,00 %
10.02.2017 06:30 -1,8 C 92 % 1020,1 hPa 0,0 l/m 11,0 km/h (2 Bft) O-NO 77 0 min 0,000 mm 0,0 UV-I 0 W/m -2,9 C -6,3 C 19,3 km/h (3 Bft) 100,00 %
10.02.2017 06:32 -1,8 C 92 % 1020,1 hPa 0,0 l/m 13,2 km/h (3 Bft) O-NO 71 0 min 0,000 mm 0,0 UV-I 0 W/m -2,9 C -8,0 C 19,3 km/h (3 Bft) 100,00 %
10.02.2017 06:34 -1,8 C 92 % 1020,0 hPa 0,0 l/m 11,2 km/h (2 Bft) O-NO 71 0 min 0,000 mm 0,0 UV-I 0 W/m -2,9 C -6,4 C 17,7 km/h (3 Bft) 100,00 %
10.02.2017 06:36 -1,8 C 92 % 1020,0 hPa 0,0 l/m 12,2 km/h (2 Bft) O-NO 74 0 min 0,000 mm 0,0 UV-I 0 W/m -2,9 C -7,2 C 17,7 km/h (3 Bft) 100,00 %
10.02.2017 06:38 -1,8 C 93 % 1020,0 hPa 0,0 l/m 16,1 km/h (3 Bft) NO 53 0 min 0,000 mm 0,0 UV-I 0 W/m -2,8 C -9,8 C 22,5 km/h (4 Bft) 100,00 %
10.02.2017 06:40 -1,8 C 93 % 1020,0 hPa 0,0 l/m 14,0 km/h (3 Bft) O-NO 74 0 min 0,000 mm 0,0 UV-I 0 W/m -2,8 C -8,5 C 17,7 km/h (3 Bft) 100,00 %
10.02.2017 06:42 -1,8 C 92 % 1020,1 hPa 0,0 l/m 13,1 km/h (3 Bft) O 79 0 min 0,000 mm 0,0 UV-I 0 W/m -2,9 C -7,9 C 17,7 km/h (3 Bft) 98,31 %
10.02.2017 06:44 -1,8 C 92 % 1020,1 hPa 0,0 l/m 14,9 km/h (3 Bft) O 79 0 min 0,000 mm 0,0 UV-I 0 W/m -2,9 C -9,1 C 20,9 km/h (4 Bft) 100,00 %
10.02.2017 06:46 -1,8 C 92 % 1020,1 hPa 0,0 l/m 13,1 km/h (3 Bft) O 79 0 min 0,000 mm 0,0 UV-I 0 W/m -2,9 C -7,9 C 17,7 km/h (3 Bft) 97,56 %
10.02.2017 06:48 -1,8 C 92 % 1020,1 hPa 0,0 l/m 12,1 km/h (2 Bft) O 83 0 min 0,000 mm 0,0 UV-I 0 W/m -2,9 C -7,2 C 17,7 km/h (3 Bft) 94,34 %
10.02.2017 06:50 -1,8 C 92 % 1020,0 hPa 0,0 l/m 15,1 km/h (3 Bft) O-NO 63 0 min 0,000 mm 0,0 UV-I 0 W/m -2,9 C -9,2 C 19,3 km/h (3 Bft) 94,74 %
10.02.2017 06:52 -1,8 C 92 % 1020,1 hPa 0,0 l/m 15,0 km/h (3 Bft) O-NO 64 0 min 0,000 mm 0,0 UV-I 0 W/m -2,9 C -9,2 C 20,9 km/h (4 Bft) 96,43 %
10.02.2017 06:54 -1,8 C 92 % 1020,1 hPa 0,0 l/m 12,7 km/h (3 Bft) O-SO 113 0 min 0,000 mm 0,0 UV-I 0 W/m -2,9 C -7,6 C 17,7 km/h (3 Bft) 92,68 %
10.02.2017 06:56 -1,8 C 92 % 1020,1 hPa 0,0 l/m 10,3 km/h (2 Bft) O-NO 60 0 min 0,000 mm 0,0 UV-I 0 W/m -2,9 C -5,7 C 14,5 km/h (3 Bft) 98,00 %
10.02.2017 06:58 -1,8 C 92 % 1020,1 hPa 0,0 l/m 9,8 km/h (2 Bft) O 80 0 min 0,000 mm 0,0 UV-I 0 W/m -2,9 C -5,3 C 14,5 km/h (3 Bft) 97,56 %
10.02.2017 07:00 -1,8 C 92 % 1020,1 hPa 0,0 l/m 11,3 km/h (2 Bft) O-NO 71 0 min 0,000 mm 0,0 UV-I 0 W/m -2,9 C -6,5 C 17,7 km/h (3 Bft) 98,00 %
10.02.2017 07:02 -1,8 C 92 % 1020,2 hPa 0,0 l/m 13,5 km/h (3 Bft) O-NO 76 0 min 0,000 mm 0,0 UV-I 0 W/m -2,9 C -8,2 C 17,7 km/h (3 Bft) 97,56 %
10.02.2017 07:04 -1,8 C 92 % 1020,2 hPa 0,0 l/m 13,1 km/h (3 Bft) O-NO 78 0 min 0,000 mm 0,0 UV-I 0 W/m -2,9 C -7,9 C 17,7 km/h (3 Bft) 97,73 %
10.02.2017 07:06 -1,8 C 92 % 1020,2 hPa 0,0 l/m 10,8 km/h (2 Bft) O 99 0 min 0,000 mm 0,0 UV-I 1 W/m -2,9 C -6,1 C 16,1 km/h (3 Bft) 96,00 %
10.02.2017 07:08 -1,8 C 92 % 1020,2 hPa 0,0 l/m 12,1 km/h (2 Bft) O-NO 67 0 min 0,000 mm 0,0 UV-I 5 W/m -2,9 C -7,2 C 16,1 km/h (3 Bft) 95,74 %
10.02.2017 07:10 -1,8 C 92 % 1020,2 hPa 0,0 l/m 11,4 km/h (2 Bft) O 82 0 min 0,000 mm 0,0 UV-I 5 W/m -2,9 C -6,6 C 19,3 km/h (3 Bft) 98,00 %
10.02.2017 07:12 -1,8 C 92 % 1020,3 hPa 0,0 l/m 12,4 km/h (3 Bft) O-NO 71 0 min 0,000 mm 0,0 UV-I 5 W/m -2,9 C -7,4 C 16,1 km/h (3 Bft) 95,74 %
10.02.2017 07:14 -1,8 C 92 % 1020,3 hPa 0,0 l/m 8,6 km/h (2 Bft) O-NO 65 0 min 0,000 mm 0,0 UV-I 6 W/m -2,9 C -4,1 C 17,7 km/h (3 Bft) 98,11 %
10.02.2017 07:16 -1,9 C 92 % 1020,3 hPa 0,0 l/m 10,1 km/h (2 Bft) O-NO 74 0 min 0,000 mm 0,0 UV-I 7 W/m -3,0 C -5,6 C 16,1 km/h (3 Bft) 94,87 %
10.02.2017 07:18 -1,9 C 92 % 1020,4 hPa 0,0 l/m 10,7 km/h (2 Bft) O 90 0 min 0,000 mm 0,0 UV-I 7 W/m -3,0 C -6,1 C 14,5 km/h (3 Bft) 96,23 %
10.02.2017 07:20 -1,9 C 92 % 1020,3 hPa 0,0 l/m 7,1 km/h (2 Bft) O-NO 67 0 min 0,000 mm 0,0 UV-I 8 W/m -3,0 C -2,7 C 12,9 km/h (3 Bft) 93,88 %
10.02.2017 07:22 -1,9 C 92 % 1020,3 hPa 0,0 l/m 8,6 km/h (2 Bft) O 82 0 min 0,000 mm 0,0 UV-I 9 W/m -3,0 C -4,2 C 16,1 km/h (3 Bft) 93,75 %
10.02.2017 07:24 -1,9 C 92 % 1020,4 hPa 0,0 l/m 6,5 km/h (2 Bft) O 91 0 min 0,000 mm 0,0 UV-I 10 W/m -3,0 C -2,0 C 12,9 km/h (3 Bft) 95,74 %
10.02.2017 07:26 -1,9 C 93 % 1020,4 hPa 0,0 l/m 7,2 km/h (2 Bft) O 99 0 min 0,000 mm 0,0 UV-I 11 W/m -2,9 C -2,8 C 12,9 km/h (3 Bft) 95,74 %
10.02.2017 07:28 -1,9 C 93 % 1020,4 hPa 0,0 l/m 2,1 km/h (1 Bft) O 88 0 min 0,000 mm 0,0 UV-I 12 W/m -2,9 C -1,9 C 4,8 km/h (1 Bft) 97,56 %
10.02.2017 07:30 -2,0 C 93 % 1020,4 hPa 0,0 l/m 4,0 km/h (1 Bft) O-SO 120 2 min 0,000 mm 0,0 UV-I 13 W/m -3,0 C -2,0 C 8,0 km/h (2 Bft) 90,24 %
10.02.2017 07:32 -2,1 C 92 % 1020,5 hPa 0,0 l/m 2,4 km/h (1 Bft) O-SO 122 2 min 0,000 mm 0,0 UV-I 15 W/m -3,2 C -2,1 C 4,8 km/h (1 Bft) 90,57 %
10.02.2017 07:34 -2,1 C 93 % 1020,6 hPa 0,0 l/m 3,6 km/h (1 Bft) O-SO 113 2 min 0,000 mm 0,0 UV-I 17 W/m -3,1 C -2,1 C 11,3 km/h (2 Bft) 97,37 %
10.02.2017 07:36 -2,1 C 93 % 1020,6 hPa 0,0 l/m 1,8 km/h (1 Bft) O-SO 121 2 min 0,000 mm 0,0 UV-I 19 W/m -3,1 C -2,1 C 4,8 km/h (1 Bft) 98,21 %
10.02.2017 07:38 -2,1 C 93 % 1020,6 hPa 0,0 l/m 1,1 km/h (1 Bft) O-SO 121 0 min 0,000 mm 0,0 UV-I 19 W/m -3,1 C -2,1 C 4,8 km/h (1 Bft) 96,00 %
10.02.2017 07:40 -2,1 C 93 % 1020,6 hPa 0,0 l/m 1,0 km/h (0 Bft) O-SO 121 0 min 0,000 mm 0,0 UV-I 21 W/m -3,1 C -2,1 C 3,2 km/h (1 Bft) 97,56 %
10.02.2017 07:42 -2,1 C 93 % 1020,7 hPa 0,0 l/m 1,3 km/h (1 Bft) O-SO 106 0 min 0,000 mm 0,0 UV-I 24 W/m -3,1 C -2,1 C 4,8 km/h (1 Bft) 98,11 %
10.02.2017 07:44 -2,1 C 93 % 1020,6 hPa 0,0 l/m 0,0 km/h (0 Bft) O-SO 106 0 min 0,000 mm 0,0 UV-I 26 W/m -3,1 C -2,1 C 0,0 km/h (0 Bft) 93,62 %
10.02.2017 07:46 -2,2 C 93 % 1020,6 hPa 0,0 l/m 0,0 km/h (0 Bft) O-SO 106 0 min 0,000 mm 0,0 UV-I 30 W/m -3,2 C -2,2 C 0,0 km/h (0 Bft) 97,37 %
10.02.2017 07:48 -2,3 C 93 % 1020,6 hPa 0,0 l/m 0,5 km/h (0 Bft) O-SO 106 0 min 0,000 mm 0,0 UV-I 32 W/m -3,3 C -2,3 C 3,2 km/h (1 Bft) 95,74 %
10.02.2017 07:50 -2,3 C 93 % 1020,7 hPa 0,0 l/m 1,4 km/h (1 Bft) O-SO 106 0 min 0,000 mm 0,0 UV-I 35 W/m -3,3 C -2,3 C 3,2 km/h (1 Bft) 97,87 %
10.02.2017 07:52 -2,4 C 93 % 1020,7 hPa 0,0 l/m 0,1 km/h (0 Bft) O-SO 106 0 min 0,000 mm 0,0 UV-I 37 W/m -3,4 C -2,4 C 1,6 km/h (1 Bft) 100,00 %
10.02.2017 07:54 -2,5 C 93 % 1020,7 hPa 0,0 l/m 0,3 km/h (0 Bft) O-SO 106 0 min 0,000 mm 0,0 UV-I 37 W/m -3,5 C -2,5 C 1,6 km/h (1 Bft) 100,00 %
10.02.2017 07:56 -2,5 C 93 % 1020,8 hPa 0,0 l/m 0,2 km/h (0 Bft) O-SO 106 0 min 0,000 mm 0,0 UV-I 40 W/m -3,5 C -2,5 C 1,6 km/h (1 Bft) 98,18 %
10.02.2017 07:58 -2,5 C 93 % 1020,7 hPa 0,0 l/m 0,1 km/h (0 Bft) O-SO 106 0 min 0,000 mm 0,0 UV-I 45 W/m -3,5 C -2,5 C 1,6 km/h (1 Bft) 100,00 %
10.02.2017 08:00 -2,6 C 93 % 1020,7 hPa 0,0 l/m 0,0 km/h (0 Bft) O-SO 106 0 min 0,000 mm 0,0 UV-I 45 W/m -3,6 C -2,6 C 0,0 km/h (0 Bft) 98,00 %
10.02.2017 08:02 -2,6 C 93 % 1020,7 hPa 0,0 l/m 0,0 km/h (0 Bft) O-SO 106 0 min 0,000 mm 0,0 UV-I 46 W/m -3,6 C -2,6 C 0,0 km/h (0 Bft) 98,00 %
10.02.2017 08:04 -2,6 C 93 % 1020,8 hPa 0,0 l/m 0,6 km/h (0 Bft) O-SO 105 0 min 0,000 mm 0,0 UV-I 49 W/m -3,6 C -2,6 C 1,6 km/h (1 Bft) 100,00 %
10.02.2017 08:06 -2,6 C 94 % 1020,8 hPa 0,0 l/m 0,5 km/h (0 Bft) O-SO 105 0 min 0,000 mm 0,0 UV-I 53 W/m -3,4 C -2,6 C 3,2 km/h (1 Bft) 92,68 %
10.02.2017 08:08 -2,6 C 94 % 1020,8 hPa 0,0 l/m 1,3 km/h (1 Bft) O-SO 105 0 min 0,000 mm 0,0 UV-I 54 W/m -3,4 C -2,6 C 3,2 km/h (1 Bft) 96,00 %
10.02.2017 08:10 -2,6 C 94 % 1020,8 hPa 0,0 l/m 0,4 km/h (0 Bft) O-SO 105 0 min 0,000 mm 0,0 UV-I 57 W/m -3,4 C -2,6 C 1,6 km/h (1 Bft) 100,00 %
10.02.2017 08:12 -2,6 C 94 % 1020,8 hPa 0,0 l/m 1,0 km/h (0 Bft) O-SO 105 0 min 0,000 mm 0,0 UV-I 63 W/m -3,4 C -2,6 C 4,8 km/h (1 Bft) 100,00 %
10.02.2017 08:14 -2,6 C 94 % 1020,9 hPa 0,0 l/m 0,9 km/h (0 Bft) O-SO 105 0 min 0,000 mm 0,0 UV-I 64 W/m -3,4 C -2,6 C 3,2 km/h (1 Bft) 100,00 %
10.02.2017 08:16 -2,6 C 94 % 1020,9 hPa 0,0 l/m 1,8 km/h (1 Bft) O-SO 105 0 min 0,000 mm 0,0 UV-I 68 W/m -3,4 C -2,6 C 3,2 km/h (1 Bft) 98,11 %
10.02.2017 08:18 -2,6 C 94 % 1020,9 hPa 0,0 l/m 0,1 km/h (0 Bft) O-SO 105 0 min 0,000 mm 0,0 UV-I 77 W/m -3,4 C -2,6 C 1,6 km/h (1 Bft) 100,00 %
10.02.2017 08:20 -2,7 C 94 % 1020,8 hPa 0,0 l/m 0,0 km/h (0 Bft) O-SO 105 2 min 0,000 mm 0,0 UV-I 84 W/m -3,5 C -2,7 C 0,0 km/h (0 Bft) 96,00 %
10.02.2017 08:22 -2,7 C 94 % 1020,9 hPa 0,0 l/m 0,0 km/h (0 Bft) O-SO 105 0 min 0,000 mm 0,0 UV-I 84 W/m -3,5 C -2,7 C 0,0 km/h (0 Bft) 100,00 %
10.02.2017 08:24 -2,7 C 94 % 1020,9 hPa 0,0 l/m 1,3 km/h (1 Bft) O-SO 105 2 min 0,000 mm 0,0 UV-I 92 W/m -3,5 C -2,7 C 3,2 km/h (1 Bft) 100,00 %
10.02.2017 08:26 -2,6 C 94 % 1020,9 hPa 0,0 l/m 0,3 km/h (0 Bft) O-SO 105 0 min 0,000 mm 0,0 UV-I 87 W/m -3,4 C -2,6 C 1,6 km/h (1 Bft) 98,00 %
10.02.2017 08:28 -2,6 C 94 % 1020,9 hPa 0,0 l/m 0,4 km/h (0 Bft) O-SO 105 2 min 0,000 mm 0,0 UV-I 96 W/m -3,4 C -2,6 C 1,6 km/h (1 Bft) 100,00 %
10.02.2017 08:30 -2,6 C 94 % 1020,9 hPa 0,0 l/m 0,4 km/h (0 Bft) O-SO 105 2 min 0,000 mm 0,0 UV-I 109 W/m -3,4 C -2,6 C 1,6 km/h (1 Bft) 98,00 %
10.02.2017 08:32 -2,6 C 94 % 1020,9 hPa 0,0 l/m 0,7 km/h (0 Bft) O-SO 105 2 min 0,000 mm 0,0 UV-I 107 W/m -3,4 C -2,6 C 3,2 km/h (1 Bft) 100,00 %
10.02.2017 08:34 -2,6 C 94 % 1020,9 hPa 0,0 l/m 1,7 km/h (1 Bft) O-SO 105 2 min 0,000 mm 0,0 UV-I 108 W/m -3,4 C -2,6 C 4,8 km/h (1 Bft) 98,00 %
10.02.2017 08:36 -2,6 C 94 % 1020,9 hPa 0,0 l/m 0,4 km/h (0 Bft) O-SO 105 2 min 0,000 mm 0,0 UV-I 125 W/m -3,4 C -2,6 C 1,6 km/h (1 Bft) 96,00 %
10.02.2017 08:38 -2,5 C 94 % 1020,9 hPa 0,0 l/m 0,0 km/h (0 Bft) O-SO 105 2 min 0,000 mm 0,0 UV-I 132 W/m -3,3 C -2,5 C 0,0 km/h (0 Bft) 100,00 %
10.02.2017 08:40 -2,5 C 94 % 1020,9 hPa 0,0 l/m 0,1 km/h (0 Bft) O-SO 105 2 min 0,000 mm 0,0 UV-I 131 W/m -3,3 C -2,5 C 1,6 km/h (1 Bft) 92,31 %
10.02.2017 08:42 -2,4 C 94 % 1020,9 hPa 0,0 l/m 0,6 km/h (0 Bft) O-SO 105 2 min 0,000 mm 0,0 UV-I 120 W/m -3,2 C -2,4 C 1,6 km/h (1 Bft) 97,87 %
10.02.2017 08:44 -2,3 C 94 % 1021,0 hPa 0,0 l/m 1,5 km/h (1 Bft) O-SO 105 0 min 0,000 mm 0,0 UV-I 109 W/m -3,1 C -2,3 C 3,2 km/h (1 Bft) 100,00 %
10.02.2017 08:46 -2,3 C 94 % 1021,0 hPa 0,0 l/m 2,1 km/h (1 Bft) O-SO 105 0 min 0,000 mm 0,0 UV-I 112 W/m -3,1 C -2,3 C 3,2 km/h (1 Bft) 97,92 %
10.02.2017 08:48 -2,4 C 94 % 1021,0 hPa 0,0 l/m 2,7 km/h (1 Bft) O-SO 105 2 min 0,000 mm 0,0 UV-I 140 W/m -3,2 C -2,4 C 3,2 km/h (1 Bft) 97,73 %
10.02.2017 08:50 -2,4 C 94 % 1021,0 hPa 0,0 l/m 2,3 km/h (1 Bft) O-SO 105 2 min 0,000 mm 0,0 UV-I 136 W/m -3,2 C -2,4 C 3,2 km/h (1 Bft) 100,00 %
10.02.2017 08:52 -2,3 C 94 % 1021,0 hPa 0,0 l/m 1,4 km/h (1 Bft) O-SO 105 2 min 0,000 mm 0,0 UV-I 128 W/m -3,1 C -2,3 C 3,2 km/h (1 Bft) 96,23 %
10.02.2017 08:54 -2,3 C 94 % 1021,0 hPa 0,0 l/m 0,0 km/h (0 Bft) O-SO 105 2 min 0,000 mm 0,0 UV-I 152 W/m -3,1 C -2,3 C 1,6 km/h (1 Bft) 95,74 %
10.02.2017 08:56 -2,3 C 94 % 1021,0 hPa 0,0 l/m 0,0 km/h (0 Bft) O-SO 105 2 min 0,000 mm 0,0 UV-I 164 W/m -3,1 C -2,3 C 0,0 km/h (0 Bft) 95,74 %
10.02.2017 08:58 -2,2 C 94 % 1021,0 hPa 0,0 l/m 0,9 km/h (0 Bft) O-SO 105 2 min 0,000 mm 0,0 UV-I 165 W/m -3,0 C -2,2 C 1,6 km/h (1 Bft) 97,30 %
10.02.2017 09:00 -2,1 C 94 % 1021,0 hPa 0,0 l/m 0,8 km/h (0 Bft) O-SO 105 2 min 0,025 mm 0,0 UV-I 170 W/m -2,9 C -2,1 C 3,2 km/h (1 Bft) 93,62 %
10.02.2017 09:02 -2,0 C 94 % 1021,0 hPa 0,0 l/m 0,9 km/h (0 Bft) O-SO 105 2 min 0,000 mm 0,0 UV-I 171 W/m -2,8 C -2,0 C 4,8 km/h (1 Bft) 96,00 %
10.02.2017 09:04 -1,9 C 93 % 1021,0 hPa 0,0 l/m 0,3 km/h (0 Bft) O-SO 105 2 min 0,000 mm 0,0 UV-I 170 W/m -2,9 C -1,9 C 1,6 km/h (1 Bft) 97,87 %
10.02.2017 09:06 -1,9 C 93 % 1021,0 hPa 0,0 l/m 0,0 km/h (0 Bft) O-SO 105 2 min 0,000 mm 0,0 UV-I 167 W/m -2,9 C -1,9 C 0,0 km/h (0 Bft) 90,00 %
10.02.2017 09:08 -1,9 C 93 % 1021,0 hPa 0,0 l/m 0,0 km/h (0 Bft) O-SO 105 2 min 0,000 mm 0,0 UV-I 175 W/m -2,9 C -1,9 C 0,0 km/h (0 Bft) 93,62 %
10.02.2017 09:10 -1,8 C 93 % 1021,0 hPa 0,0 l/m 0,0 km/h (0 Bft) O-SO 105 2 min 0,000 mm 0,0 UV-I 193 W/m -2,8 C -1,8 C 0,0 km/h (0 Bft) 92,00 %
10.02.2017 09:12 -1,7 C 93 % 1021,0 hPa 0,0 l/m 0,1 km/h (0 Bft) O-SO 105 2 min 0,000 mm 0,0 UV-I 202 W/m -2,7 C -1,7 C 1,6 km/h (1 Bft) 97,37 %
10.02.2017 09:14 -1,6 C 93 % 1021,0 hPa 0,0 l/m 0,5 km/h (0 Bft) O-SO 105 2 min 0,000 mm 0,0 UV-I 192 W/m -2,6 C -1,6 C 1,6 km/h (1 Bft) 91,67 %
10.02.2017 09:16 -1,6 C 92 % 1021,0 hPa 0,0 l/m 0,8 km/h (0 Bft) O-SO 105 2 min 0,000 mm 0,0 UV-I 199 W/m -2,7 C -1,6 C 1,6 km/h (1 Bft) 100,00 %
10.02.2017 09:18 -1,6 C 92 % 1021,0 hPa 0,0 l/m 0,7 km/h (0 Bft) O-SO 105 2 min 0,000 mm 0,0 UV-I 201 W/m -2,7 C -1,6 C 1,6 km/h (1 Bft) 92,31 %
10.02.2017 09:20 -1,5 C 93 % 1021,1 hPa 0,0 l/m 1,6 km/h (1 Bft) O-SO 105 2 min 0,000 mm 0,0 UV-I 187 W/m -2,5 C -1,5 C 3,2 km/h (1 Bft) 95,74 %
10.02.2017 09:22 -1,5 C 92 % 1021,0 hPa 0,0 l/m 1,2 km/h (1 Bft) O-SO 109 2 min 0,000 mm 0,0 UV-I 190 W/m -2,6 C -1,5 C 4,8 km/h (1 Bft) 94,00 %
10.02.2017 09:24 -1,5 C 92 % 1021,1 hPa 0,0 l/m 1,0 km/h (0 Bft) O-SO 109 2 min 0,000 mm 0,0 UV-I 191 W/m -2,6 C -1,5 C 1,6 km/h (1 Bft) 98,00 %
10.02.2017 09:26 -1,4 C 92 % 1021,1 hPa 0,0 l/m 1,4 km/h (1 Bft) O-SO 109 2 min 0,000 mm 0,0 UV-I 201 W/m -2,5 C -1,4 C 3,2 km/h (1 Bft) 97,87 %
10.02.2017 09:28 -1,4 C 92 % 1021,1 hPa 0,0 l/m 1,3 km/h (1 Bft) O-SO 109 2 min 0,000 mm 0,0 UV-I 192 W/m -2,5 C -1,4 C 3,2 km/h (1 Bft) 94,00 %
10.02.2017 09:30 -1,4 C 92 % 1021,1 hPa 0,0 l/m 1,7 km/h (1 Bft) O-SO 122 2 min 0,000 mm 0,0 UV-I 226 W/m -2,5 C -1,4 C 4,8 km/h (1 Bft) 100,00 %
10.02.2017 09:32 -1,3 C 92 % 1021,0 hPa 0,0 l/m 0,7 km/h (0 Bft) O-SO 122 2 min 0,000 mm 0,1 UV-I 242 W/m -2,4 C -1,3 C 1,6 km/h (1 Bft) 92,00 %
10.02.2017 09:34 -1,2 C 91 % 1021,1 hPa 0,0 l/m 0,3 km/h (0 Bft) O-SO 122 2 min 0,000 mm 0,5 UV-I 259 W/m -2,5 C -1,2 C 1,6 km/h (1 Bft) 97,87 %
10.02.2017 09:36 -1,1 C 91 % 1021,1 hPa 0,0 l/m 1,0 km/h (0 Bft) O-SO 122 2 min 0,000 mm 0,5 UV-I 266 W/m -2,4 C -1,1 C 3,2 km/h (1 Bft) 93,62 %
10.02.2017 09:38 -1,0 C 91 % 1021,1 hPa 0,0 l/m 1,6 km/h (1 Bft) O-SO 122 2 min 0,000 mm 0,5 UV-I 280 W/m -2,3 C -1,0 C 3,2 km/h (1 Bft) 94,29 %
10.02.2017 09:40 -0,9 C 91 % 1021,0 hPa 0,0 l/m 1,3 km/h (1 Bft) O 96 2 min 0,000 mm 0,5 UV-I 286 W/m -2,2 C -0,9 C 4,8 km/h (1 Bft) 94,34 %
10.02.2017 09:42 -0,9 C 90 % 1021,0 hPa 0,0 l/m 2,7 km/h (1 Bft) O 96 2 min 0,000 mm 0,5 UV-I 291 W/m -2,3 C -0,9 C 4,8 km/h (1 Bft) 92,45 %
10.02.2017 09:44 -0,8 C 90 % 1021,0 hPa 0,0 l/m 0,7 km/h (0 Bft) O 96 2 min 0,000 mm 0,5 UV-I 301 W/m -2,2 C -0,8 C 1,6 km/h (1 Bft) 97,56 %
10.02.2017 09:46 -0,6 C 90 % 1021,0 hPa 0,0 l/m 0,5 km/h (0 Bft) O 96 2 min 0,000 mm 0,6 UV-I 319 W/m -2,0 C -0,6 C 3,2 km/h (1 Bft) 95,12 %
10.02.2017 09:48 -0,6 C 89 % 1021,0 hPa 0,0 l/m 0,9 km/h (0 Bft) O 96 2 min 0,000 mm 0,6 UV-I 334 W/m -2,2 C -0,6 C 3,2 km/h (1 Bft) 96,23 %
10.02.2017 09:50 -0,6 C 89 % 1021,0 hPa 0,0 l/m 0,4 km/h (0 Bft) O 96 2 min 0,000 mm 0,6 UV-I 340 W/m -2,2 C -0,6 C 3,2 km/h (1 Bft) 95,74 %
10.02.2017 09:52 -0,6 C 89 % 1021,0 hPa 0,0 l/m 2,4 km/h (1 Bft) O 96 2 min 0,000 mm 0,6 UV-I 346 W/m -2,2 C -0,6 C 3,2 km/h (1 Bft) 96,23 %
10.02.2017 09:54 -0,6 C 89 % 1021,0 hPa 0,0 l/m 2,1 km/h (1 Bft) SO 126 2 min 0,000 mm 0,6 UV-I 351 W/m -2,2 C -0,6 C 6,4 km/h (2 Bft) 96,00 %
10.02.2017 09:56 -0,4 C 89 % 1021,0 hPa 0,0 l/m 0,2 km/h (0 Bft) SO 126 2 min 0,000 mm 0,6 UV-I 353 W/m -2,0 C -0,4 C 1,6 km/h (1 Bft) 97,44 %
10.02.2017 09:58 -0,4 C 88 % 1021,0 hPa 0,0 l/m 0,0 km/h (0 Bft) SO 126 2 min 0,000 mm 0,7 UV-I 355 W/m -2,1 C -0,4 C 0,0 km/h (0 Bft) 97,87 %
10.02.2017 10:00 -0,3 C 89 % 1021,0 hPa 0,0 l/m 0,3 km/h (0 Bft) SO 126 2 min 0,077 mm 0,7 UV-I 357 W/m -1,9 C -0,3 C 1,6 km/h (1 Bft) 98,11 %
10.02.2017 10:02 -0,2 C 88 % 1021,1 hPa 0,0 l/m 1,7 km/h (1 Bft) SO 126 2 min 0,000 mm 0,7 UV-I 354 W/m -1,9 C -0,2 C 3,2 km/h (1 Bft) 94,74 %
10.02.2017 10:04 -0,1 C 88 % 1021,1 hPa 0,0 l/m 1,8 km/h (1 Bft) SO 135 2 min 0,000 mm 0,7 UV-I 359 W/m -1,8 C -0,1 C 4,8 km/h (1 Bft) 95,74 %
10.02.2017 10:06 -0,1 C 88 % 1021,1 hPa 0,0 l/m 3,2 km/h (1 Bft) O-SO 121 2 min 0,000 mm 0,7 UV-I 360 W/m -1,8 C -0,1 C 6,4 km/h (2 Bft) 98,00 %
10.02.2017 10:08 -0,1 C 87 % 1021,1 hPa 0,0 l/m 3,8 km/h (1 Bft) O-SO 123 2 min 0,000 mm 0,7 UV-I 361 W/m -2,0 C -0,1 C 8,0 km/h (2 Bft) 96,23 %
10.02.2017 10:10 0,0 C 89 % 1021,0 hPa 0,0 l/m 2,3 km/h (1 Bft) O-SO 123 2 min 0,000 mm 0,7 UV-I 366 W/m -1,6 C 0,0 C 4,8 km/h (1 Bft) 97,14 %
10.02.2017 10:12 0,0 C 88 % 1021,0 hPa 0,0 l/m 1,9 km/h (1 Bft) SO 128 2 min 0,000 mm 0,7 UV-I 370 W/m -1,7 C 0,0 C 6,4 km/h (2 Bft) 96,00 %
10.02.2017 10:14 -0,1 C 87 % 1021,0 hPa 0,0 l/m 1,5 km/h (1 Bft) S-SO 157 2 min 0,000 mm 0,7 UV-I 371 W/m -2,0 C -0,1 C 4,8 km/h (1 Bft) 94,34 %
10.02.2017 10:16 0,0 C 87 % 1021,0 hPa 0,0 l/m 2,4 km/h (1 Bft) O-SO 107 2 min 0,000 mm 0,7 UV-I 373 W/m -1,9 C 0,0 C 4,8 km/h (1 Bft) 95,12 %
10.02.2017 10:18 0,0 C 87 % 1021,0 hPa 0,0 l/m 0,8 km/h (0 Bft) O-SO 107 2 min 0,000 mm 0,8 UV-I 379 W/m -1,9 C 0,0 C 3,2 km/h (1 Bft) 93,62 %
10.02.2017 10:20 0,0 C 87 % 1021,0 hPa 0,0 l/m 2,4 km/h (1 Bft) O-SO 107 2 min 0,000 mm 0,8 UV-I 381 W/m -1,9 C 0,0 C 4,8 km/h (1 Bft) 98,00 %
10.02.2017 10:22 0,1 C 87 % 1021,0 hPa 0,0 l/m 3,2 km/h (1 Bft) O-NO 76 2 min 0,000 mm 0,8 UV-I 382 W/m -1,8 C 0,1 C 4,8 km/h (1 Bft) 96,23 %
10.02.2017 10:24 0,1 C 87 % 1021,0 hPa 0,0 l/m 1,8 km/h (1 Bft) O-NO 74 2 min 0,000 mm 0,8 UV-I 387 W/m -1,8 C 0,1 C 3,2 km/h (1 Bft) 94,74 %
10.02.2017 10:26 0,3 C 87 % 1021,0 hPa 0,0 l/m 2,5 km/h (1 Bft) O-NO 63 2 min 0,000 mm 0,8 UV-I 390 W/m -1,6 C 0,3 C 4,8 km/h (1 Bft) 96,00 %
10.02.2017 10:28 0,3 C 86 % 1020,9 hPa 0,0 l/m 3,0 km/h (1 Bft) O 94 2 min 0,000 mm 0,8 UV-I 393 W/m -1,8 C 0,3 C 6,4 km/h (2 Bft) 97,73 %
10.02.2017 10:30 0,3 C 86 % 1020,9 hPa 0,0 l/m 3,9 km/h (1 Bft) O 96 2 min 0,000 mm 0,8 UV-I 391 W/m -1,8 C 0,3 C 6,4 km/h (2 Bft) 93,62 %
10.02.2017 10:32 0,3 C 86 % 1020,9 hPa 0,0 l/m 4,2 km/h (1 Bft) O-NO 72 2 min 0,000 mm 0,8 UV-I 378 W/m -1,8 C 0,3 C 6,4 km/h (2 Bft) 98,00 %
10.02.2017 10:34 0,5 C 86 % 1020,9 hPa 0,0 l/m 6,8 km/h (2 Bft) O-SO 104 2 min 0,000 mm 0,9 UV-I 395 W/m -1,6 C 0,1 C 9,7 km/h (2 Bft) 94,87 %
10.02.2017 10:36 0,4 C 85 % 1020,9 hPa 0,0 l/m 4,6 km/h (1 Bft) O-NO 74 2 min 0,000 mm 0,9 UV-I 403 W/m -1,8 C 0,4 C 9,7 km/h (2 Bft) 98,00 %
10.02.2017 10:38 0,6 C 86 % 1020,9 hPa 0,0 l/m 4,0 km/h (1 Bft) O-NO 67 2 min 0,000 mm 0,9 UV-I 408 W/m -1,5 C 0,6 C 6,4 km/h (2 Bft) 98,00 %
10.02.2017 10:40 0,7 C 86 % 1020,9 hPa 0,0 l/m 5,0 km/h (1 Bft) O 88 2 min 0,000 mm 0,9 UV-I 410 W/m -1,4 C 0,7 C 8,0 km/h (2 Bft) 95,74 %
10.02.2017 10:42 0,7 C 85 % 1021,0 hPa 0,0 l/m 4,3 km/h (1 Bft) O-SO 121 2 min 0,000 mm 0,9 UV-I 415 W/m -1,5 C 0,7 C 8,0 km/h (2 Bft) 100,00 %
10.02.2017 10:44 0,7 C 85 % 1021,0 hPa 0,0 l/m 3,3 km/h (1 Bft) O 101 2 min 0,000 mm 0,9 UV-I 417 W/m -1,5 C 0,7 C 4,8 km/h (1 Bft) 96,23 %
10.02.2017 10:46 0,7 C 85 % 1021,0 hPa 0,0 l/m 5,5 km/h (1 Bft) O-SO 111 2 min 0,000 mm 0,9 UV-I 421 W/m -1,5 C 0,7 C 9,7 km/h (2 Bft) 100,00 %
10.02.2017 10:48 0,9 C 85 % 1021,0 hPa 0,0 l/m 5,5 km/h (1 Bft) O-NO 66 2 min 0,000 mm 0,9 UV-I 425 W/m -1,3 C 0,9 C 8,0 km/h (2 Bft) 97,73 %
10.02.2017 10:50 0,9 C 84 % 1021,0 hPa 0,0 l/m 4,6 km/h (1 Bft) O-NO 61 2 min 0,000 mm 1,0 UV-I 427 W/m -1,5 C 0,9 C 8,0 km/h (2 Bft) 98,00 %
10.02.2017 10:52 0,9 C 84 % 1021,0 hPa 0,0 l/m 6,9 km/h (2 Bft) O-NO 74 2 min 0,000 mm 1,0 UV-I 425 W/m -1,5 C 0,4 C 11,3 km/h (2 Bft) 94,34 %
10.02.2017 10:54 0,9 C 85 % 1021,0 hPa 0,0 l/m 4,4 km/h (1 Bft) O-NO 67 2 min 0,000 mm 1,0 UV-I 425 W/m -1,3 C 0,9 C 6,4 km/h (2 Bft) 94,74 %
10.02.2017 10:56 1,1 C 84 % 1020,9 hPa 0,0 l/m 5,4 km/h (1 Bft) O-SO 121 2 min 0,000 mm 1,0 UV-I 427 W/m -1,3 C 1,1 C 8,0 km/h (2 Bft) 98,11 %
10.02.2017 10:58 1,0 C 84 % 1020,9 hPa 0,0 l/m 5,2 km/h (1 Bft) O 84 2 min 0,000 mm 1,0 UV-I 423 W/m -1,4 C 1,0 C 8,0 km/h (2 Bft) 100,00 %
10.02.2017 11:00 1,1 C 84 % 1020,8 hPa 0,0 l/m 4,8 km/h (1 Bft) O-NO 63 2 min 0,127 mm 1,0 UV-I 419 W/m -1,3 C 1,1 C 8,0 km/h (2 Bft) 94,74 %
10.02.2017 11:02 1,2 C 84 % 1020,8 hPa 0,0 l/m 5,6 km/h (1 Bft) O-NO 69 2 min 0,000 mm 1,0 UV-I 426 W/m -1,2 C 1,2 C 9,7 km/h (2 Bft) 95,74 %
10.02.2017 11:04 1,2 C 83 % 1020,9 hPa 0,0 l/m 7,1 km/h (2 Bft) O 82 2 min 0,000 mm 1,0 UV-I 438 W/m -1,4 C 0,5 C 12,9 km/h (3 Bft) 100,00 %
10.02.2017 11:06 1,1 C 83 % 1020,8 hPa 0,0 l/m 3,8 km/h (1 Bft) O-NO 58 2 min 0,000 mm 1,0 UV-I 440 W/m -1,5 C 1,1 C 8,0 km/h (2 Bft) 93,62 %
10.02.2017 11:08 1,1 C 84 % 1020,8 hPa 0,0 l/m 4,1 km/h (1 Bft) NO 55 2 min 0,000 mm 1,0 UV-I 441 W/m -1,3 C 1,1 C 4,8 km/h (1 Bft) 98,00 %
10.02.2017 11:10 1,1 C 83 % 1020,8 hPa 0,0 l/m 3,4 km/h (1 Bft) O-NO 76 2 min 0,000 mm 1,1 UV-I 446 W/m -1,5 C 1,1 C 4,8 km/h (1 Bft) 100,00 %
10.02.2017 11:12 1,1 C 84 % 1020,8 hPa 0,0 l/m 3,4 km/h (1 Bft) O-NO 59 2 min 0,000 mm 1,1 UV-I 448 W/m -1,3 C 1,1 C 4,8 km/h (1 Bft) 96,55 %
10.02.2017 11:14 1,3 C 84 % 1020,9 hPa 0,0 l/m 5,3 km/h (1 Bft) O 81 2 min 0,000 mm 1,1 UV-I 450 W/m -1,1 C 1,3 C 8,0 km/h (2 Bft) 94,87 %
10.02.2017 11:16 1,4 C 83 % 1020,8 hPa 0,0 l/m 4,5 km/h (1 Bft) O-SO 109 2 min 0,000 mm 1,1 UV-I 454 W/m -1,2 C 1,4 C 6,4 km/h (2 Bft) 98,00 %
10.02.2017 11:18 1,3 C 83 % 1020,8 hPa 0,0 l/m 3,2 km/h (1 Bft) O-SO 109 2 min 0,000 mm 1,1 UV-I 455 W/m -1,3 C 1,3 C 6,4 km/h (2 Bft) 94,00 %
10.02.2017 11:20 1,3 C 83 % 1020,8 hPa 0,0 l/m 3,6 km/h (1 Bft) O-SO 107 2 min 0,000 mm 1,1 UV-I 456 W/m -1,3 C 1,3 C 6,4 km/h (2 Bft) 98,00 %
10.02.2017 11:22 1,4 C 83 % 1020,8 hPa 0,0 l/m 4,0 km/h (1 Bft) SO 146 2 min 0,000 mm 1,1 UV-I 458 W/m -1,2 C 1,4 C 6,4 km/h (2 Bft) 100,00 %
10.02.2017 11:24 1,3 C 82 % 1020,8 hPa 0,0 l/m 3,3 km/h (1 Bft) O-SO 113 2 min 0,000 mm 1,1 UV-I 460 W/m -1,4 C 1,3 C 4,8 km/h (1 Bft) 93,62 %
10.02.2017 11:26 1,4 C 83 % 1020,8 hPa 0,0 l/m 4,4 km/h (1 Bft) O-SO 102 2 min 0,000 mm 1,1 UV-I 464 W/m -1,2 C 1,4 C 6,4 km/h (2 Bft) 96,23 %
10.02.2017 11:28 1,4 C 83 % 1020,8 hPa 0,0 l/m 2,7 km/h (1 Bft) O-SO 121 2 min 0,000 mm 1,1 UV-I 462 W/m -1,2 C 1,4 C 6,4 km/h (2 Bft) 97,56 %
10.02.2017 11:30 1,4 C 83 % 1020,7 hPa 0,0 l/m 3,4 km/h (1 Bft) O-SO 103 2 min 0,000 mm 1,1 UV-I 465 W/m -1,2 C 1,4 C 6,4 km/h (2 Bft) 98,11 %
10.02.2017 11:32 1,4 C 83 % 1020,7 hPa 0,0 l/m 4,1 km/h (1 Bft) O-NO 74 2 min 0,000 mm 1,1 UV-I 466 W/m -1,2 C 1,4 C 6,4 km/h (2 Bft) 95,74 %
10.02.2017 11:34 1,6 C 83 % 1020,7 hPa 0,0 l/m 3,8 km/h (1 Bft) O-SO 102 2 min 0,000 mm 1,1 UV-I 466 W/m -1,0 C 1,6 C 6,4 km/h (2 Bft) 97,56 %
10.02.2017 11:36 1,6 C 82 % 1020,7 hPa 0,0 l/m 7,6 km/h (2 Bft) O-NO 59 2 min 0,000 mm 1,2 UV-I 465 W/m -1,1 C 0,4 C 11,3 km/h (2 Bft) 95,74 %
10.02.2017 11:38 1,7 C 83 % 1020,7 hPa 0,0 l/m 4,8 km/h (1 Bft) O-NO 60 2 min 0,000 mm 1,2 UV-I 468 W/m -0,9 C 1,7 C 6,4 km/h (2 Bft) 97,87 %
10.02.2017 11:40 1,7 C 83 % 1020,6 hPa 0,0 l/m 5,6 km/h (1 Bft) NO 54 2 min 0,000 mm 1,2 UV-I 469 W/m -0,9 C 1,7 C 8,0 km/h (2 Bft) 94,34 %
10.02.2017 11:42 1,6 C 82 % 1020,6 hPa 0,0 l/m 4,5 km/h (1 Bft) NO 44 2 min 0,000 mm 1,2 UV-I 468 W/m -1,1 C 1,6 C 6,4 km/h (2 Bft) 97,37 %
10.02.2017 11:44 1,6 C 83 % 1020,6 hPa 0,0 l/m 4,2 km/h (1 Bft) NO 43 2 min 0,000 mm 1,2 UV-I 468 W/m -1,0 C 1,6 C 6,4 km/h (2 Bft) 94,00 %
10.02.2017 11:46 1,8 C 83 % 1020,6 hPa 0,0 l/m 5,9 km/h (2 Bft) NO 41 2 min 0,000 mm 1,2 UV-I 470 W/m -0,8 C 1,8 C 8,0 km/h (2 Bft) 96,00 %
10.02.2017 11:48 1,9 C 83 % 1020,5 hPa 0,0 l/m 5,3 km/h (1 Bft) NO 46 2 min 0,000 mm 1,2 UV-I 470 W/m -0,7 C 1,9 C 6,4 km/h (2 Bft) 93,62 %
10.02.2017 11:50 1,9 C 82 % 1020,6 hPa 0,0 l/m 4,1 km/h (1 Bft) O-NO 60 2 min 0,000 mm 1,2 UV-I 470 W/m -0,8 C 1,9 C 8,0 km/h (2 Bft) 100,00 %
10.02.2017 11:52 2,0 C 82 % 1020,5 hPa 0,0 l/m 3,7 km/h (1 Bft) O-SO 111 2 min 0,000 mm 1,2 UV-I 469 W/m -0,7 C 2,0 C 6,4 km/h (2 Bft) 94,03 %
10.02.2017 11:54 2,1 C 81 % 1020,5 hPa 0,0 l/m 1,7 km/h (1 Bft) O 98 2 min 0,000 mm 1,2 UV-I 471 W/m -0,8 C 2,1 C 3,2 km/h (1 Bft) 92,86 %
10.02.2017 11:56 2,1 C 82 % 1020,5 hPa 0,0 l/m 0,9 km/h (0 Bft) O 98 2 min 0,000 mm 1,2 UV-I 471 W/m -0,6 C 2,1 C 3,2 km/h (1 Bft) 94,00 %
10.02.2017 11:58 2,1 C 81 % 1020,4 hPa 0,0 l/m 1,1 km/h (1 Bft) O 99 2 min 0,000 mm 1,2 UV-I 472 W/m -0,8 C 2,1 C 3,2 km/h (1 Bft) 93,62 %
10.02.2017 12:00 2,1 C 80 % 1020,5 hPa 0,0 l/m 0,9 km/h (0 Bft) O 86 2 min 0,177 mm 1,2 UV-I 474 W/m -1,0 C 2,1 C 6,4 km/h (2 Bft) 98,00 %
10.02.2017 12:02 2,0 C 80 % 1020,4 hPa 0,0 l/m 2,8 km/h (1 Bft) O 88 2 min 0,000 mm 1,2 UV-I 474 W/m -1,1 C 2,0 C 6,4 km/h (2 Bft) 97,87 %
10.02.2017 12:04 1,9 C 81 % 1020,4 hPa 0,0 l/m 1,3 km/h (1 Bft) O 85 2 min 0,000 mm 1,2 UV-I 473 W/m -1,0 C 1,9 C 3,2 km/h (1 Bft) 97,37 %
10.02.2017 12:06 2,1 C 82 % 1020,4 hPa 0,0 l/m 3,1 km/h (1 Bft) NO 45 2 min 0,000 mm 1,2 UV-I 475 W/m -0,6 C 2,1 C 8,0 km/h (2 Bft) 100,00 %
10.02.2017 12:08 2,2 C 80 % 1020,4 hPa 0,0 l/m 1,2 km/h (1 Bft) NO 46 2 min 0,000 mm 1,2 UV-I 474 W/m -0,9 C 2,2 C 4,8 km/h (1 Bft) 97,87 %
10.02.2017 12:10 2,3 C 81 % 1020,4 hPa 0,0 l/m 4,8 km/h (1 Bft) NO 40 2 min 0,000 mm 1,2 UV-I 474 W/m -0,6 C 2,3 C 6,4 km/h (2 Bft) 95,12 %
10.02.2017 12:12 2,3 C 82 % 1020,3 hPa 0,0 l/m 3,9 km/h (1 Bft) NO 55 2 min 0,000 mm 1,2 UV-I 476 W/m -0,4 C 2,3 C 6,4 km/h (2 Bft) 98,00 %
10.02.2017 12:14 2,6 C 80 % 1020,3 hPa 0,0 l/m 5,6 km/h (1 Bft) O-NO 66 2 min 0,000 mm 1,2 UV-I 475 W/m -0,5 C 2,6 C 11,3 km/h (2 Bft) 98,11 %
10.02.2017 12:16 2,6 C 80 % 1020,2 hPa 0,0 l/m 5,9 km/h (2 Bft) O-NO 57 2 min 0,000 mm 1,2 UV-I 472 W/m -0,5 C 2,6 C 8,0 km/h (2 Bft) 93,62 %
10.02.2017 12:18 2,7 C 80 % 1020,1 hPa 0,0 l/m 2,2 km/h (1 Bft) O-NO 59 2 min 0,000 mm 1,2 UV-I 477 W/m -0,4 C 2,7 C 6,4 km/h (2 Bft) 100,00 %
10.02.2017 12:20 2,6 C 80 % 1020,1 hPa 0,0 l/m 4,7 km/h (1 Bft) O-NO 62 2 min 0,000 mm 1,2 UV-I 474 W/m -0,5 C 2,6 C 8,0 km/h (2 Bft) 98,21 %
10.02.2017 12:22 2,7 C 80 % 1020,1 hPa 0,0 l/m 4,7 km/h (1 Bft) O-NO 65 2 min 0,000 mm 1,2 UV-I 475 W/m -0,4 C 2,7 C 8,0 km/h (2 Bft) 96,00 %
10.02.2017 12:24 2,6 C 79 % 1020,1 hPa 0,0 l/m 5,1 km/h (1 Bft) NO 49 2 min 0,000 mm 1,2 UV-I 475 W/m -0,7 C 2,6 C 8,0 km/h (2 Bft) 92,68 %
10.02.2017 12:26 2,6 C 80 % 1020,1 hPa 0,0 l/m 6,2 km/h (2 Bft) NO 46 2 min 0,000 mm 1,2 UV-I 474 W/m -0,5 C 2,6 C 9,7 km/h (2 Bft) 94,00 %
10.02.2017 12:28 2,6 C 79 % 1020,1 hPa 0,0 l/m 4,2 km/h (1 Bft) NO 55 2 min 0,000 mm 1,2 UV-I 472 W/m -0,7 C 2,6 C 6,4 km/h (2 Bft) 97,56 %
10.02.2017 12:30 2,7 C 79 % 1020,1 hPa 0,0 l/m 6,3 km/h (2 Bft) NO 52 2 min 0,000 mm 1,2 UV-I 471 W/m -0,6 C 2,7 C 11,3 km/h (2 Bft) 92,45 %
10.02.2017 12:32 2,7 C 80 % 1020,1 hPa 0,0 l/m 5,4 km/h (1 Bft) NO 55 2 min 0,000 mm 1,2 UV-I 472 W/m -0,4 C 2,7 C 8,0 km/h (2 Bft) 94,87 %
10.02.2017 12:34 2,9 C 80 % 1020,0 hPa 0,0 l/m 5,0 km/h (1 Bft) NO 53 2 min 0,000 mm 1,2 UV-I 471 W/m -0,2 C 2,9 C 6,4 km/h (2 Bft) 94,00 %
10.02.2017 12:36 2,9 C 79 % 1020,0 hPa 0,0 l/m 5,6 km/h (1 Bft) O-NO 78 2 min 0,000 mm 1,2 UV-I 472 W/m -0,4 C 2,9 C 11,3 km/h (2 Bft) 94,00 %
10.02.2017 12:38 2,9 C 78 % 1020,1 hPa 0,0 l/m 4,3 km/h (1 Bft) O-NO 66 2 min 0,000 mm 1,2 UV-I 471 W/m -0,5 C 2,9 C 11,3 km/h (2 Bft) 97,56 %
10.02.2017 12:40 2,9 C 79 % 1020,1 hPa 0,0 l/m 2,9 km/h (1 Bft) O-NO 66 2 min 0,000 mm 1,2 UV-I 470 W/m -0,4 C 2,9 C 4,8 km/h (1 Bft) 98,11 %
10.02.2017 12:42 3,0 C 79 % 1020,1 hPa 0,0 l/m 2,9 km/h (1 Bft) O-NO 65 2 min 0,000 mm 1,2 UV-I 468 W/m -0,3 C 3,0 C 6,4 km/h (2 Bft) 89,47 %
10.02.2017 12:44 2,9 C 78 % 1020,1 hPa 0,0 l/m 1,0 km/h (0 Bft) O-NO 65 2 min 0,000 mm 1,2 UV-I 470 W/m -0,5 C 2,9 C 3,2 km/h (1 Bft) 94,34 %
10.02.2017 12:46 2,9 C 78 % 1020,1 hPa 0,0 l/m 1,3 km/h (1 Bft) O-NO 63 2 min 0,000 mm 1,2 UV-I 467 W/m -0,5 C 2,9 C 3,2 km/h (1 Bft) 93,62 %
10.02.2017 12:48 2,9 C 80 % 1020,1 hPa 0,0 l/m 1,8 km/h (1 Bft) O-NO 63 2 min 0,000 mm 1,2 UV-I 468 W/m -0,2 C 2,9 C 4,8 km/h (1 Bft) 97,87 %
10.02.2017 12:50 2,9 C 81 % 1020,0 hPa 0,0 l/m 3,6 km/h (1 Bft) N-NO 26 2 min 0,000 mm 1,2 UV-I 470 W/m -0,0 C 2,9 C 8,0 km/h (2 Bft) 98,00 %
10.02.2017 12:52 3,0 C 80 % 1020,0 hPa 0,0 l/m 6,9 km/h (2 Bft) NO 55 2 min 0,000 mm 1,2 UV-I 467 W/m -0,1 C 2,5 C 11,3 km/h (2 Bft) 92,11 %
10.02.2017 12:54 3,1 C 79 % 1020,0 hPa 0,0 l/m 5,1 km/h (1 Bft) NO 52 2 min 0,000 mm 1,2 UV-I 469 W/m -0,2 C 3,1 C 6,4 km/h (2 Bft) 96,23 %
10.02.2017 12:56 3,2 C 79 % 1020,0 hPa 0,0 l/m 3,2 km/h (1 Bft) O-NO 76 2 min 0,000 mm 1,2 UV-I 466 W/m -0,1 C 3,2 C 4,8 km/h (1 Bft) 94,00 %
10.02.2017 12:58 3,3 C 79 % 1020,0 hPa 0,0 l/m 4,1 km/h (1 Bft) NO 55 2 min 0,000 mm 1,2 UV-I 465 W/m 0,0 C 3,3 C 6,4 km/h (2 Bft) 90,24 %
10.02.2017 13:00 3,3 C 79 % 1020,0 hPa 0,0 l/m 4,5 km/h (1 Bft) NO 45 2 min 0,178 mm 1,2 UV-I 464 W/m 0,0 C 3,3 C 6,4 km/h (2 Bft) 96,23 %
10.02.2017 13:02 3,3 C 78 % 1020,0 hPa 0,0 l/m 4,5 km/h (1 Bft) O-NO 63 2 min 0,000 mm 1,2 UV-I 461 W/m -0,2 C 3,3 C 6,4 km/h (2 Bft) 95,74 %
10.02.2017 13:04 3,3 C 79 % 1020,0 hPa 0,0 l/m 2,8 km/h (1 Bft) O-NO 61 2 min 0,000 mm 1,1 UV-I 459 W/m 0,0 C 3,3 C 4,8 km/h (1 Bft) 97,37 %
10.02.2017 13:06 3,3 C 78 % 1020,0 hPa 0,0 l/m 4,1 km/h (1 Bft) NO 55 2 min 0,000 mm 1,1 UV-I 455 W/m -0,2 C 3,3 C 6,4 km/h (2 Bft) 98,21 %
10.02.2017 13:08 3,3 C 79 % 1020,1 hPa 0,0 l/m 1,0 km/h (0 Bft) NO 55 2 min 0,000 mm 1,1 UV-I 453 W/m 0,0 C 3,3 C 3,2 km/h (1 Bft) 92,11 %
10.02.2017 13:10 3,3 C 79 % 1020,0 hPa 0,0 l/m 3,3 km/h (1 Bft) NO 53 2 min 0,000 mm 1,1 UV-I 450 W/m 0,0 C 3,3 C 4,8 km/h (1 Bft) 97,62 %
10.02.2017 13:12 3,4 C 79 % 1019,9 hPa 0,0 l/m 5,4 km/h (1 Bft) O-NO 61 2 min 0,000 mm 1,1 UV-I 450 W/m 0,1 C 3,4 C 9,7 km/h (2 Bft) 98,28 %
10.02.2017 13:14 3,5 C 78 % 1020,0 hPa 0,0 l/m 6,0 km/h (2 Bft) NO 49 2 min 0,000 mm 1,1 UV-I 447 W/m 0,0 C 3,5 C 11,3 km/h (2 Bft) 96,00 %
10.02.2017 13:16 3,4 C 77 % 1019,9 hPa 0,0 l/m 4,7 km/h (1 Bft) NO 46 2 min 0,000 mm 1,1 UV-I 447 W/m -0,2 C 3,4 C 8,0 km/h (2 Bft) 100,00 %
10.02.2017 13:18 3,5 C 78 % 1019,9 hPa 0,0 l/m 4,3 km/h (1 Bft) NO 46 2 min 0,000 mm 1,1 UV-I 443 W/m 0,0 C 3,5 C 6,4 km/h (2 Bft) 100,00 %
10.02.2017 13:20 3,6 C 78 % 1019,9 hPa 0,0 l/m 4,6 km/h (1 Bft) NO 44 2 min 0,000 mm 1,1 UV-I 442 W/m 0,1 C 3,6 C 6,4 km/h (2 Bft) 97,92 %
10.02.2017 13:22 3,6 C 78 % 1020,0 hPa 0,0 l/m 2,5 km/h (1 Bft) NO 44 2 min 0,000 mm 1,1 UV-I 438 W/m 0,1 C 3,6 C 4,8 km/h (1 Bft) 98,11 %
10.02.2017 13:24 3,6 C 78 % 1019,9 hPa 0,0 l/m 1,0 km/h (0 Bft) NO 44 2 min 0,000 mm 1,1 UV-I 437 W/m 0,1 C 3,6 C 3,2 km/h (1 Bft) 100,00 %
10.02.2017 13:26 3,6 C 78 % 1020,0 hPa 0,0 l/m 2,7 km/h (1 Bft) NO 49 2 min 0,000 mm 1,0 UV-I 435 W/m 0,1 C 3,6 C 4,8 km/h (1 Bft) 98,00 %
10.02.2017 13:28 3,6 C 78 % 1020,0 hPa 0,0 l/m 2,7 km/h (1 Bft) NO 49 2 min 0,000 mm 1,0 UV-I 432 W/m 0,1 C 3,6 C 4,8 km/h (1 Bft) 100,00 %
10.02.2017 13:30 3,7 C 77 % 1020,0 hPa 0,0 l/m 3,8 km/h (1 Bft) NO 42 2 min 0,000 mm 1,0 UV-I 430 W/m 0,1 C 3,7 C 8,0 km/h (2 Bft) 97,92 %
10.02.2017 13:32 3,7 C 77 % 1020,0 hPa 0,0 l/m 4,7 km/h (1 Bft) NO 52 2 min 0,000 mm 1,0 UV-I 429 W/m 0,1 C 3,7 C 6,4 km/h (2 Bft) 100,00 %
10.02.2017 13:34 3,7 C 77 % 1019,9 hPa 0,0 l/m 3,4 km/h (1 Bft) O-NO 59 2 min 0,000 mm 1,0 UV-I 424 W/m 0,1 C 3,7 C 6,4 km/h (2 Bft) 98,00 %
10.02.2017 13:36 3,9 C 77 % 1020,0 hPa 0,0 l/m 5,9 km/h (2 Bft) NO 56 2 min 0,000 mm 1,0 UV-I 423 W/m 0,2 C 3,9 C 8,0 km/h (2 Bft) 100,00 %
10.02.2017 13:38 3,9 C 77 % 1020,0 hPa 0,0 l/m 8,9 km/h (2 Bft) NO 55 2 min 0,000 mm 1,0 UV-I 421 W/m 0,2 C 1,7 C 14,5 km/h (3 Bft) 97,87 %
10.02.2017 13:40 4,2 C 76 % 1020,0 hPa 0,0 l/m 8,9 km/h (2 Bft) NO 40 2 min 0,000 mm 1,0 UV-I 418 W/m 0,4 C 2,0 C 14,5 km/h (3 Bft) 98,00 %
10.02.2017 13:42 4,4 C 76 % 1019,9 hPa 0,0 l/m 6,8 km/h (2 Bft) NO 50 2 min 0,000 mm 1,0 UV-I 417 W/m 0,5 C 4,1 C 9,7 km/h (2 Bft) 100,00 %
10.02.2017 13:44 4,5 C 76 % 1020,0 hPa 0,0 l/m 7,8 km/h (2 Bft) NO 44 2 min 0,000 mm 0,9 UV-I 415 W/m 0,6 C 3,2 C 9,7 km/h (2 Bft) 97,87 %
10.02.2017 13:46 4,6 C 75 % 1019,9 hPa 0,0 l/m 7,8 km/h (2 Bft) NO 48 2 min 0,000 mm 0,9 UV-I 411 W/m 0,6 C 3,4 C 14,5 km/h (3 Bft) 96,00 %
10.02.2017 13:48 4,6 C 75 % 1019,9 hPa 0,0 l/m 7,1 km/h (2 Bft) O-NO 71 2 min 0,000 mm 0,9 UV-I 410 W/m 0,6 C 4,0 C 9,7 km/h (2 Bft) 94,34 %
10.02.2017 13:50 4,6 C 74 % 1019,9 hPa 0,0 l/m 6,9 km/h (2 Bft) NO 44 2 min 0,000 mm 0,9 UV-I 408 W/m 0,4 C 4,2 C 9,7 km/h (2 Bft) 100,00 %
10.02.2017 13:52 4,6 C 74 % 1019,9 hPa 0,0 l/m 10,2 km/h (2 Bft) NO 52 2 min 0,000 mm 0,9 UV-I 404 W/m 0,4 C 1,5 C 24,1 km/h (4 Bft) 96,00 %
10.02.2017 13:54 4,6 C 74 % 1019,9 hPa 0,0 l/m 17,4 km/h (3 Bft) O-NO 74 2 min 0,000 mm 0,9 UV-I 402 W/m 0,4 C -2,6 C 24,1 km/h (4 Bft) 98,00 %
10.02.2017 13:56 4,6 C 74 % 1019,9 hPa 0,0 l/m 17,2 km/h (3 Bft) O 80 2 min 0,000 mm 0,9 UV-I 398 W/m 0,4 C -2,5 C 22,5 km/h (4 Bft) 100,00 %
10.02.2017 13:58 4,6 C 73 % 1019,9 hPa 0,0 l/m 20,6 km/h (4 Bft) O-NO 67 2 min 0,000 mm 0,9 UV-I 395 W/m 0,2 C -3,9 C 27,4 km/h (4 Bft) 100,00 %
10.02.2017 14:00 4,6 C 74 % 1019,9 hPa 0,0 l/m 21,2 km/h (4 Bft) NO 55 2 min 0,000 mm 0,9 UV-I 394 W/m 0,4 C -4,2 C 27,4 km/h (4 Bft) 97,87 %
10.02.2017 14:02 4,5 C 74 % 1019,9 hPa 0,0 l/m 18,1 km/h (3 Bft) O-NO 61 2 min 0,178 mm 0,8 UV-I 390 W/m 0,3 C -3,0 C 24,1 km/h (4 Bft) 100,00 %
10.02.2017 14:04 4,5 C 74 % 1019,8 hPa 0,0 l/m 21,2 km/h (4 Bft) O 81 2 min 0,000 mm 0,8 UV-I 386 W/m 0,3 C -4,3 C 29,0 km/h (5 Bft) 98,11 %
10.02.2017 14:06 4,4 C 74 % 1019,8 hPa 0,0 l/m 24,8 km/h (4 Bft) O-NO 66 2 min 0,000 mm 0,8 UV-I 382 W/m 0,2 C -5,7 C 30,6 km/h (5 Bft) 95,12 %
10.02.2017 14:08 4,4 C 74 % 1019,8 hPa 0,0 l/m 20,4 km/h (4 Bft) O-NO 62 2 min 0,000 mm 0,8 UV-I 380 W/m 0,2 C -4,1 C 25,7 km/h (4 Bft) 92,45 %
10.02.2017 14:10 4,4 C 74 % 1019,8 hPa 0,0 l/m 20,2 km/h (4 Bft) O-NO 67 2 min 0,000 mm 0,8 UV-I 379 W/m 0,2 C -4,0 C 25,7 km/h (4 Bft) 97,73 %
10.02.2017 14:12 4,4 C 74 % 1019,8 hPa 0,0 l/m 20,4 km/h (4 Bft) O-NO 71 2 min 0,000 mm 0,8 UV-I 377 W/m 0,2 C -4,1 C 27,4 km/h (4 Bft) 95,12 %
10.02.2017 14:14 4,3 C 75 % 1019,8 hPa 0,0 l/m 18,0 km/h (3 Bft) O-NO 63 2 min 0,000 mm 0,8 UV-I 373 W/m 0,3 C -3,2 C 24,1 km/h (4 Bft) 97,87 %
10.02.2017 14:16 4,3 C 75 % 1019,8 hPa 0,0 l/m 19,7 km/h (3 Bft) O-NO 64 2 min 0,000 mm 0,8 UV-I 367 W/m 0,3 C -4,0 C 25,7 km/h (4 Bft) 97,37 %
10.02.2017 14:18 4,3 C 75 % 1019,9 hPa 0,0 l/m 18,0 km/h (3 Bft) O-NO 68 2 min 0,000 mm 0,8 UV-I 365 W/m 0,3 C -3,2 C 24,1 km/h (4 Bft) 95,16 %
10.02.2017 14:20 4,3 C 75 % 1019,9 hPa 0,0 l/m 16,8 km/h (3 Bft) O-NO 74 2 min 0,000 mm 0,7 UV-I 361 W/m 0,3 C -2,7 C 24,1 km/h (4 Bft) 95,45 %
10.02.2017 14:22 4,3 C 74 % 1019,9 hPa 0,0 l/m 21,5 km/h (4 Bft) O-NO 62 2 min 0,000 mm 0,7 UV-I 359 W/m 0,1 C -4,7 C 30,6 km/h (5 Bft) 97,37 %
10.02.2017 14:24 4,3 C 75 % 1019,9 hPa 0,0 l/m 19,9 km/h (4 Bft) O-NO 67 2 min 0,000 mm 0,7 UV-I 355 W/m 0,3 C -4,0 C 29,0 km/h (5 Bft) 94,34 %
10.02.2017 14:26 4,3 C 75 % 1019,8 hPa 0,0 l/m 20,4 km/h (4 Bft) O 84 2 min 0,000 mm 0,7 UV-I 350 W/m 0,3 C -4,2 C 24,1 km/h (4 Bft) 94,34 %
10.02.2017 14:28 4,3 C 75 % 1019,9 hPa 0,0 l/m 17,1 km/h (3 Bft) O 92 2 min 0,000 mm 0,7 UV-I 346 W/m 0,3 C -2,8 C 22,5 km/h (4 Bft) 100,00 %
10.02.2017 14:30 4,3 C 75 % 1019,9 hPa 0,0 l/m 17,3 km/h (3 Bft) O 84 2 min 0,000 mm 0,7 UV-I 343 W/m 0,3 C -2,9 C 22,5 km/h (4 Bft) 92,45 %
10.02.2017 14:32 4,3 C 75 % 1019,9 hPa 0,0 l/m 18,0 km/h (3 Bft) O-NO 65 2 min 0,000 mm 0,7 UV-I 339 W/m 0,3 C -3,2 C 25,7 km/h (4 Bft) 95,56 %
10.02.2017 14:34 4,3 C 75 % 1019,9 hPa 0,0 l/m 18,1 km/h (3 Bft) O 80 2 min 0,000 mm 0,6 UV-I 335 W/m 0,3 C -3,3 C 22,5 km/h (4 Bft) 95,45 %
10.02.2017 14:36 4,3 C 75 % 1019,9 hPa 0,0 l/m 20,3 km/h (4 Bft) O-NO 67 2 min 0,000 mm 0,6 UV-I 330 W/m 0,3 C -4,2 C 29,0 km/h (5 Bft) 94,55 %
10.02.2017 14:38 4,3 C 74 % 1019,9 hPa 0,0 l/m 19,2 km/h (3 Bft) O 84 2 min 0,000 mm 0,6 UV-I 327 W/m 0,1 C -3,7 C 25,7 km/h (4 Bft) 84,62 %
10.02.2017 14:40 4,3 C 75 % 1019,9 hPa 0,0 l/m 17,5 km/h (3 Bft) O 81 2 min 0,000 mm 0,6 UV-I 322 W/m 0,3 C -3,0 C 24,1 km/h (4 Bft) 96,00 %
10.02.2017 14:42 4,3 C 75 % 1019,9 hPa 0,0 l/m 18,7 km/h (3 Bft) O 82 2 min 0,000 mm 0,6 UV-I 317 W/m 0,3 C -3,5 C 22,5 km/h (4 Bft) 94,00 %
10.02.2017 14:44 4,2 C 75 % 1019,9 hPa 0,0 l/m 18,7 km/h (3 Bft) O 89 2 min 0,000 mm 0,6 UV-I 311 W/m 0,2 C -3,7 C 29,0 km/h (5 Bft) 97,87 %
10.02.2017 14:46 4,2 C 76 % 1019,9 hPa 0,0 l/m 18,5 km/h (3 Bft) O-NO 76 2 min 0,000 mm 0,6 UV-I 307 W/m 0,4 C -3,6 C 25,7 km/h (4 Bft) 95,00 %
10.02.2017 14:48 4,2 C 76 % 1019,9 hPa 0,0 l/m 16,6 km/h (3 Bft) O 87 2 min 0,000 mm 0,6 UV-I 304 W/m 0,4 C -2,7 C 24,1 km/h (4 Bft) 91,49 %
10.02.2017 14:50 4,2 C 76 % 1019,9 hPa 0,0 l/m 15,3 km/h (3 Bft) O-NO 65 2 min 0,000 mm 0,5 UV-I 300 W/m 0,4 C -2,0 C 20,9 km/h (4 Bft) 95,74 %
10.02.2017 14:52 4,2 C 76 % 1019,9 hPa 0,0 l/m 15,8 km/h (3 Bft) O-NO 63 2 min 0,000 mm 0,5 UV-I 293 W/m 0,4 C -2,3 C 24,1 km/h (4 Bft) 94,34 %
10.02.2017 14:54 4,2 C 76 % 1019,9 hPa 0,0 l/m 19,3 km/h (3 Bft) O-NO 59 2 min 0,000 mm 0,5 UV-I 290 W/m 0,4 C -3,9 C 24,1 km/h (4 Bft) 97,14 %
10.02.2017 14:56 4,2 C 76 % 1019,9 hPa 0,0 l/m 17,2 km/h (3 Bft) O-NO 74 2 min 0,000 mm 0,5 UV-I 289 W/m 0,4 C -3,0 C 22,5 km/h (4 Bft) 98,11 %
10.02.2017 14:58 4,2 C 76 % 1019,9 hPa 0,0 l/m 18,4 km/h (3 Bft) O-NO 59 2 min 0,000 mm 0,5 UV-I 287 W/m 0,4 C -3,5 C 22,5 km/h (4 Bft) 96,00 %
10.02.2017 15:00 4,2 C 76 % 1019,9 hPa 0,0 l/m 17,1 km/h (3 Bft) O-NO 78 2 min 0,178 mm 0,5 UV-I 280 W/m 0,4 C -2,9 C 22,5 km/h (4 Bft) 91,49 %
10.02.2017 15:02 4,1 C 75 % 1019,9 hPa 0,0 l/m 19,6 km/h (3 Bft) O-NO 58 2 min 0,000 mm 0,5 UV-I 276 W/m 0,1 C -4,2 C 29,0 km/h (5 Bft) 94,00 %
10.02.2017 15:04 4,1 C 76 % 1019,8 hPa 0,0 l/m 24,1 km/h (4 Bft) O 98 2 min 0,000 mm 0,5 UV-I 272 W/m 0,3 C -5,9 C 32,2 km/h (5 Bft) 97,56 %
10.02.2017 15:06 4,0 C 75 % 1019,8 hPa 0,0 l/m 22,6 km/h (4 Bft) O-NO 67 2 min 0,000 mm 0,4 UV-I 269 W/m -0,0 C -5,5 C 27,4 km/h (4 Bft) 91,49 %
10.02.2017 15:08 3,9 C 76 % 1019,8 hPa 0,0 l/m 18,2 km/h (3 Bft) O-NO 68 2 min 0,000 mm 0,0 UV-I 264 W/m 0,1 C -3,8 C 24,1 km/h (4 Bft) 92,45 %
10.02.2017 15:10 3,9 C 77 % 1019,8 hPa 0,0 l/m 18,4 km/h (3 Bft) O-NO 73 2 min 0,000 mm 0,0 UV-I 257 W/m 0,2 C -3,9 C 25,7 km/h (4 Bft) 95,12 %
10.02.2017 15:12 3,9 C 77 % 1019,8 hPa 0,0 l/m 19,7 km/h (3 Bft) O 82 2 min 0,000 mm 0,0 UV-I 254 W/m 0,2 C -4,5 C 29,0 km/h (5 Bft) 90,57 %
10.02.2017 15:14 3,8 C 77 % 1019,9 hPa 0,0 l/m 22,7 km/h (4 Bft) O-NO 76 2 min 0,000 mm 0,0 UV-I 249 W/m 0,1 C -5,8 C 30,6 km/h (5 Bft) 94,44 %
10.02.2017 15:16 3,8 C 77 % 1019,9 hPa 0,0 l/m 16,1 km/h (3 Bft) NO 47 2 min 0,000 mm 0,0 UV-I 244 W/m 0,1 C -2,9 C 20,9 km/h (4 Bft) 95,74 %
10.02.2017 15:18 3,8 C 77 % 1019,9 hPa 0,0 l/m 16,8 km/h (3 Bft) O 94 2 min 0,000 mm 0,0 UV-I 239 W/m 0,1 C -3,3 C 22,5 km/h (4 Bft) 95,12 %
10.02.2017 15:20 3,8 C 77 % 1019,9 hPa 0,0 l/m 16,6 km/h (3 Bft) NO 50 2 min 0,000 mm 0,0 UV-I 235 W/m 0,1 C -3,2 C 22,5 km/h (4 Bft) 92,86 %
10.02.2017 15:22 3,7 C 77 % 1020,0 hPa 0,0 l/m 16,0 km/h (3 Bft) O-NO 71 2 min 0,000 mm 0,0 UV-I 228 W/m 0,1 C -3,0 C 20,9 km/h (4 Bft) 97,73 %
10.02.2017 15:24 3,7 C 77 % 1019,9 hPa 0,0 l/m 18,0 km/h (3 Bft) O-NO 69 2 min 0,000 mm 0,0 UV-I 224 W/m 0,1 C -4,0 C 24,1 km/h (4 Bft) 95,45 %
10.02.2017 15:26 3,7 C 77 % 1019,9 hPa 0,0 l/m 16,4 km/h (3 Bft) O-NO 65 2 min 0,000 mm 0,0 UV-I 218 W/m 0,1 C -3,2 C 22,5 km/h (4 Bft) 90,57 %
10.02.2017 15:28 3,7 C 77 % 1019,9 hPa 0,0 l/m 17,1 km/h (3 Bft) O-NO 65 2 min 0,000 mm 0,0 UV-I 214 W/m 0,1 C -3,6 C 27,4 km/h (4 Bft) 95,74 %
10.02.2017 15:30 3,7 C 78 % 1019,9 hPa 0,0 l/m 12,2 km/h (2 Bft) O-NO 69 2 min 0,000 mm 0,0 UV-I 209 W/m 0,2 C -0,9 C 19,3 km/h (3 Bft) 94,34 %
10.02.2017 15:32 3,6 C 78 % 1020,0 hPa 0,0 l/m 13,4 km/h (3 Bft) O-NO 75 2 min 0,000 mm 0,0 UV-I 207 W/m 0,1 C -1,7 C 20,9 km/h (4 Bft) 90,24 %
10.02.2017 15:34 3,6 C 78 % 1019,9 hPa 0,0 l/m 12,4 km/h (3 Bft) O-NO 64 2 min 0,000 mm 0,0 UV-I 193 W/m 0,1 C -1,1 C 17,7 km/h (3 Bft) 92,00 %
10.02.2017 15:36 3,6 C 78 % 1019,8 hPa 0,0 l/m 15,4 km/h (3 Bft) O 80 2 min 0,000 mm 0,0 UV-I 196 W/m 0,1 C -2,8 C 22,5 km/h (4 Bft) 95,12 %
10.02.2017 15:38 3,6 C 78 % 1019,8 hPa 0,0 l/m 16,9 km/h (3 Bft) O-NO 75 2 min 0,000 mm 0,0 UV-I 158 W/m 0,1 C -3,6 C 24,1 km/h (4 Bft) 94,00 %
10.02.2017 15:40 3,5 C 78 % 1019,7 hPa 0,0 l/m 16,9 km/h (3 Bft) NO 44 0 min 0,000 mm 0,0 UV-I 120 W/m 0,0 C -3,7 C 22,5 km/h (4 Bft) 94,34 %
10.02.2017 15:42 3,4 C 78 % 1019,7 hPa 0,0 l/m 20,1 km/h (4 Bft) O-NO 70 2 min 0,000 mm 0,0 UV-I 135 W/m -0,1 C -5,3 C 27,4 km/h (4 Bft) 94,29 %
10.02.2017 15:44 3,4 C 78 % 1019,7 hPa 0,0 l/m 24,4 km/h (4 Bft) NO 50 0 min 0,000 mm 0,0 UV-I 118 W/m -0,1 C -6,9 C 29,0 km/h (5 Bft) 98,11 %
10.02.2017 15:46 3,3 C 78 % 1019,7 hPa 0,0 l/m 22,5 km/h (4 Bft) NO 54 2 min 0,000 mm 0,0 UV-I 164 W/m -0,2 C -6,4 C 29,0 km/h (5 Bft) 90,48 %
10.02.2017 15:48 3,3 C 79 % 1019,7 hPa 0,0 l/m 23,4 km/h (4 Bft) O-NO 71 2 min 0,000 mm 0,0 UV-I 171 W/m 0,0 C -6,7 C 29,0 km/h (5 Bft) 97,56 %
10.02.2017 15:50 3,3 C 79 % 1019,7 hPa 0,0 l/m 22,9 km/h (4 Bft) O-NO 77 2 min 0,000 mm 0,0 UV-I 164 W/m 0,0 C -6,5 C 30,6 km/h (5 Bft) 95,45 %
10.02.2017 15:52 3,2 C 79 % 1019,7 hPa 0,0 l/m 17,5 km/h (3 Bft) O 79 2 min 0,000 mm 0,0 UV-I 160 W/m -0,1 C -4,4 C 24,1 km/h (4 Bft) 93,18 %
10.02.2017 15:54 3,2 C 79 % 1019,7 hPa 0,0 l/m 21,4 km/h (4 Bft) NO 40 2 min 0,000 mm 0,0 UV-I 156 W/m -0,1 C -6,1 C 29,0 km/h (5 Bft) 96,43 %
10.02.2017 15:56 3,2 C 79 % 1019,8 hPa 0,0 l/m 20,0 km/h (4 Bft) NO 51 2 min 0,000 mm 0,0 UV-I 151 W/m -0,1 C -5,5 C 25,7 km/h (4 Bft) 90,57 %
10.02.2017 15:58 3,1 C 79 % 1019,8 hPa 0,0 l/m 15,8 km/h (3 Bft) NO 55 2 min 0,000 mm 0,0 UV-I 147 W/m -0,2 C -3,7 C 20,9 km/h (4 Bft) 92,68 %
10.02.2017 16:00 3,1 C 79 % 1019,9 hPa 0,0 l/m 17,2 km/h (3 Bft) O-NO 63 2 min 0,000 mm 0,0 UV-I 142 W/m -0,2 C -4,4 C 27,4 km/h (4 Bft) 96,43 %
10.02.2017 16:02 3,1 C 79 % 1019,8 hPa 0,0 l/m 17,5 km/h (3 Bft) O-NO 59 2 min 0,101 mm 0,0 UV-I 138 W/m -0,2 C -4,5 C 27,4 km/h (4 Bft) 97,73 %
10.02.2017 16:04 3,1 C 79 % 1019,8 hPa 0,0 l/m 18,1 km/h (3 Bft) O-NO 70 2 min 0,000 mm 0,0 UV-I 134 W/m -0,2 C -4,8 C 24,1 km/h (4 Bft) 91,49 %
10.02.2017 16:06 3,0 C 80 % 1019,8 hPa 0,0 l/m 19,6 km/h (3 Bft) O 86 2 min 0,000 mm 0,0 UV-I 130 W/m -0,1 C -5,6 C 25,7 km/h (4 Bft) 96,23 %
10.02.2017 16:08 3,0 C 80 % 1019,9 hPa 0,0 l/m 18,4 km/h (3 Bft) O-NO 78 2 min 0,000 mm 0,0 UV-I 125 W/m -0,1 C -5,1 C 25,7 km/h (4 Bft) 97,67 %
10.02.2017 16:10 2,9 C 80 % 1019,8 hPa 0,0 l/m 20,7 km/h (4 Bft) O-NO 67 2 min 0,000 mm 0,0 UV-I 119 W/m -0,2 C -6,2 C 25,7 km/h (4 Bft) 95,12 %
10.02.2017 16:13 2,9 C 80 % 1019,8 hPa 0,0 l/m 18,2 km/h (3 Bft) NO 51 3 min 0,000 mm 0,0 UV-I 113 W/m -0,2 C -5,1 C 25,7 km/h (4 Bft) 95,95 %
10.02.2017 16:14 2,9 C 80 % 1019,8 hPa 0,0 l/m 15,4 km/h (3 Bft) O 88 1 min 0,000 mm 0,0 UV-I 109 W/m -0,2 C -3,7 C 19,3 km/h (3 Bft) 100,00 %
10.02.2017 16:16 2,8 C 80 % 1019,8 hPa 0,0 l/m 15,3 km/h (3 Bft) O-NO 76 2 min 0,000 mm 0,0 UV-I 106 W/m -0,3 C -3,8 C 20,9 km/h (4 Bft) 97,37 %
10.02.2017 16:18 2,8 C 80 % 1019,9 hPa 0,0 l/m 15,7 km/h (3 Bft) O-NO 67 2 min 0,000 mm 0,0 UV-I 102 W/m -0,3 C -4,0 C 20,9 km/h (4 Bft) 94,00 %
10.02.2017 16:20 2,8 C 80 % 1020,0 hPa 0,0 l/m 16,2 km/h (3 Bft) NO 55 2 min 0,000 mm 0,0 UV-I 97 W/m -0,3 C -4,2 C 22,5 km/h (4 Bft) 97,56 %
10.02.2017 16:22 2,8 C 80 % 1019,9 hPa 0,0 l/m 18,9 km/h (3 Bft) O-NO 70 2 min 0,000 mm 0,0 UV-I 93 W/m -0,3 C -5,5 C 25,7 km/h (4 Bft) 96,43 %
10.02.2017 16:24 2,8 C 81 % 1019,9 hPa 0,0 l/m 14,4 km/h (3 Bft) O 84 2 min 0,000 mm 0,0 UV-I 90 W/m -0,1 C -3,3 C 20,9 km/h (4 Bft) 90,00 %
10.02.2017 16:26 2,7 C 81 % 1019,9 hPa 0,0 l/m 17,7 km/h (3 Bft) O-NO 71 2 min 0,000 mm 0,0 UV-I 85 W/m -0,2 C -5,1 C 24,1 km/h (4 Bft) 94,03 %
10.02.2017 16:28 2,7 C 81 % 1019,9 hPa 0,0 l/m 13,8 km/h (3 Bft) NO 51 2 min 0,000 mm 0,0 UV-I 81 W/m -0,2 C -3,0 C 17,7 km/h (3 Bft) 100,00 %
10.02.2017 16:30 2,7 C 81 % 1019,9 hPa 0,0 l/m 13,4 km/h (3 Bft) O-NO 60 2 min 0,000 mm 0,0 UV-I 76 W/m -0,2 C -2,8 C 20,9 km/h (4 Bft) 91,04 %
10.02.2017 16:32 2,6 C 81 % 1019,9 hPa 0,0 l/m 16,1 km/h (3 Bft) O-NO 71 2 min 0,000 mm 0,0 UV-I 71 W/m -0,3 C -4,4 C 25,7 km/h (4 Bft) 97,62 %
10.02.2017 16:34 2,6 C 81 % 1019,9 hPa 0,0 l/m 19,2 km/h (3 Bft) NO 49 2 min 0,000 mm 0,0 UV-I 67 W/m -0,3 C -5,9 C 27,4 km/h (4 Bft) 98,11 %
10.02.2017 16:36 2,6 C 81 % 1019,9 hPa 0,0 l/m 20,1 km/h (4 Bft) O-NO 75 2 min 0,000 mm 0,0 UV-I 64 W/m -0,3 C -6,3 C 27,4 km/h (4 Bft) 92,11 %
10.02.2017 16:38 2,6 C 81 % 1019,8 hPa 0,0 l/m 18,3 km/h (3 Bft) NO 53 2 min 0,000 mm 0,0 UV-I 59 W/m -0,3 C -5,5 C 22,5 km/h (4 Bft) 96,00 %
10.02.2017 16:40 2,6 C 81 % 1019,8 hPa 0,0 l/m 19,0 km/h (3 Bft) NO 55 2 min 0,000 mm 0,0 UV-I 54 W/m -0,3 C -5,8 C 24,1 km/h (4 Bft) 98,00 %
10.02.2017 16:42 2,5 C 81 % 1019,9 hPa 0,0 l/m 16,6 km/h (3 Bft) O-NO 64 2 min 0,000 mm 0,0 UV-I 52 W/m -0,4 C -4,8 C 22,5 km/h (4 Bft) 90,24 %
10.02.2017 16:44 2,4 C 81 % 1019,9 hPa 0,0 l/m 12,3 km/h (3 Bft) NO 48 2 min 0,000 mm 0,0 UV-I 48 W/m -0,5 C -2,4 C 16,1 km/h (3 Bft) 91,49 %
10.02.2017 16:46 2,4 C 82 % 1019,9 hPa 0,0 l/m 13,3 km/h (3 Bft) O-NO 64 2 min 0,000 mm 0,0 UV-I 44 W/m -0,4 C -3,1 C 17,7 km/h (3 Bft) 98,00 %
10.02.2017 16:48 2,3 C 82 % 1019,9 hPa 0,0 l/m 13,9 km/h (3 Bft) O-NO 58 2 min 0,000 mm 0,0 UV-I 40 W/m -0,4 C -3,6 C 19,3 km/h (3 Bft) 92,68 %
10.02.2017 16:50 2,2 C 82 % 1019,9 hPa 0,0 l/m 12,5 km/h (3 Bft) O-NO 69 2 min 0,000 mm 0,0 UV-I 36 W/m -0,5 C -2,8 C 17,7 km/h (3 Bft) 94,34 %
10.02.2017 16:52 2,2 C 83 % 1019,9 hPa 0,0 l/m 14,5 km/h (3 Bft) O-NO 58 2 min 0,000 mm 0,0 UV-I 33 W/m -0,4 C -4,0 C 17,7 km/h (3 Bft) 97,37 %
10.02.2017 16:54 2,2 C 83 % 1019,9 hPa 0,0 l/m 15,9 km/h (3 Bft) O-NO 65 2 min 0,000 mm 0,0 UV-I 31 W/m -0,4 C -4,8 C 24,1 km/h (4 Bft) 96,23 %
10.02.2017 16:56 2,1 C 83 % 1020,0 hPa 0,0 l/m 14,1 km/h (3 Bft) NO 49 2 min 0,000 mm 0,0 UV-I 28 W/m -0,5 C -3,9 C 20,9 km/h (4 Bft) 90,00 %
10.02.2017 16:58 2,1 C 83 % 1020,0 hPa 0,0 l/m 14,4 km/h (3 Bft) O-NO 59 2 min 0,000 mm 0,0 UV-I 25 W/m -0,5 C -4,1 C 20,9 km/h (4 Bft) 94,00 %
10.02.2017 17:00 2,1 C 83 % 1020,1 hPa 0,0 l/m 15,2 km/h (3 Bft) NO 51 2 min 0,051 mm 0,0 UV-I 22 W/m -0,5 C -4,5 C 20,9 km/h (4 Bft) 89,36 %
10.02.2017 17:02 2,0 C 83 % 1020,1 hPa 0,0 l/m 16,1 km/h (3 Bft) NO 56 2 min 0,000 mm 0,0 UV-I 20 W/m -0,6 C -5,2 C 22,5 km/h (4 Bft) 97,56 %
10.02.2017 17:04 2,0 C 83 % 1020,1 hPa 0,0 l/m 16,8 km/h (3 Bft) O-NO 68 2 min 0,000 mm 0,0 UV-I 18 W/m -0,6 C -5,5 C 25,7 km/h (4 Bft) 98,11 %
10.02.2017 17:06 1,9 C 83 % 1020,1 hPa 0,0 l/m 16,8 km/h (3 Bft) O-NO 63 2 min 0,000 mm 0,0 UV-I 16 W/m -0,7 C -5,7 C 20,9 km/h (4 Bft) 97,56 %
10.02.2017 17:08 1,9 C 83 % 1020,1 hPa 0,0 l/m 19,0 km/h (3 Bft) O-NO 65 0 min 0,000 mm 0,0 UV-I 13 W/m -0,7 C -6,7 C 27,4 km/h (4 Bft) 92,45 %
10.02.2017 17:10 1,9 C 83 % 1020,1 hPa 0,0 l/m 18,9 km/h (3 Bft) O-NO 65 0 min 0,000 mm 0,0 UV-I 11 W/m -0,7 C -6,7 C 22,5 km/h (4 Bft) 100,00 %
10.02.2017 17:12 1,8 C 83 % 1020,1 hPa 0,0 l/m 14,0 km/h (3 Bft) NO 52 0 min 0,000 mm 0,0 UV-I 11 W/m -0,8 C -4,2 C 20,9 km/h (4 Bft) 95,83 %
10.02.2017 17:14 1,8 C 83 % 1020,2 hPa 0,0 l/m 17,9 km/h (3 Bft) NO 50 0 min 0,000 mm 0,0 UV-I 9 W/m -0,8 C -6,3 C 24,1 km/h (4 Bft) 95,74 %
10.02.2017 17:16 1,8 C 83 % 1020,3 hPa 0,0 l/m 18,2 km/h (3 Bft) NO 50 0 min 0,000 mm 0,0 UV-I 9 W/m -0,8 C -6,5 C 22,5 km/h (4 Bft) 95,74 %
10.02.2017 17:18 1,8 C 84 % 1020,3 hPa 0,0 l/m 15,1 km/h (3 Bft) NO 55 0 min 0,000 mm 0,0 UV-I 7 W/m -0,6 C -4,9 C 24,1 km/h (4 Bft) 100,00 %
10.02.2017 17:20 1,7 C 84 % 1020,3 hPa 0,0 l/m 14,9 km/h (3 Bft) O-NO 59 0 min 0,000 mm 0,0 UV-I 7 W/m -0,7 C -4,9 C 22,5 km/h (4 Bft) 92,68 %
10.02.2017 17:22 1,7 C 84 % 1020,3 hPa 0,0 l/m 13,4 km/h (3 Bft) NO 43 0 min 0,000 mm 0,0 UV-I 6 W/m -0,7 C -4,0 C 20,9 km/h (4 Bft) 96,43 %
10.02.2017 17:24 1,7 C 84 % 1020,4 hPa 0,0 l/m 15,4 km/h (3 Bft) O-NO 57 0 min 0,000 mm 0,0 UV-I 5 W/m -0,7 C -5,1 C 24,1 km/h (4 Bft) 92,11 %
10.02.2017 17:26 1,6 C 84 % 1020,4 hPa 0,0 l/m 15,2 km/h (3 Bft) NO 39 0 min 0,000 mm 0,0 UV-I 5 W/m -0,8 C -5,2 C 20,9 km/h (4 Bft) 92,00 %
10.02.2017 17:28 1,6 C 84 % 1020,4 hPa 0,0 l/m 17,1 km/h (3 Bft) O-NO 61 0 min 0,000 mm 0,0 UV-I 5 W/m -0,8 C -6,2 C 22,5 km/h (4 Bft) 98,00 %
10.02.2017 17:30 1,6 C 84 % 1020,5 hPa 0,0 l/m 17,1 km/h (3 Bft) NO 55 0 min 0,000 mm 0,0 UV-I 5 W/m -0,8 C -6,2 C 24,1 km/h (4 Bft) 97,37 %
10.02.2017 17:32 1,5 C 84 % 1020,4 hPa 0,0 l/m 14,4 km/h (3 Bft) O-NO 63 0 min 0,000 mm 0,0 UV-I 0 W/m -0,9 C -4,8 C 22,5 km/h (4 Bft) 94,92 %
10.02.2017 17:34 1,4 C 84 % 1020,4 hPa 0,0 l/m 14,6 km/h (3 Bft) NO 42 0 min 0,000 mm 0,0 UV-I 0 W/m -1,0 C -5,1 C 19,3 km/h (3 Bft) 100,00 %
10.02.2017 17:36 1,4 C 85 % 1020,4 hPa 0,0 l/m 16,6 km/h (3 Bft) O-NO 61 0 min 0,000 mm 0,0 UV-I 0 W/m -0,8 C -6,2 C 24,1 km/h (4 Bft) 94,34 %
10.02.2017 17:38 1,3 C 85 % 1020,5 hPa 0,0 l/m 15,1 km/h (3 Bft) O-NO 63 0 min 0,000 mm 0,0 UV-I 0 W/m -0,9 C -5,5 C 19,3 km/h (3 Bft) 100,00 %
10.02.2017 17:40 1,3 C 85 % 1020,4 hPa 0,0 l/m 16,5 km/h (3 Bft) NO 53 0 min 0,000 mm 0,0 UV-I 0 W/m -0,9 C -6,2 C 22,5 km/h (4 Bft) 93,62 %
10.02.2017 17:42 1,3 C 85 % 1020,5 hPa 0,0 l/m 18,3 km/h (3 Bft) O-NO 62 0 min 0,000 mm 0,0 UV-I 0 W/m -0,9 C -7,2 C 25,7 km/h (4 Bft) 94,00 %
10.02.2017 17:44 1,3 C 85 % 1020,4 hPa 0,0 l/m 21,0 km/h (4 Bft) O-NO 67 0 min 0,000 mm 0,0 UV-I 0 W/m -0,9 C -8,4 C 27,4 km/h (4 Bft) 100,00 %
10.02.2017 17:46 1,3 C 85 % 1020,5 hPa 0,0 l/m 16,6 km/h (3 Bft) O-NO 68 0 min 0,000 mm 0,0 UV-I 0 W/m -0,9 C -6,3 C 20,9 km/h (4 Bft) 96,00 %
10.02.2017 17:48 1,2 C 85 % 1020,5 hPa 0,0 l/m 16,6 km/h (3 Bft) O 82 0 min 0,000 mm 0,0 UV-I 0 W/m -1,0 C -6,4 C 20,9 km/h (4 Bft) 95,56 %
10.02.2017 17:50 1,2 C 85 % 1020,5 hPa 0,0 l/m 17,6 km/h (3 Bft) O-NO 65 0 min 0,000 mm 0,0 UV-I 0 W/m -1,0 C -6,9 C 22,5 km/h (4 Bft) 92,11 %
10.02.2017 17:52 1,2 C 85 % 1020,5 hPa 0,0 l/m 15,9 km/h (3 Bft) O-NO 67 0 min 0,000 mm 0,0 UV-I 0 W/m -1,0 C -6,0 C 22,5 km/h (4 Bft) 98,11 %
10.02.2017 17:54 1,1 C 85 % 1020,4 hPa 0,0 l/m 18,9 km/h (3 Bft) O 84 0 min 0,000 mm 0,0 UV-I 0 W/m -1,1 C -7,7 C 27,4 km/h (4 Bft) 95,74 %
10.02.2017 17:56 1,1 C 85 % 1020,4 hPa 0,0 l/m 16,9 km/h (3 Bft) O-NO 70 0 min 0,000 mm 0,0 UV-I 0 W/m -1,1 C -6,7 C 27,4 km/h (4 Bft) 98,00 %
10.02.2017 17:58 1,1 C 85 % 1020,4 hPa 0,0 l/m 21,8 km/h (4 Bft) O-NO 70 0 min 0,000 mm 0,0 UV-I 0 W/m -1,1 C -9,0 C 32,2 km/h (5 Bft) 100,00 %
10.02.2017 18:00 1,1 C 85 % 1020,5 hPa 0,0 l/m 21,1 km/h (4 Bft) O-NO 62 0 min 0,026 mm 0,0 UV-I 0 W/m -1,1 C -8,7 C 32,2 km/h (5 Bft) 96,77 %
10.02.2017 18:02 1,1 C 85 % 1020,5 hPa 0,0 l/m 19,2 km/h (3 Bft) NO 56 0 min 0,000 mm 0,0 UV-I 0 W/m -1,1 C -7,8 C 25,7 km/h (4 Bft) 100,00 %
10.02.2017 18:04 1,1 C 85 % 1020,5 hPa 0,0 l/m 17,6 km/h (3 Bft) O-NO 69 0 min 0,000 mm 0,0 UV-I 0 W/m -1,1 C -7,1 C 24,1 km/h (4 Bft) 100,00 %
10.02.2017 18:06 1,0 C 85 % 1020,5 hPa 0,0 l/m 21,1 km/h (4 Bft) O-NO 71 0 min 0,000 mm 0,0 UV-I 0 W/m -1,2 C -8,8 C 27,4 km/h (4 Bft) 97,73 %
10.02.2017 18:08 1,0 C 85 % 1020,5 hPa 0,0 l/m 23,8 km/h (4 Bft) O 94 0 min 0,000 mm 0,0 UV-I 0 W/m -1,2 C -9,9 C 32,2 km/h (5 Bft) 94,00 %
10.02.2017 18:10 1,0 C 85 % 1020,5 hPa 0,0 l/m 24,7 km/h (4 Bft) O 84 0 min 0,000 mm 0,0 UV-I 0 W/m -1,2 C -10,3 C 35,4 km/h (5 Bft) 93,62 %
10.02.2017 18:12 1,0 C 85 % 1020,4 hPa 0,0 l/m 24,0 km/h (4 Bft) O 79 0 min 0,000 mm 0,0 UV-I 0 W/m -1,2 C -10,0 C 33,8 km/h (5 Bft) 97,56 %
10.02.2017 18:14 1,0 C 85 % 1020,5 hPa 0,0 l/m 25,5 km/h (4 Bft) O-NO 75 0 min 0,000 mm 0,0 UV-I 0 W/m -1,2 C -10,5 C 35,4 km/h (5 Bft) 97,56 %
10.02.2017 18:16 1,0 C 85 % 1020,5 hPa 0,0 l/m 26,2 km/h (4 Bft) O-NO 71 0 min 0,000 mm 0,0 UV-I 0 W/m -1,2 C -10,8 C 33,8 km/h (5 Bft) 94,00 %
10.02.2017 18:18 1,0 C 85 % 1020,5 hPa 0,0 l/m 25,6 km/h (4 Bft) O 80 0 min 0,000 mm 0,0 UV-I 0 W/m -1,2 C -10,6 C 35,4 km/h (5 Bft) 97,56 %
10.02.2017 18:20 1,0 C 85 % 1020,6 hPa 0,0 l/m 24,3 km/h (4 Bft) O-NO 61 0 min 0,000 mm 0,0 UV-I 0 W/m -1,2 C -10,1 C 33,8 km/h (5 Bft) 96,43 %
10.02.2017 18:22 1,0 C 85 % 1020,5 hPa 0,0 l/m 22,7 km/h (4 Bft) NO 53 0 min 0,000 mm 0,0 UV-I 0 W/m -1,2 C -9,5 C 37,0 km/h (5 Bft) 95,45 %
10.02.2017 18:24 0,9 C 85 % 1020,5 hPa 0,0 l/m 21,6 km/h (4 Bft) O-NO 64 0 min 0,000 mm 0,0 UV-I 0 W/m -1,3 C -9,2 C 32,2 km/h (5 Bft) 96,00 %
10.02.2017 18:26 0,9 C 85 % 1020,5 hPa 0,0 l/m 28,4 km/h (4 Bft) NO 48 0 min 0,000 mm 0,0 UV-I 0 W/m -1,3 C -11,7 C 41,8 km/h (6 Bft) 100,00 %
10.02.2017 18:28 0,9 C 85 % 1020,4 hPa 0,0 l/m 25,7 km/h (4 Bft) NO 48 0 min 0,000 mm 0,0 UV-I 0 W/m -1,3 C -10,7 C 35,4 km/h (5 Bft) 94,87 %
10.02.2017 18:30 0,9 C 84 % 1020,5 hPa 0,0 l/m 27,5 km/h (4 Bft) O-NO 76 0 min 0,000 mm 0,0 UV-I 0 W/m -1,5 C -11,4 C 37,0 km/h (5 Bft) 95,45 %
10.02.2017 18:32 0,9 C 84 % 1020,6 hPa 0,0 l/m 23,6 km/h (4 Bft) O-NO 57 0 min 0,000 mm 0,0 UV-I 0 W/m -1,5 C -10,0 C 35,4 km/h (5 Bft) 100,00 %
10.02.2017 18:34 0,9 C 84 % 1020,5 hPa 0,0 l/m 26,3 km/h (4 Bft) O 86 0 min 0,000 mm 0,0 UV-I 0 W/m -1,5 C -11,0 C 32,2 km/h (5 Bft) 97,73 %
10.02.2017 18:36 0,9 C 84 % 1020,5 hPa 0,0 l/m 28,2 km/h (4 Bft) O-NO 65 0 min 0,000 mm 0,0 UV-I 0 W/m -1,5 C -11,6 C 45,1 km/h (6 Bft) 97,87 %
10.02.2017 18:38 0,9 C 84 % 1020,5 hPa 0,0 l/m 22,7 km/h (4 Bft) NO 51 0 min 0,000 mm 0,0 UV-I 0 W/m -1,5 C -9,6 C 30,6 km/h (5 Bft) 95,92 %
10.02.2017 18:40 0,9 C 84 % 1020,5 hPa 0,0 l/m 25,3 km/h (4 Bft) O-NO 65 0 min 0,000 mm 0,0 UV-I 0 W/m -1,5 C -10,6 C 35,4 km/h (5 Bft) 95,74 %
10.02.2017 18:42 0,9 C 84 % 1020,5 hPa 0,0 l/m 24,2 km/h (4 Bft) O-NO 71 0 min 0,000 mm 0,0 UV-I 0 W/m -1,5 C -10,2 C 32,2 km/h (5 Bft) 95,45 %
10.02.2017 18:44 0,9 C 84 % 1020,5 hPa 0,0 l/m 25,3 km/h (4 Bft) O 97 0 min 0,000 mm 0,0 UV-I 0 W/m -1,5 C -10,6 C 33,8 km/h (5 Bft) 97,56 %
10.02.2017 18:46 0,9 C 84 % 1020,5 hPa 0,0 l/m 21,1 km/h (4 Bft) O-NO 77 0 min 0,000 mm 0,0 UV-I 0 W/m -1,5 C -9,0 C 30,6 km/h (5 Bft) 94,64 %
10.02.2017 18:48 0,9 C 84 % 1020,5 hPa 0,0 l/m 19,2 km/h (3 Bft) O-NO 65 0 min 0,000 mm 0,0 UV-I 0 W/m -1,5 C -8,1 C 29,0 km/h (5 Bft) 97,37 %
10.02.2017 18:50 0,9 C 84 % 1020,5 hPa 0,0 l/m 19,3 km/h (3 Bft) O-NO 71 0 min 0,000 mm 0,0 UV-I 0 W/m -1,5 C -8,1 C 25,7 km/h (4 Bft) 92,00 %
10.02.2017 18:52 0,8 C 84 % 1020,6 hPa 0,0 l/m 20,7 km/h (4 Bft) NO 50 0 min 0,000 mm 0,0 UV-I 0 W/m -1,6 C -8,9 C 29,0 km/h (5 Bft) 92,00 %
10.02.2017 18:54 0,8 C 84 % 1020,6 hPa 0,0 l/m 17,0 km/h (3 Bft) O-NO 61 0 min 0,000 mm 0,0 UV-I 0 W/m -1,6 C -7,1 C 24,1 km/h (4 Bft) 97,14 %
10.02.2017 18:56 0,7 C 84 % 1020,6 hPa 0,0 l/m 16,3 km/h (3 Bft) O-NO 74 0 min 0,000 mm 0,0 UV-I 0 W/m -1,7 C -6,9 C 22,5 km/h (4 Bft) 94,34 %
10.02.2017 18:58 0,7 C 84 % 1020,6 hPa 0,0 l/m 16,2 km/h (3 Bft) O-NO 67 0 min 0,000 mm 0,0 UV-I 0 W/m -1,7 C -6,8 C 20,9 km/h (4 Bft) 92,68 %
10.02.2017 19:00 0,7 C 84 % 1020,6 hPa 0,0 l/m 17,7 km/h (3 Bft) O-NO 62 0 min 0,000 mm 0,0 UV-I 0 W/m -1,7 C -7,6 C 22,5 km/h (4 Bft) 93,22 %
10.02.2017 19:02 0,6 C 85 % 1020,6 hPa 0,0 l/m 17,3 km/h (3 Bft) O-NO 78 0 min 0,025 mm 0,0 UV-I 0 W/m -1,6 C -7,5 C 22,5 km/h (4 Bft) 87,80 %
10.02.2017 19:04 0,6 C 85 % 1020,7 hPa 0,0 l/m 17,6 km/h (3 Bft) O 79 0 min 0,000 mm 0,0 UV-I 0 W/m -1,6 C -7,7 C 25,7 km/h (4 Bft) 89,36 %
10.02.2017 19:06 0,6 C 85 % 1020,7 hPa 0,0 l/m 17,3 km/h (3 Bft) O 90 0 min 0,000 mm 0,0 UV-I 0 W/m -1,6 C -7,5 C 22,5 km/h (4 Bft) 92,00 %
10.02.2017 19:08 0,6 C 85 % 1020,7 hPa 0,0 l/m 17,2 km/h (3 Bft) O-NO 66 0 min 0,000 mm 0,0 UV-I 0 W/m -1,6 C -7,5 C 20,9 km/h (4 Bft) 94,00 %
10.02.2017 19:10 0,6 C 85 % 1020,7 hPa 0,0 l/m 14,2 km/h (3 Bft) O 80 0 min 0,000 mm 0,0 UV-I 0 W/m -1,6 C -5,8 C 20,9 km/h (4 Bft) 95,24 %
10.02.2017 19:12 0,5 C 85 % 1020,7 hPa 0,0 l/m 18,4 km/h (3 Bft) O 88 0 min 0,000 mm 0,0 UV-I 0 W/m -1,7 C -8,2 C 25,7 km/h (4 Bft) 93,18 %
10.02.2017 19:14 0,6 C 85 % 1020,6 hPa 0,0 l/m 15,6 km/h (3 Bft) O-NO 72 0 min 0,000 mm 0,0 UV-I 0 W/m -1,6 C -6,6 C 20,9 km/h (4 Bft) 94,12 %
10.02.2017 19:16 0,5 C 85 % 1020,6 hPa 0,0 l/m 19,8 km/h (3 Bft) NO 55 0 min 0,000 mm 0,0 UV-I 0 W/m -1,7 C -8,9 C 27,4 km/h (4 Bft) 88,00 %
10.02.2017 19:18 0,5 C 85 % 1020,6 hPa 0,0 l/m 21,6 km/h (4 Bft) O 86 0 min 0,000 mm 0,0 UV-I 0 W/m -1,7 C -9,7 C 27,4 km/h (4 Bft) 97,56 %
10.02.2017 19:20 0,5 C 85 % 1020,7 hPa 0,0 l/m 15,8 km/h (3 Bft) O-NO 58 0 min 0,000 mm 0,0 UV-I 0 W/m -1,7 C -6,8 C 20,9 km/h (4 Bft) 94,34 %
10.02.2017 19:22 0,4 C 85 % 1020,6 hPa 0,0 l/m 16,5 km/h (3 Bft) O-NO 73 0 min 0,000 mm 0,0 UV-I 0 W/m -1,8 C -7,4 C 20,9 km/h (4 Bft) 97,37 %
10.02.2017 19:24 0,4 C 85 % 1020,7 hPa 0,0 l/m 17,3 km/h (3 Bft) NO 47 0 min 0,000 mm 0,0 UV-I 0 W/m -1,8 C -7,8 C 25,7 km/h (4 Bft) 92,31 %
10.02.2017 19:26 0,4 C 85 % 1020,7 hPa 0,0 l/m 18,1 km/h (3 Bft) O-NO 78 0 min 0,000 mm 0,0 UV-I 0 W/m -1,8 C -8,2 C 29,0 km/h (5 Bft) 94,64 %
10.02.2017 19:28 0,4 C 85 % 1020,7 hPa 0,0 l/m 19,1 km/h (3 Bft) O 82 0 min 0,000 mm 0,0 UV-I 0 W/m -1,8 C -8,7 C 25,7 km/h (4 Bft) 90,57 %
10.02.2017 19:30 0,4 C 85 % 1020,7 hPa 0,0 l/m 15,8 km/h (3 Bft) O-NO 69 0 min 0,000 mm 0,0 UV-I 0 W/m -1,8 C -7,0 C 22,5 km/h (4 Bft) 97,37 %
10.02.2017 19:32 0,4 C 85 % 1020,7 hPa 0,0 l/m 18,3 km/h (3 Bft) NO 55 0 min 0,000 mm 0,0 UV-I 0 W/m -1,8 C -8,3 C 22,5 km/h (4 Bft) 98,21 %
10.02.2017 19:34 0,4 C 85 % 1020,7 hPa 0,0 l/m 16,8 km/h (3 Bft) O-NO 64 0 min 0,000 mm 0,0 UV-I 0 W/m -1,8 C -7,5 C 22,5 km/h (4 Bft) 90,48 %
10.02.2017 19:36 0,4 C 85 % 1020,7 hPa 0,0 l/m 17,1 km/h (3 Bft) O-NO 67 0 min 0,000 mm 0,0 UV-I 0 W/m -1,8 C -7,7 C 22,5 km/h (4 Bft) 96,00 %
10.02.2017 19:38 0,4 C 85 % 1020,6 hPa 0,0 l/m 15,7 km/h (3 Bft) O-NO 63 0 min 0,000 mm 0,0 UV-I 0 W/m -1,8 C -6,9 C 19,3 km/h (3 Bft) 96,23 %
10.02.2017 19:40 0,3 C 85 % 1020,6 hPa 0,0 l/m 21,1 km/h (4 Bft) O-NO 78 0 min 0,000 mm 0,0 UV-I 0 W/m -1,9 C -9,7 C 30,6 km/h (5 Bft) 88,57 %
10.02.2017 19:42 0,3 C 85 % 1020,5 hPa 0,0 l/m 21,7 km/h (4 Bft) O-NO 67 0 min 0,000 mm 0,0 UV-I 0 W/m -1,9 C -10,0 C 32,2 km/h (5 Bft) 94,34 %
10.02.2017 19:44 0,3 C 85 % 1020,5 hPa 0,0 l/m 18,4 km/h (3 Bft) O-NO 63 0 min 0,000 mm 0,0 UV-I 0 W/m -1,9 C -8,5 C 25,7 km/h (4 Bft) 95,12 %
10.02.2017 19:46 0,3 C 85 % 1020,5 hPa 0,0 l/m 20,7 km/h (4 Bft) O 84 0 min 0,000 mm 0,0 UV-I 0 W/m -1,9 C -9,6 C 30,6 km/h (5 Bft) 100,00 %
10.02.2017 19:48 0,3 C 85 % 1020,5 hPa 0,0 l/m 22,8 km/h (4 Bft) NO 56 0 min 0,000 mm 0,0 UV-I 0 W/m -1,9 C -10,5 C 30,6 km/h (5 Bft) 88,89 %
10.02.2017 19:50 0,3 C 85 % 1020,5 hPa 0,0 l/m 21,9 km/h (4 Bft) NO 41 0 min 0,000 mm 0,0 UV-I 0 W/m -1,9 C -10,1 C 30,6 km/h (5 Bft) 98,08 %
10.02.2017 19:52 0,4 C 85 % 1020,5 hPa 0,0 l/m 20,0 km/h (4 Bft) O-NO 65 0 min 0,000 mm 0,0 UV-I 0 W/m -1,8 C -9,1 C 25,7 km/h (4 Bft) 97,22 %
10.02.2017 19:54 0,3 C 85 % 1020,5 hPa 0,0 l/m 20,4 km/h (4 Bft) NO 40 0 min 0,000 mm 0,0 UV-I 0 W/m -1,9 C -9,4 C 25,7 km/h (4 Bft) 94,00 %
10.02.2017 19:56 0,3 C 85 % 1020,4 hPa 0,0 l/m 22,0 km/h (4 Bft) NO 43 0 min 0,000 mm 0,0 UV-I 0 W/m -1,9 C -10,1 C 29,0 km/h (5 Bft) 91,07 %
10.02.2017 19:58 0,3 C 85 % 1020,4 hPa 0,0 l/m 19,0 km/h (3 Bft) O-NO 61 0 min 0,000 mm 0,0 UV-I 0 W/m -1,9 C -8,8 C 27,4 km/h (4 Bft) 95,74 %
10.02.2017 20:00 0,3 C 85 % 1020,4 hPa 0,0 l/m 18,8 km/h (3 Bft) NO 53 0 min 0,000 mm 0,0 UV-I 0 W/m -1,9 C -8,7 C 25,7 km/h (4 Bft) 97,14 %
10.02.2017 20:02 0,3 C 85 % 1020,4 hPa 0,0 l/m 22,1 km/h (4 Bft) NO 37 0 min 0,025 mm 0,0 UV-I 0 W/m -1,9 C -10,2 C 27,4 km/h (4 Bft) 100,00 %
10.02.2017 20:04 0,3 C 85 % 1020,5 hPa 0,0 l/m 22,4 km/h (4 Bft) NO 44 0 min 0,000 mm 0,0 UV-I 0 W/m -1,9 C -10,3 C 32,2 km/h (5 Bft) 94,64 %
10.02.2017 20:06 0,3 C 85 % 1020,5 hPa 0,0 l/m 20,7 km/h (4 Bft) O 82 0 min 0,000 mm 0,0 UV-I 0 W/m -1,9 C -9,6 C 27,4 km/h (4 Bft) 92,68 %
10.02.2017 20:08 0,3 C 85 % 1020,6 hPa 0,0 l/m 18,2 km/h (3 Bft) O-NO 70 0 min 0,000 mm 0,0 UV-I 0 W/m -1,9 C -8,4 C 27,4 km/h (4 Bft) 95,74 %
10.02.2017 20:10 0,2 C 85 % 1020,7 hPa 0,0 l/m 18,5 km/h (3 Bft) O-NO 65 0 min 0,000 mm 0,0 UV-I 0 W/m -2,0 C -8,7 C 25,7 km/h (4 Bft) 100,00 %
10.02.2017 20:12 0,2 C 85 % 1020,7 hPa 0,0 l/m 21,0 km/h (4 Bft) O-NO 65 0 min 0,000 mm 0,0 UV-I 0 W/m -2,0 C -9,8 C 29,0 km/h (5 Bft) 93,62 %
10.02.2017 20:14 0,2 C 85 % 1020,6 hPa 0,0 l/m 21,1 km/h (4 Bft) O-NO 63 0 min 0,000 mm 0,0 UV-I 0 W/m -2,0 C -9,9 C 30,6 km/h (5 Bft) 94,34 %
10.02.2017 20:16 0,2 C 85 % 1020,7 hPa 0,0 l/m 20,1 km/h (4 Bft) O 83 0 min 0,000 mm 0,0 UV-I 0 W/m -2,0 C -9,4 C 27,4 km/h (4 Bft) 89,47 %
10.02.2017 20:18 0,2 C 85 % 1020,7 hPa 0,0 l/m 16,6 km/h (3 Bft) O 81 0 min 0,000 mm 0,0 UV-I 0 W/m -2,0 C -7,7 C 25,7 km/h (4 Bft) 96,43 %
10.02.2017 20:20 0,2 C 85 % 1020,8 hPa 0,0 l/m 19,9 km/h (4 Bft) O-NO 67 0 min 0,000 mm 0,0 UV-I 0 W/m -2,0 C -9,3 C 27,4 km/h (4 Bft) 97,56 %
10.02.2017 20:22 0,2 C 85 % 1020,8 hPa 0,0 l/m 18,9 km/h (3 Bft) O-NO 78 0 min 0,000 mm 0,0 UV-I 0 W/m -2,0 C -8,8 C 29,0 km/h (5 Bft) 98,00 %
10.02.2017 20:24 0,2 C 85 % 1020,8 hPa 0,0 l/m 17,0 km/h (3 Bft) O-NO 59 0 min 0,000 mm 0,0 UV-I 0 W/m -2,0 C -7,9 C 25,7 km/h (4 Bft) 100,00 %
10.02.2017 20:26 0,1 C 85 % 1020,8 hPa 0,0 l/m 12,4 km/h (3 Bft) O 79 0 min 0,000 mm 0,0 UV-I 0 W/m -2,1 C -5,2 C 17,7 km/h (3 Bft) 93,75 %
10.02.2017 20:28 0,1 C 85 % 1020,8 hPa 0,0 l/m 15,3 km/h (3 Bft) O-NO 59 0 min 0,000 mm 0,0 UV-I 0 W/m -2,1 C -7,0 C 19,3 km/h (3 Bft) 96,23 %
10.02.2017 20:30 0,1 C 86 % 1020,9 hPa 0,0 l/m 19,5 km/h (3 Bft) O-NO 73 0 min 0,000 mm 0,0 UV-I 0 W/m -2,0 C -9,3 C 27,4 km/h (4 Bft) 94,87 %
10.02.2017 20:32 0,1 C 86 % 1020,9 hPa 0,0 l/m 17,7 km/h (3 Bft) NO 47 0 min 0,000 mm 0,0 UV-I 0 W/m -2,0 C -8,4 C 24,1 km/h (4 Bft) 94,34 %
10.02.2017 20:34 0,1 C 86 % 1020,9 hPa 0,0 l/m 19,0 km/h (3 Bft) O-NO 60 0 min 0,000 mm 0,0 UV-I 0 W/m -2,0 C -9,0 C 27,4 km/h (4 Bft) 94,00 %
10.02.2017 20:36 0,1 C 85 % 1020,8 hPa 0,0 l/m 17,0 km/h (3 Bft) NO 49 0 min 0,000 mm 0,0 UV-I 0 W/m -2,1 C -8,0 C 25,7 km/h (4 Bft) 94,74 %
10.02.2017 20:38 0,1 C 85 % 1020,9 hPa 0,0 l/m 17,1 km/h (3 Bft) NO 50 0 min 0,000 mm 0,0 UV-I 0 W/m -2,1 C -8,1 C 20,9 km/h (4 Bft) 95,74 %
10.02.2017 20:40 0,0 C 85 % 1020,9 hPa 0,0 l/m 17,4 km/h (3 Bft) O-NO 58 0 min 0,000 mm 0,0 UV-I 0 W/m -2,2 C -8,3 C 24,1 km/h (4 Bft) 96,00 %
10.02.2017 20:42 0,0 C 85 % 1020,8 hPa 0,0 l/m 18,7 km/h (3 Bft) O-NO 77 0 min 0,000 mm 0,0 UV-I 0 W/m -2,2 C -9,0 C 24,1 km/h (4 Bft) 96,00 %
10.02.2017 20:44 0,0 C 86 % 1020,9 hPa 0,0 l/m 16,4 km/h (3 Bft) O-NO 61 0 min 0,000 mm 0,0 UV-I 0 W/m -2,1 C -7,8 C 22,5 km/h (4 Bft) 86,36 %
10.02.2017 20:46 -0,1 C 86 % 1020,8 hPa 0,0 l/m 17,4 km/h (3 Bft) NO 40 0 min 0,000 mm 0,0 UV-I 0 W/m -2,2 C -8,5 C 22,5 km/h (4 Bft) 97,67 %
10.02.2017 20:48 -0,1 C 85 % 1020,8 hPa 0,0 l/m 18,0 km/h (3 Bft) NO 53 0 min 0,000 mm 0,0 UV-I 0 W/m -2,3 C -8,8 C 22,5 km/h (4 Bft) 94,34 %
10.02.2017 20:50 -0,1 C 86 % 1020,8 hPa 0,0 l/m 16,1 km/h (3 Bft) NO 42 0 min 0,000 mm 0,0 UV-I 0 W/m -2,2 C -7,7 C 22,5 km/h (4 Bft) 92,68 %
10.02.2017 20:52 -0,1 C 86 % 1020,8 hPa 0,0 l/m 17,3 km/h (3 Bft) O-NO 77 0 min 0,000 mm 0,0 UV-I 0 W/m -2,2 C -8,4 C 22,5 km/h (4 Bft) 91,49 %
10.02.2017 20:54 -0,1 C 86 % 1020,8 hPa 0,0 l/m 18,1 km/h (3 Bft) O-NO 73 0 min 0,000 mm 0,0 UV-I 0 W/m -2,2 C -8,8 C 25,7 km/h (4 Bft) 89,36 %
10.02.2017 20:56 -0,2 C 86 % 1020,7 hPa 0,0 l/m 18,4 km/h (3 Bft) O-NO 76 0 min 0,000 mm 0,0 UV-I 0 W/m -2,3 C -9,1 C 25,7 km/h (4 Bft) 92,86 %
10.02.2017 20:58 -0,2 C 86 % 1020,7 hPa 0,0 l/m 16,5 km/h (3 Bft) NO 52 0 min 0,000 mm 0,0 UV-I 0 W/m -2,3 C -8,1 C 20,9 km/h (4 Bft) 96,67 %
10.02.2017 21:00 -0,2 C 86 % 1020,7 hPa 0,0 l/m 18,1 km/h (3 Bft) O-NO 57 0 min 0,026 mm 0,0 UV-I 0 W/m -2,3 C -9,0 C 24,1 km/h (4 Bft) 96,15 %
10.02.2017 21:02 -0,2 C 86 % 1020,8 hPa 0,0 l/m 17,2 km/h (3 Bft) O-NO 61 0 min 0,000 mm 0,0 UV-I 0 W/m -2,3 C -8,5 C 24,1 km/h (4 Bft) 92,86 %
10.02.2017 21:04 -0,2 C 86 % 1020,8 hPa 0,0 l/m 14,1 km/h (3 Bft) O-NO 59 0 min 0,000 mm 0,0 UV-I 0 W/m -2,3 C -6,7 C 19,3 km/h (3 Bft) 94,00 %
10.02.2017 21:06 -0,2 C 86 % 1020,8 hPa 0,0 l/m 18,3 km/h (3 Bft) NO 44 0 min 0,000 mm 0,0 UV-I 0 W/m -2,3 C -9,1 C 24,1 km/h (4 Bft) 95,12 %
10.02.2017 21:08 -0,2 C 86 % 1020,8 hPa 0,0 l/m 14,8 km/h (3 Bft) O-NO 68 0 min 0,000 mm 0,0 UV-I 0 W/m -2,3 C -7,1 C 19,3 km/h (3 Bft) 95,74 %
10.02.2017 21:10 -0,3 C 86 % 1020,8 hPa 0,0 l/m 15,4 km/h (3 Bft) O-NO 63 0 min 0,000 mm 0,0 UV-I 0 W/m -2,3 C -7,6 C 22,5 km/h (4 Bft) 97,22 %
10.02.2017 21:12 -0,3 C 86 % 1020,9 hPa 0,0 l/m 15,4 km/h (3 Bft) O-NO 73 0 min 0,000 mm 0,0 UV-I 0 W/m -2,3 C -7,6 C 20,9 km/h (4 Bft) 95,16 %
10.02.2017 21:14 -0,3 C 86 % 1020,9 hPa 0,0 l/m 10,7 km/h (2 Bft) O 82 0 min 0,000 mm 0,0 UV-I 0 W/m -2,3 C -4,4 C 17,7 km/h (3 Bft) 97,56 %
10.02.2017 21:16 -0,4 C 86 % 1020,9 hPa 0,0 l/m 11,1 km/h (2 Bft) O 90 0 min 0,000 mm 0,0 UV-I 0 W/m -2,4 C -4,8 C 16,1 km/h (3 Bft) 96,23 %
10.02.2017 21:18 -0,4 C 86 % 1020,9 hPa 0,0 l/m 10,1 km/h (2 Bft) O-NO 78 0 min 0,000 mm 0,0 UV-I 0 W/m -2,4 C -4,0 C 17,7 km/h (3 Bft) 97,37 %
10.02.2017 21:20 -0,5 C 86 % 1020,9 hPa 0,0 l/m 13,0 km/h (3 Bft) O-NO 74 0 min 0,000 mm 0,0 UV-I 0 W/m -2,5 C -6,3 C 17,7 km/h (3 Bft) 95,74 %
10.02.2017 21:22 -0,5 C 86 % 1020,9 hPa 0,0 l/m 13,4 km/h (3 Bft) O-NO 57 0 min 0,000 mm 0,0 UV-I 0 W/m -2,5 C -6,6 C 19,3 km/h (3 Bft) 97,87 %
10.02.2017 21:24 -0,6 C 87 % 1021,0 hPa 0,0 l/m 11,9 km/h (2 Bft) O-NO 69 0 min 0,000 mm 0,0 UV-I 0 W/m -2,5 C -5,6 C 17,7 km/h (3 Bft) 96,00 %
10.02.2017 21:26 -0,6 C 87 % 1021,0 hPa 0,0 l/m 11,4 km/h (2 Bft) O-NO 70 0 min 0,000 mm 0,0 UV-I 0 W/m -2,5 C -5,2 C 17,7 km/h (3 Bft) 97,56 %
10.02.2017 21:28 -0,7 C 87 % 1021,1 hPa 0,0 l/m 9,7 km/h (2 Bft) O-NO 70 0 min 0,000 mm 0,0 UV-I 0 W/m -2,6 C -4,0 C 16,1 km/h (3 Bft) 96,00 %
10.02.2017 21:30 -0,7 C 87 % 1021,1 hPa 0,0 l/m 9,0 km/h (2 Bft) O 85 0 min 0,000 mm 0,0 UV-I 0 W/m -2,6 C -3,3 C 14,5 km/h (3 Bft) 94,34 %
10.02.2017 21:32 -0,7 C 87 % 1021,2 hPa 0,0 l/m 9,2 km/h (2 Bft) O 79 0 min 0,000 mm 0,0 UV-I 0 W/m -2,6 C -3,5 C 12,9 km/h (3 Bft) 100,00 %
10.02.2017 21:34 -0,7 C 87 % 1021,1 hPa 0,0 l/m 9,8 km/h (2 Bft) O-NO 64 0 min 0,000 mm 0,0 UV-I 0 W/m -2,6 C -4,1 C 16,1 km/h (3 Bft) 94,64 %
10.02.2017 21:36 -0,7 C 87 % 1021,2 hPa 0,0 l/m 12,9 km/h (3 Bft) NO 40 0 min 0,000 mm 0,0 UV-I 0 W/m -2,6 C -6,5 C 22,5 km/h (4 Bft) 98,00 %
10.02.2017 21:38 -0,7 C 87 % 1021,2 hPa 0,0 l/m 11,5 km/h (2 Bft) O-NO 77 0 min 0,000 mm 0,0 UV-I 0 W/m -2,6 C -5,4 C 16,1 km/h (3 Bft) 96,00 %
10.02.2017 21:40 -0,7 C 87 % 1021,2 hPa 0,0 l/m 12,2 km/h (2 Bft) O-NO 63 0 min 0,000 mm 0,0 UV-I 0 W/m -2,6 C -6,0 C 16,1 km/h (3 Bft) 88,57 %
10.02.2017 21:42 -0,7 C 87 % 1021,1 hPa 0,0 l/m 12,0 km/h (2 Bft) NO 51 0 min 0,000 mm 0,0 UV-I 0 W/m -2,6 C -5,8 C 17,7 km/h (3 Bft) 96,23 %
10.02.2017 21:44 -0,6 C 87 % 1021,1 hPa 0,0 l/m 12,9 km/h (3 Bft) O-NO 72 0 min 0,000 mm 0,0 UV-I 0 W/m -2,5 C -6,3 C 17,7 km/h (3 Bft) 92,86 %
10.02.2017 21:46 -0,6 C 87 % 1021,1 hPa 0,0 l/m 10,9 km/h (2 Bft) O-NO 69 0 min 0,000 mm 0,0 UV-I 0 W/m -2,5 C -4,9 C 14,5 km/h (3 Bft) 90,91 %
10.02.2017 21:48 -0,7 C 87 % 1021,1 hPa 0,0 l/m 14,6 km/h (3 Bft) O-NO 69 0 min 0,000 mm 0,0 UV-I 0 W/m -2,6 C -7,6 C 22,5 km/h (4 Bft) 95,24 %
10.02.2017 21:50 -0,7 C 87 % 1021,0 hPa 0,0 l/m 15,6 km/h (3 Bft) O-NO 67 0 min 0,000 mm 0,0 UV-I 0 W/m -2,6 C -8,2 C 19,3 km/h (3 Bft) 94,00 %
10.02.2017 21:52 -0,7 C 87 % 1021,0 hPa 0,0 l/m 15,6 km/h (3 Bft) NO 50 0 min 0,000 mm 0,0 UV-I 0 W/m -2,6 C -8,2 C 20,9 km/h (4 Bft) 93,62 %
10.02.2017 21:54 -0,7 C 87 % 1021,0 hPa 0,0 l/m 15,2 km/h (3 Bft) NO 55 0 min 0,000 mm 0,0 UV-I 0 W/m -2,6 C -8,0 C 19,3 km/h (3 Bft) 97,56 %
10.02.2017 21:56 -0,7 C 87 % 1021,1 hPa 0,0 l/m 13,8 km/h (3 Bft) O-NO 76 0 min 0,000 mm 0,0 UV-I 0 W/m -2,6 C -7,1 C 16,1 km/h (3 Bft) 94,34 %
10.02.2017 21:58 -0,7 C 87 % 1021,0 hPa 0,0 l/m 14,9 km/h (3 Bft) NO 53 0 min 0,000 mm 0,0 UV-I 0 W/m -2,6 C -7,8 C 20,9 km/h (4 Bft) 90,24 %
10.02.2017 22:00 -0,7 C 87 % 1021,0 hPa 0,0 l/m 16,3 km/h (3 Bft) O-NO 61 0 min 0,000 mm 0,0 UV-I 0 W/m -2,6 C -8,6 C 20,9 km/h (4 Bft) 96,43 %
10.02.2017 22:02 -0,8 C 87 % 1020,9 hPa 0,0 l/m 18,3 km/h (3 Bft) O 79 0 min 0,025 mm 0,0 UV-I 0 W/m -2,7 C -9,8 C 25,7 km/h (4 Bft) 94,74 %
10.02.2017 22:04 -0,8 C 87 % 1020,9 hPa 0,0 l/m 18,7 km/h (3 Bft) O 87 0 min 0,000 mm 0,0 UV-I 0 W/m -2,7 C -10,0 C 24,1 km/h (4 Bft) 93,62 %
10.02.2017 22:06 -0,8 C 87 % 1020,9 hPa 0,0 l/m 19,4 km/h (3 Bft) O-NO 74 0 min 0,000 mm 0,0 UV-I 0 W/m -2,7 C -10,4 C 25,7 km/h (4 Bft) 98,00 %
10.02.2017 22:08 -0,8 C 87 % 1020,9 hPa 0,0 l/m 18,9 km/h (3 Bft) O 85 0 min 0,000 mm 0,0 UV-I 0 W/m -2,7 C -10,1 C 24,1 km/h (4 Bft) 96,23 %
10.02.2017 22:10 -0,8 C 87 % 1020,9 hPa 0,0 l/m 19,0 km/h (3 Bft) O-NO 63 0 min 0,000 mm 0,0 UV-I 0 W/m -2,7 C -10,2 C 25,7 km/h (4 Bft) 100,00 %
10.02.2017 22:12 -0,8 C 87 % 1021,0 hPa 0,0 l/m 18,6 km/h (3 Bft) NO 49 0 min 0,000 mm 0,0 UV-I 0 W/m -2,7 C -10,0 C 29,0 km/h (5 Bft) 96,00 %
10.02.2017 22:14 -0,8 C 87 % 1021,0 hPa 0,0 l/m 16,2 km/h (3 Bft) O-NO 78 0 min 0,000 mm 0,0 UV-I 0 W/m -2,7 C -8,7 C 22,5 km/h (4 Bft) 94,74 %
10.02.2017 22:16 -0,8 C 87 % 1021,0 hPa 0,0 l/m 15,1 km/h (3 Bft) O 83 0 min 0,000 mm 0,0 UV-I 0 W/m -2,7 C -8,0 C 22,5 km/h (4 Bft) 94,00 %
10.02.2017 22:18 -0,8 C 87 % 1021,0 hPa 0,0 l/m 17,3 km/h (3 Bft) O-NO 65 0 min 0,000 mm 0,0 UV-I 0 W/m -2,7 C -9,3 C 20,9 km/h (4 Bft) 100,00 %
10.02.2017 22:20 -0,8 C 87 % 1021,1 hPa 0,0 l/m 16,1 km/h (3 Bft) O-NO 69 0 min 0,000 mm 0,0 UV-I 0 W/m -2,7 C -8,6 C 20,9 km/h (4 Bft) 95,74 %
10.02.2017 22:22 -0,8 C 87 % 1021,1 hPa 0,0 l/m 13,7 km/h (3 Bft) O-NO 72 0 min 0,000 mm 0,0 UV-I 0 W/m -2,7 C -7,1 C 19,3 km/h (3 Bft) 100,00 %
10.02.2017 22:24 -0,8 C 87 % 1021,2 hPa 0,0 l/m 14,1 km/h (3 Bft) O-NO 64 0 min 0,000 mm 0,0 UV-I 0 W/m -2,7 C -7,4 C 19,3 km/h (3 Bft) 100,00 %
10.02.2017 22:26 -0,8 C 87 % 1021,2 hPa 0,0 l/m 16,2 km/h (3 Bft) NO 42 0 min 0,000 mm 0,0 UV-I 0 W/m -2,7 C -8,7 C 20,9 km/h (4 Bft) 97,62 %
10.02.2017 22:28 -0,8 C 87 % 1021,1 hPa 0,0 l/m 14,4 km/h (3 Bft) O-SO 105 0 min 0,000 mm 0,0 UV-I 0 W/m -2,7 C -7,6 C 20,9 km/h (4 Bft) 96,36 %
10.02.2017 22:30 -0,8 C 87 % 1021,2 hPa 0,0 l/m 16,2 km/h (3 Bft) O-NO 63 0 min 0,000 mm 0,0 UV-I 0 W/m -2,7 C -8,7 C 20,9 km/h (4 Bft) 95,24 %
10.02.2017 22:32 -0,8 C 87 % 1021,1 hPa 0,0 l/m 13,1 km/h (3 Bft) NO 52 0 min 0,000 mm 0,0 UV-I 0 W/m -2,7 C -6,7 C 17,7 km/h (3 Bft) 96,23 %
10.02.2017 22:34 -0,8 C 87 % 1021,1 hPa 0,0 l/m 15,5 km/h (3 Bft) O-NO 63 0 min 0,000 mm 0,0 UV-I 0 W/m -2,7 C -8,3 C 20,9 km/h (4 Bft) 97,37 %
10.02.2017 22:36 -0,8 C 87 % 1021,1 hPa 0,0 l/m 15,4 km/h (3 Bft) O-NO 74 0 min 0,000 mm 0,0 UV-I 0 W/m -2,7 C -8,2 C 22,5 km/h (4 Bft) 98,11 %
10.02.2017 22:38 -0,8 C 87 % 1021,1 hPa 0,0 l/m 16,1 km/h (3 Bft) O-NO 64 0 min 0,000 mm 0,0 UV-I 0 W/m -2,7 C -8,6 C 25,7 km/h (4 Bft) 95,45 %
10.02.2017 22:40 -0,8 C 87 % 1021,1 hPa 0,0 l/m 17,4 km/h (3 Bft) NO 44 0 min 0,000 mm 0,0 UV-I 0 W/m -2,7 C -9,3 C 22,5 km/h (4 Bft) 97,37 %
10.02.2017 22:42 -0,8 C 87 % 1021,1 hPa 0,0 l/m 15,8 km/h (3 Bft) O-NO 73 0 min 0,000 mm 0,0 UV-I 0 W/m -2,7 C -8,4 C 20,9 km/h (4 Bft) 96,43 %
10.02.2017 22:44 -0,8 C 87 % 1021,0 hPa 0,0 l/m 16,7 km/h (3 Bft) O-NO 59 0 min 0,000 mm 0,0 UV-I 0 W/m -2,7 C -9,0 C 22,5 km/h (4 Bft) 97,73 %
10.02.2017 22:46 -0,8 C 87 % 1021,0 hPa 0,0 l/m 15,5 km/h (3 Bft) O-NO 67 0 min 0,000 mm 0,0 UV-I 0 W/m -2,7 C -8,3 C 19,3 km/h (3 Bft) 96,08 %
10.02.2017 22:48 -0,8 C 87 % 1021,0 hPa 0,0 l/m 16,0 km/h (3 Bft) O-NO 61 0 min 0,000 mm 0,0 UV-I 0 W/m -2,7 C -8,6 C 22,5 km/h (4 Bft) 91,49 %
10.02.2017 22:50 -0,8 C 87 % 1021,0 hPa 0,0 l/m 13,2 km/h (3 Bft) O-NO 58 0 min 0,000 mm 0,0 UV-I 0 W/m -2,7 C -6,8 C 17,7 km/h (3 Bft) 96,00 %
10.02.2017 22:52 -0,9 C 87 % 1021,0 hPa 0,0 l/m 13,5 km/h (3 Bft) NO 51 0 min 0,000 mm 0,0 UV-I 0 W/m -2,8 C -7,1 C 20,9 km/h (4 Bft) 97,37 %
10.02.2017 22:54 -0,9 C 87 % 1021,1 hPa 0,0 l/m 11,3 km/h (2 Bft) O-NO 69 0 min 0,000 mm 0,0 UV-I 0 W/m -2,8 C -5,5 C 16,1 km/h (3 Bft) 95,74 %
10.02.2017 22:56 -0,9 C 87 % 1021,2 hPa 0,0 l/m 10,1 km/h (2 Bft) O-NO 63 0 min 0,000 mm 0,0 UV-I 0 W/m -2,8 C -4,5 C 16,1 km/h (3 Bft) 95,74 %
10.02.2017 22:58 -0,9 C 88 % 1021,2 hPa 0,0 l/m 11,5 km/h (2 Bft) O-NO 65 0 min 0,000 mm 0,0 UV-I 0 W/m -2,6 C -5,7 C 17,7 km/h (3 Bft) 94,64 %
10.02.2017 23:00 -0,9 C 88 % 1021,2 hPa 0,0 l/m 12,5 km/h (3 Bft) O-NO 61 0 min 0,000 mm 0,0 UV-I 0 W/m -2,6 C -6,4 C 19,3 km/h (3 Bft) 97,37 %
10.02.2017 23:02 -0,9 C 88 % 1021,2 hPa 0,0 l/m 9,8 km/h (2 Bft) NO 41 0 min 0,026 mm 0,0 UV-I 0 W/m -2,6 C -4,3 C 14,5 km/h (3 Bft) 98,00 %
10.02.2017 23:04 -0,9 C 88 % 1021,2 hPa 0,0 l/m 9,3 km/h (2 Bft) O-NO 59 0 min 0,000 mm 0,0 UV-I 0 W/m -2,6 C -3,8 C 14,5 km/h (3 Bft) 93,62 %
10.02.2017 23:06 -1,0 C 88 % 1021,2 hPa 0,0 l/m 9,7 km/h (2 Bft) O 81 0 min 0,000 mm 0,0 UV-I 0 W/m -2,7 C -4,3 C 14,5 km/h (3 Bft) 95,24 %
10.02.2017 23:08 -1,0 C 88 % 1021,3 hPa 0,0 l/m 12,4 km/h (3 Bft) O-NO 63 0 min 0,000 mm 0,0 UV-I 0 W/m -2,7 C -6,4 C 17,7 km/h (3 Bft) 92,73 %
10.02.2017 23:10 -1,0 C 88 % 1021,3 hPa 0,0 l/m 12,1 km/h (2 Bft) O-NO 78 0 min 0,000 mm 0,0 UV-I 0 W/m -2,7 C -6,2 C 17,7 km/h (3 Bft) 92,86 %
10.02.2017 23:12 -1,0 C 88 % 1021,3 hPa 0,0 l/m 12,6 km/h (3 Bft) O-NO 63 0 min 0,000 mm 0,0 UV-I 0 W/m -2,7 C -6,6 C 17,7 km/h (3 Bft) 96,23 %
10.02.2017 23:14 -1,0 C 88 % 1021,4 hPa 0,0 l/m 12,3 km/h (3 Bft) O 82 0 min 0,000 mm 0,0 UV-I 0 W/m -2,7 C -6,4 C 17,7 km/h (3 Bft) 90,24 %
10.02.2017 23:16 -1,0 C 88 % 1021,4 hPa 0,0 l/m 9,2 km/h (2 Bft) O-NO 69 0 min 0,000 mm 0,0 UV-I 0 W/m -2,7 C -3,8 C 14,5 km/h (3 Bft) 96,00 %
10.02.2017 23:18 -1,0 C 88 % 1021,5 hPa 0,0 l/m 8,7 km/h (2 Bft) O 96 0 min 0,000 mm 0,0 UV-I 0 W/m -2,7 C -3,4 C 14,5 km/h (3 Bft) 95,12 %
10.02.2017 23:20 -1,0 C 88 % 1021,5 hPa 0,0 l/m 12,3 km/h (3 Bft) O-NO 73 0 min 0,000 mm 0,0 UV-I 0 W/m -2,7 C -6,4 C 16,1 km/h (3 Bft) 90,00 %
10.02.2017 23:22 -1,0 C 88 % 1021,5 hPa 0,0 l/m 8,2 km/h (2 Bft) O 91 0 min 0,000 mm 0,0 UV-I 0 W/m -2,7 C -2,9 C 12,9 km/h (3 Bft) 96,00 %
10.02.2017 23:24 -1,0 C 88 % 1021,5 hPa 0,0 l/m 4,7 km/h (1 Bft) O-NO 67 0 min 0,000 mm 0,0 UV-I 0 W/m -2,7 C -1,0 C 8,0 km/h (2 Bft) 100,00 %
10.02.2017 23:26 -1,0 C 88 % 1021,6 hPa 0,0 l/m 8,6 km/h (2 Bft) O-SO 109 0 min 0,000 mm 0,0 UV-I 0 W/m -2,7 C -3,3 C 12,9 km/h (3 Bft) 100,00 %
10.02.2017 23:28 -1,0 C 88 % 1021,5 hPa 0,0 l/m 7,0 km/h (2 Bft) O-NO 76 0 min 0,000 mm 0,0 UV-I 0 W/m -2,7 C -1,6 C 9,7 km/h (2 Bft) 100,00 %
10.02.2017 23:30 -1,0 C 88 % 1021,5 hPa 0,0 l/m 9,1 km/h (2 Bft) O-NO 66 0 min 0,000 mm 0,0 UV-I 0 W/m -2,7 C -3,8 C 12,9 km/h (3 Bft) 93,48 %
10.02.2017 23:32 -0,9 C 88 % 1021,5 hPa 0,0 l/m 9,8 km/h (2 Bft) O-NO 65 0 min 0,000 mm 0,0 UV-I 0 W/m -2,6 C -4,3 C 17,7 km/h (3 Bft) 96,23 %
10.02.2017 23:34 -1,0 C 88 % 1021,5 hPa 0,0 l/m 9,4 km/h (2 Bft) O-NO 76 0 min 0,000 mm 0,0 UV-I 0 W/m -2,7 C -4,0 C 14,5 km/h (3 Bft) 97,56 %
10.02.2017 23:36 -1,1 C 88 % 1021,5 hPa 0,0 l/m 9,1 km/h (2 Bft) O 85 0 min 0,000 mm 0,0 UV-I 0 W/m -2,8 C -3,9 C 16,1 km/h (3 Bft) 100,00 %
10.02.2017 23:38 -1,1 C 88 % 1021,5 hPa 0,0 l/m 13,5 km/h (3 Bft) O-NO 58 0 min 0,000 mm 0,0 UV-I 0 W/m -2,8 C -7,3 C 19,3 km/h (3 Bft) 95,12 %
10.02.2017 23:40 -1,1 C 88 % 1021,6 hPa 0,0 l/m 11,2 km/h (2 Bft) NO 55 0 min 0,000 mm 0,0 UV-I 0 W/m -2,8 C -5,7 C 16,1 km/h (3 Bft) 88,68 %
10.02.2017 23:42 -1,0 C 88 % 1021,5 hPa 0,0 l/m 11,0 km/h (2 Bft) NO 51 0 min 0,000 mm 0,0 UV-I 0 W/m -2,7 C -5,4 C 17,7 km/h (3 Bft) 92,31 %
10.02.2017 23:44 -1,0 C 88 % 1021,5 hPa 0,0 l/m 12,2 km/h (2 Bft) O-NO 61 0 min 0,000 mm 0,0 UV-I 0 W/m -2,7 C -6,3 C 19,3 km/h (3 Bft) 97,73 %
10.02.2017 23:46 -1,0 C 88 % 1021,5 hPa 0,0 l/m 11,9 km/h (2 Bft) O-NO 60 0 min 0,000 mm 0,0 UV-I 0 W/m -2,7 C -6,1 C 17,7 km/h (3 Bft) 96,00 %
10.02.2017 23:48 -1,0 C 88 % 1021,4 hPa 0,0 l/m 10,8 km/h (2 Bft) NO 55 0 min 0,000 mm 0,0 UV-I 0 W/m -2,7 C -5,2 C 17,7 km/h (3 Bft) 94,87 %
10.02.2017 23:50 -1,0 C 88 % 1021,4 hPa 0,0 l/m 9,8 km/h (2 Bft) O-NO 59 0 min 0,000 mm 0,0 UV-I 0 W/m -2,7 C -4,4 C 14,5 km/h (3 Bft) 96,23 %
10.02.2017 23:52 -1,1 C 88 % 1021,4 hPa 0,0 l/m 11,4 km/h (2 Bft) N-NO 30 0 min 0,000 mm 0,0 UV-I 0 W/m -2,8 C -5,8 C 16,1 km/h (3 Bft) 95,92 %
10.02.2017 23:54 -1,1 C 88 % 1021,4 hPa 0,0 l/m 8,6 km/h (2 Bft) NO 52 0 min 0,000 mm 0,0 UV-I 0 W/m -2,8 C -3,4 C 14,5 km/h (3 Bft) 97,44 %
10.02.2017 23:56 -1,2 C 89 % 1021,4 hPa 0,0 l/m 9,0 km/h (2 Bft) NO 45 0 min 0,000 mm 0,0 UV-I 0 W/m -2,8 C -3,9 C 14,5 km/h (3 Bft) 94,34 %
10.02.2017 23:58 -1,2 C 89 % 1021,5 hPa 0,0 l/m 8,2 km/h (2 Bft) NO 53 0 min 0,000 mm 0,0 UV-I 0 W/m -2,8 C -3,1 C 14,5 km/h (3 Bft) 97,56 %
_ Min-Zeit 08:04 13:58 15:40 - 07:44 - - - - - - 08:00 00:30 07:44 14:38
Minimum _ -2,7 C 73 % 1019,7 hPa - 0,0 km/h (0 Bft) - - - - - - -3,6 C -12,9 C 0,0 km/h (0 Bft) 84,62 %
_ Max-Zeit 13:46 08:06 00:08 00:00 18:26 - - 16:13 13:00 11:36 12:18 13:44 13:50 18:36 00:00
Maximum _ 4,6 C 94 % 1021,6 hPa 0,0 l/m 28,4 km/h
NO (4 Bft)
- - 3 min 0,178 mm 1,2 UV-I 477 W/m 0,6 C 4,2 C 45,1 km/h
O-NO (6 Bft)
100,00 %
Durchschnitt _ 0,1 C 87 % 1020,6 hPa #0,0 l/m 12,5 km/h (3 Bft) O-NO - #8:44 h #1,245 mm 0,9 UV-I 263 W/m -1,9 C -5,3 C 17,9 km/h (3 Bft) 96,50 %